[[[{"header":{"parameterUnit":"kt","parameterCategory":2,"dx":1,"dy":1,"la1":29.587661999999998,"la2":31.0,"lo1":-88.76705300000003,"lo2":-86.6583820000003,"nx":115,"ny":88,"refTime":"2022-09-24T06:00:00:Z","depth":0,"parameterNumber":1,"parameterNumberName":"U-component_of_WINDS"},"data":[5.7986,5.7986,5.7727,5.8609,6.0018,6.0924,6.1971,6.3119,6.4082,6.4199,6.3675,6.3006,6.2436,6.2057,6.1946,6.1754,6.1449,6.1449,6.1308,6.1195,6.1083,6.1083,6.1546,6.256,6.4357,6.6067,6.766,6.8501,6.8605,6.8605,6.835,6.7807,6.7807,6.7418,6.6764,6.6262,6.5889,6.5431,6.4698,6.3985,6.3293,6.2027,6.0618,5.9277,5.7837,5.727,5.7051,5.7457,5.7623,5.8096,5.8481,5.8777,5.8933,5.8933,5.8911,5.8911,5.8558,5.92,5.9525,5.9474,5.9291,5.9186,5.788,5.6196,5.4539,5.2884,5.1388,5.0129,4.929,4.8646,4.8447,4.8248,4.8248,4.8248,4.8248,4.8631,4.8761,4.9126,4.9235,4.9861,5.062,5.0949,5.0908,5.0601,4.9657,4.902,4.7838,4.6138,4.4442,4.2491,4.0528,3.7795,3.5054,3.2293,2.9531,2.6452,2.3896,2.1335,1.8768,1.5914,1.3577,1.1763,1.0199,0.8891,0.7583,0.6277,0.5495,0.4712,0.3927,0.3403,0.2879,0.2367,0.2131,0.1889,0.1367,5.7466,5.7466,5.7379,5.884,6.0986,6.0918,6.2075,6.399,6.3839,6.3403,6.2898,6.1998,6.1526,6.122,6.0941,6.0743,6.0629,6.0885,6.0772,6.0658,6.0629,6.0629,6.1089,6.1893,6.33,6.4993,6.6974,6.7749,6.8193,6.8065,6.7936,6.7577,6.7316,6.7186,6.65,6.5995,6.5621,6.516,6.4589,6.3848,6.2733,6.1626,6.0328,5.8981,5.7886,5.7175,5.7074,5.7155,5.7502,5.797,5.8396,5.8601,5.8735,5.8558,5.8735,5.858,5.8249,5.8564,5.9108,5.8912,5.8681,5.8344,5.7269,5.5784,5.4331,5.2655,5.0964,4.9702,4.8878,4.8248,4.8248,4.8248,4.8248,4.8248,4.8032,4.8132,4.8212,4.8289,4.8077,4.8099,4.8812,4.9279,4.9418,4.9258,4.8855,4.8389,4.7343,4.5655,4.3956,4.1743,3.9788,3.731,3.4564,3.2041,2.9522,2.6716,2.3896,2.1599,1.9291,1.6951,1.4356,1.202,1.0199,0.9152,0.8105,0.7061,0.6016,0.5233,0.4712,0.4188,0.3671,0.3422,0.2935,0.2437,0.1919,5.7084,5.6906,5.6817,5.8266,6.0385,6.0177,6.1399,6.3312,6.319,6.2544,6.1666,6.1137,6.0828,6.0714,6.0515,6.0544,6.0544,6.0429,6.0314,6.0429,6.0544,6.0429,6.1201,6.2198,6.3197,6.4215,6.6266,6.7678,6.7908,6.7779,6.7678,6.7577,6.7447,6.7055,6.6367,6.5995,6.5593,6.4889,6.4177,6.3153,6.2027,6.0763,5.9474,5.8262,5.7347,5.692,5.6832,5.6892,5.7383,5.8211,5.8575,5.8712,5.8558,5.8381,5.8426,5.8249,5.7934,5.7801,5.8252,5.7978,5.7239,5.6813,5.599,5.4539,5.3094,5.137,4.9881,4.9488,4.8447,4.8248,4.8248,4.8032,4.8032,4.8032,4.7816,4.78,4.7547,4.7322,4.706,4.7047,4.7223,4.7875,4.7862,4.793,4.7313,4.7051,4.5822,4.4359,4.279,4.0761,3.8799,3.6575,3.4074,3.1556,2.9015,2.6461,2.3896,2.1856,1.9807,1.7215,1.4625,1.228,1.046,0.9674,0.8627,0.7322,0.6538,0.5496,0.4973,0.4451,0.42,0.4215,0.3481,0.2991,0.2196,5.6638,5.6368,5.6125,5.7616,5.9762,5.9849,6.0942,6.2701,6.2356,6.1585,6.0799,6.0515,6.0286,6.0286,6.0171,6.0171,6.0056,5.994,6.0056,5.994,5.9824,5.9708,6.0278,6.1853,6.3012,6.4115,6.5472,6.7055,6.7157,6.7288,6.7288,6.7055,6.6924,6.666,6.5968,6.5862,6.5296,6.4589,6.3736,6.2619,6.1313,6.0061,5.8883,5.7512,5.651,5.629,5.6761,5.6737,5.7336,5.8311,5.8645,5.858,5.858,5.8071,5.7915,5.7737,5.7044,5.7144,5.7311,5.6698,5.6158,5.5595,5.4747,5.3304,5.16,4.9881,4.9025,4.8844,4.843,4.8248,4.8248,4.8032,4.8032,4.7816,4.7583,4.7367,4.715,4.6627,4.6082,4.6288,4.6288,4.6505,4.6553,4.6437,4.5776,4.5101,4.3955,4.2868,4.1333,3.9712,3.7487,3.5576,3.332,3.1051,2.9015,2.6461,2.3903,2.1599,1.9807,1.748,1.489,1.3325,1.1763,1.0717,0.8891,0.7583,0.6538,0.5756,0.5235,0.445,0.4199,0.3956,0.348,0.2701,0.1914,5.6064,5.5972,5.5787,5.6987,5.9127,6.0093,6.1083,6.2137,6.1054,6.0515,6.0401,6.0056,5.9912,5.9824,5.968,5.9535,5.9447,5.933,5.9213,5.9067,5.8977,5.8887,5.9586,6.096,6.21,6.313,6.4437,6.5968,6.6129,6.6262,6.6262,6.5995,6.6157,6.5995,6.5565,6.5323,6.4889,6.4039,6.29,6.1769,6.0499,5.9474,5.8561,5.7185,5.6249,5.5881,5.6618,5.7008,5.7044,5.8172,5.8558,5.8404,5.8049,5.7693,5.7158,5.662,5.608,5.6057,5.6023,5.5414,5.5044,5.4534,5.3705,5.2463,5.1194,4.9702,4.8844,4.8447,4.8447,4.8248,4.8032,4.7816,4.76,4.7383,4.6933,4.6482,4.6047,4.5439,4.4859,4.448,4.4442,4.4387,4.4376,4.4255,4.3582,4.3269,4.2481,4.1469,3.9925,3.8085,3.6211,3.4575,3.2555,3.0535,2.8497,2.6205,2.3654,2.1606,1.9807,1.7744,1.541,1.411,1.3325,1.1238,0.8891,0.7844,0.6536,0.6017,0.5495,0.4712,0.42,0.396,0.3186,0.2138,0.1352,5.5168,5.5009,5.5073,5.5896,5.7269,5.8883,5.9976,6.0314,5.9796,5.9447,5.9241,5.9095,5.9095,5.9123,5.9005,5.8859,5.8859,5.8741,5.8622,5.8504,5.8357,5.8237,5.8851,6.0186,6.1185,6.2152,6.3383,6.4997,6.4997,6.516,6.5728,6.5728,6.5889,6.5593,6.5052,6.4752,6.4342,6.3207,6.2079,6.0907,5.9768,5.8759,5.7536,5.632,5.5527,5.5795,5.6517,5.629,5.6883,5.8071,5.8404,5.8071,5.7672,5.7136,5.6598,5.5334,5.4668,5.4502,5.4646,5.385,5.3456,5.3204,5.2674,5.1406,5.0343,4.929,4.8663,4.8248,4.8248,4.8032,4.7816,4.76,4.7166,4.6949,4.6063,4.5392,4.4955,4.4297,4.3652,4.299,4.2621,4.2501,4.2114,4.1724,4.1559,4.1277,4.0635,3.992,3.8448,3.671,3.5226,3.3561,3.1799,3.0019,2.7998,2.5958,2.3654,2.1348,1.9814,1.8003,1.5669,1.411,1.3065,1.1238,0.9152,0.7844,0.6536,0.6016,0.5495,0.4712,0.3933,0.3154,0.211,0.1326,0.0536,5.4407,5.4244,5.4311,5.5086,5.6218,5.735,5.8433,5.91,5.8949,5.8741,5.8531,5.8531,5.865,5.8531,5.8531,5.8531,5.8412,5.8412,5.8293,5.8053,5.7664,5.7636,5.8239,5.943,6.0332,6.131,6.258,6.4123,6.415,6.4452,6.4889,6.5296,6.5025,6.4889,6.4616,6.4204,6.3233,6.2079,6.1103,5.994,5.8908,5.7837,5.6778,5.5705,5.4775,5.5133,5.5818,5.5789,5.6369,5.7476,5.7672,5.7358,5.6957,5.6239,5.5516,5.424,5.3319,5.2796,5.307,5.2308,5.1998,5.2028,5.137,5.0112,4.9273,4.8663,4.8464,4.8032,4.8032,4.7816,4.76,4.6949,4.6281,4.5845,4.5173,4.4516,4.3857,4.3211,4.2548,4.1883,4.1202,4.1064,4.0827,4.0421,3.9913,3.9425,3.9006,3.8163,3.7019,3.5677,3.4249,3.3048,3.1294,2.9513,2.7735,2.5455,2.3405,2.1097,1.9807,1.8003,1.5929,1.411,1.3065,1.1502,1.0195,0.8366,0.6536,0.5754,0.4973,0.4188,0.3403,0.2355,0.131,0.0527,0.0,5.3699,5.3601,5.3462,5.4678,5.6487,5.5888,5.6708,5.8476,5.8531,5.8412,5.8412,5.8412,5.8412,5.8412,5.8412,5.8412,5.8293,5.7812,5.7664,5.7421,5.6933,5.681,5.7441,5.8717,5.9578,6.0726,6.2039,6.3319,6.3571,6.3736,6.3874,6.4123,6.415,6.4012,6.3736,6.3207,6.2106,6.1103,6.0087,5.9056,5.8012,5.6778,5.5859,5.5063,5.4242,5.4422,5.4986,5.5374,5.5941,5.6531,5.6778,5.6419,5.5878,5.4971,5.4444,5.3362,5.2251,5.1737,5.1554,5.0821,5.0845,5.1104,5.0095,4.9059,4.843,4.8248,4.8032,4.8032,4.7816,4.76,4.7166,4.6281,4.5626,4.497,4.4297,4.3637,4.299,4.2326,4.1661,4.0993,4.031,3.9626,3.9402,3.8729,3.8186,3.7654,3.7125,3.626,3.5348,3.4253,3.3348,3.217,3.0778,2.925,2.7225,2.5191,2.2892,2.0839,1.9291,1.8003,1.6188,1.437,1.2805,1.1502,1.0717,0.9149,0.6797,0.5493,0.4712,0.3927,0.2879,0.1832,0.0523,0.0,-0.0791,5.2477,5.2477,5.2376,5.3723,5.5497,5.5144,5.6199,5.7842,5.7905,5.7933,5.7933,5.7933,5.7933,5.7812,5.7664,5.7543,5.7543,5.7055,5.6933,5.681,5.6193,5.5944,5.6434,5.7653,5.8705,5.9277,6.0882,6.2389,6.2645,6.2786,6.304,6.3432,6.3571,6.3432,6.29,6.2195,6.1103,6.0379,5.9204,5.8036,5.7106,5.6166,5.5086,5.4284,5.3657,5.3468,5.4135,5.4435,5.4599,5.5085,5.5274,5.4971,5.4261,5.3342,5.2417,5.1878,5.087,5.0103,5.02,4.9604,4.9682,4.9991,4.9042,4.8447,4.8248,4.8248,4.8032,4.7816,4.76,4.7166,4.6281,4.5626,4.4751,4.4092,4.3431,4.2548,4.1883,4.1187,4.0519,3.9863,3.9416,3.8505,3.783,3.7392,3.6714,3.6117,3.5294,3.4584,3.3622,3.319,3.2608,3.1356,2.9757,2.8234,2.6461,2.468,2.2635,2.0575,1.9032,1.7744,1.5929,1.437,1.2805,1.1242,1.0195,0.8888,0.6799,0.5231,0.4187,0.3141,0.2355,0.1309,0.0,-0.0786,-0.1573,5.1663,5.1663,5.1691,5.2909,5.4755,5.503,5.6098,5.7538,5.7636,5.7543,5.7543,5.7543,5.7543,5.7421,5.73,5.7055,5.6933,5.6564,5.6193,5.6193,5.5568,5.5343,5.5898,5.6917,5.7922,5.8621,6.0148,6.1704,6.1847,6.2248,6.2504,6.276,6.304,6.2927,6.2248,6.1247,6.0353,5.9622,5.8461,5.7282,5.619,5.542,5.4486,5.3341,5.2866,5.2736,5.2881,5.3225,5.3411,5.3655,5.3485,5.3301,5.2808,5.1485,5.0735,5.0378,4.9243,4.8545,4.8894,4.8987,4.8958,4.8855,4.843,4.8248,4.8248,4.8032,4.7816,4.7399,4.6949,4.6281,4.5626,4.4736,4.4092,4.3431,4.2548,4.1661,4.0993,4.0296,3.9612,3.8954,3.828,3.7605,3.6928,3.6488,3.5593,3.467,3.3843,3.2842,3.237,3.1886,3.1401,3.0197,2.9176,2.7437,2.595,2.4167,2.2378,2.0582,1.9038,1.7485,1.5924,1.4625,1.2805,1.0981,0.9674,0.8369,0.6799,0.5231,0.3925,0.2617,0.157,0.0262,-0.0523,-0.1309,-0.2094,5.1097,5.1097,5.1152,5.235,5.4133,5.5249,5.6396,5.7461,5.7543,5.7543,5.7543,5.7421,5.73,5.7178,5.6933,5.6687,5.644,5.5819,5.5568,5.5443,5.4836,5.4659,5.5358,5.6439,5.7557,5.8432,5.9866,6.1155,6.1443,6.1704,6.1989,6.2248,6.2504,6.2504,6.1989,6.0814,5.9915,5.9031,5.7788,5.6601,5.5551,5.4643,5.3859,5.2888,5.241,5.1731,5.1816,5.1949,5.2004,5.1981,5.178,5.1613,5.1317,4.9812,4.9224,4.909,4.7735,4.7429,4.7853,4.8082,4.8146,4.8182,4.8232,4.8032,4.8032,4.7816,4.7383,4.6949,4.6281,4.5392,4.4736,4.4077,4.3211,4.2548,4.1661,4.0979,4.0087,3.9402,3.8729,3.828,3.7379,3.6689,3.6261,3.5593,3.4456,3.3463,3.2401,3.1693,3.1154,3.0841,3.0117,2.9201,2.8227,2.68,2.5168,2.3647,2.212,2.0582,1.878,1.722,1.5664,1.4106,1.2544,1.0717,0.9152,0.7847,0.654,0.4968,0.3663,0.2094,0.0785,0.0,-0.0785,-0.1832,-0.2879,5.0544,5.0654,5.1449,5.2655,5.4047,5.5276,5.645,5.7433,5.7543,5.7543,5.7543,5.73,5.7178,5.696,5.644,5.5944,5.5694,5.5217,5.4963,5.4581,5.43,5.4451,5.5107,5.6092,5.7071,5.8135,5.9547,6.055,6.0959,6.1103,6.1391,6.1678,6.1989,6.1821,6.1417,6.0379,5.9377,5.8162,5.7082,5.5836,5.4908,5.3971,5.3024,5.241,5.1449,5.0734,5.0396,5.0483,5.0533,5.0187,4.9956,4.9999,4.9224,4.8272,4.7489,4.7108,4.6862,4.6736,4.7127,4.7269,4.7403,4.775,4.7616,4.7383,4.715,4.6933,4.6514,4.6297,4.5408,4.4751,4.4312,4.3211,4.2326,4.1661,4.0979,4.0087,3.9402,3.8729,3.8055,3.7605,3.6928,3.6249,3.5808,3.5139,3.4011,3.2947,3.1761,3.0927,3.0176,2.9361,2.8841,2.7923,2.7252,2.5973,2.4385,2.287,2.1348,1.9807,1.8256,1.6443,1.4852,1.3846,1.2284,1.0166,0.8603,0.7322,0.5751,0.4174,0.2872,0.1568,0.0785,-0.0262,-0.1047,-0.1832,-0.314,5.0333,5.0442,5.1616,5.2845,5.4101,5.5276,5.645,5.7433,5.7543,5.7543,5.7543,5.7178,5.6906,5.6537,5.5944,5.5443,5.509,5.4454,5.4197,5.394,5.3552,5.3565,5.4339,5.5147,5.6258,5.7149,5.8722,5.9794,6.0379,6.0524,6.0933,6.1247,6.1247,6.1273,6.0985,6.0379,5.9056,5.7837,5.6473,5.5218,5.444,5.3318,5.2366,5.161,5.0499,4.9642,4.8861,4.8958,4.861,4.8244,4.8213,4.8155,4.7799,4.6912,4.6351,4.6017,4.6072,4.6378,4.6755,4.7177,4.7272,4.735,4.7166,4.6933,4.6716,4.6063,4.5626,4.5189,4.4516,4.3637,4.3211,4.2326,4.1438,4.0756,4.0073,3.9402,3.8729,3.8055,3.7379,3.6928,3.6475,3.5808,3.5139,3.4468,3.3325,3.2409,3.104,2.9958,2.9015,2.8147,2.7258,2.6575,2.603,2.4801,2.3602,2.2113,2.0575,1.9026,1.7474,1.558,1.3954,1.2708,1.1404,0.9594,0.7774,0.6497,0.4945,0.3381,0.2336,0.1294,0.0519,0.0,0.0,-0.157,-0.3401,5.0333,5.0469,5.1507,5.2845,5.4074,5.5276,5.645,5.7543,5.7543,5.7543,5.7543,5.7178,5.666,5.6015,5.5694,5.509,5.4581,5.3811,5.3526,5.3292,5.2819,5.273,5.3576,5.4634,5.5802,5.6466,5.806,5.9129,5.9647,5.9915,6.0087,6.0233,6.0353,6.0644,6.0499,5.994,5.8883,5.7536,5.6013,5.4775,5.3768,5.2843,5.1887,5.064,4.9662,4.8656,4.7181,4.707,4.6993,4.6576,4.638,4.6335,4.6403,4.5947,4.5577,4.5411,4.5632,4.601,4.658,4.6988,4.7203,4.715,4.6716,4.6063,4.5611,4.4955,4.4736,4.4516,4.3416,4.2754,4.2105,4.1438,4.0756,4.0087,3.9416,3.8743,3.8055,3.7379,3.6928,3.6488,3.5808,3.5139,3.4468,3.3314,3.2179,3.1249,3.0106,2.9191,2.7991,2.6902,2.5987,2.5103,2.4561,2.389,2.2463,2.1017,1.9657,1.8106,1.605,1.444,1.2801,1.1502,0.9963,0.8433,0.6653,0.5669,0.4399,0.2829,0.1536,0.1023,0.0,0.0,0.0,0.0,-0.34,5.0147,4.9881,5.1013,5.2285,5.365,5.4898,5.6185,5.7461,5.7543,5.7543,5.7421,5.7178,5.6564,5.5792,5.5064,5.4454,5.3785,5.3396,5.3031,5.2612,5.2448,5.2529,5.3345,5.4229,5.5434,5.6583,5.7893,5.8808,5.9031,5.9179,5.9204,5.9327,5.9622,5.9622,5.9474,5.9204,5.8759,5.7536,5.6013,5.4418,5.307,5.2025,5.0921,4.9805,4.8676,4.7535,4.6291,4.6094,4.572,4.5435,4.5308,4.5281,4.5438,4.5188,4.4816,4.4644,4.5237,4.5785,4.5919,4.6451,4.6987,4.6514,4.5845,4.4736,4.4077,4.3637,4.3416,4.3416,4.2326,4.1661,4.1216,4.0533,3.9863,3.9191,3.8743,3.8068,3.7392,3.694,3.6488,3.5808,3.4911,3.4239,3.3085,3.1938,3.1018,3.0316,2.9393,2.8244,2.712,2.5738,2.4804,2.3868,2.3225,2.2688,2.1275,1.9723,1.8465,1.6921,1.4626,1.278,1.1372,1.0069,0.8559,0.7053,0.5545,0.4295,0.3278,0.2018,0.0,0.0,0.0,0.0,0.0,0.0,-0.2874,4.9504,4.9367,5.0009,5.1168,5.2577,5.388,5.5096,5.6216,5.6812,5.7055,5.7055,5.6933,5.644,5.5568,5.4555,5.3785,5.3266,5.2743,5.2481,5.2217,5.2001,5.2005,5.2888,5.4024,5.4787,5.6003,5.7377,5.8288,5.8461,5.8461,5.8586,5.8883,5.9031,5.9031,5.9179,5.8734,5.8162,5.7385,5.6143,5.4395,5.2776,5.1522,5.0273,4.915,4.7681,4.6511,4.5254,4.485,4.4289,4.4506,4.4009,4.4228,4.4703,4.4425,4.423,4.3938,4.4814,4.5144,4.4957,4.5744,4.5872,4.5408,4.4516,4.3652,4.2975,4.2533,4.2105,4.2105,4.1216,4.0547,4.031,3.964,3.8967,3.8505,3.8055,3.7379,3.6928,3.6488,3.582,3.4911,3.4011,3.2856,3.1709,3.0777,2.9855,2.9151,2.8003,2.7074,2.6142,2.4967,2.3709,2.2723,2.2142,2.1338,1.9949,1.843,1.6938,1.5435,1.3173,1.1342,0.9973,0.8429,0.6946,0.5461,0.4222,0.321,0.2205,0.0,0.0,0.0,0.0,0.0,0.0,0.0,-0.2064,4.8606,4.8798,4.8825,4.9762,5.1185,5.2174,5.3467,5.4753,5.5866,5.6403,5.644,5.644,5.6042,5.529,5.4146,5.3241,5.2849,5.2324,5.1927,5.1819,5.1686,5.1626,5.1944,5.3591,5.4323,5.5104,5.6715,5.7642,5.8036,5.8336,5.8461,5.8461,5.8759,5.8908,5.8759,5.8287,5.7837,5.7058,5.6296,5.4752,5.2866,5.1427,4.9947,4.849,4.7014,4.5668,4.4174,4.3252,4.2939,4.3451,4.2755,4.3318,4.4282,4.4017,4.3821,4.3825,4.4026,4.4125,4.4124,4.4593,4.4751,4.4297,4.3416,4.299,4.2326,4.1661,4.0993,4.1007,4.0087,3.9402,3.9416,3.8743,3.8518,3.8068,3.7605,3.6915,3.6475,3.5808,3.4923,3.4011,3.2856,3.1709,3.0547,2.9624,2.8688,2.7761,2.6841,2.6142,2.52,2.4023,2.2954,2.1835,2.1002,1.9963,1.8271,1.6902,1.5446,1.3725,1.1713,0.9937,0.8368,0.6596,0.5133,0.416,0.2935,0.195,0.1456,0.0,0.0,0.0,0.0,0.0,0.0,0.0,0.0,4.7582,4.7668,4.7943,4.8844,5.0154,5.0496,5.185,5.3805,5.4578,5.5217,5.5739,5.5694,5.5542,5.4885,5.4017,5.298,5.206,5.2084,5.1819,5.171,5.1552,5.1552,5.1871,5.2737,5.3884,5.4665,5.608,5.7007,5.7593,5.8012,5.8036,5.8186,5.8036,5.8186,5.8186,5.7837,5.7209,5.6601,5.5859,5.511,5.3544,5.161,4.9642,4.7807,4.6511,4.4989,4.3469,4.2433,4.2371,4.2459,4.2486,4.2857,4.3699,4.3412,4.3019,4.2836,4.3374,4.3343,4.3201,4.3532,4.3652,4.3196,4.2105,4.1675,4.123,4.077,3.9863,3.964,3.9178,3.8729,3.8743,3.8081,3.7856,3.7631,3.7166,3.6475,3.5796,3.4887,3.3999,3.2856,3.1709,3.0547,2.9614,2.8688,2.7761,2.6832,2.59,2.52,2.4265,2.3086,2.192,2.0779,1.9666,1.8385,1.7043,1.5454,1.3756,1.2051,1.0066,0.8331,0.6564,0.4827,0.3861,0.2659,0.0,0.0,0.0,0.0,0.0,0.0,0.0,0.0,0.0,0.0,-0.0998,4.6453,4.6567,4.6984,4.7631,4.8398,4.9055,5.0128,5.1361,5.2843,5.3679,5.4103,5.455,5.4657,5.4146,5.3526,5.2718,5.206,5.1819,5.171,5.1552,5.1552,5.1552,5.1699,5.2541,5.3591,5.4518,5.5033,5.5715,5.6908,5.7468,5.7886,5.7886,5.7886,5.7886,5.7735,5.7385,5.693,5.6473,5.5551,5.462,5.3702,5.177,4.9293,4.7308,4.5648,4.4326,4.2779,4.1895,4.1751,4.2212,4.1996,4.244,4.274,4.2428,4.1653,4.1291,4.1704,4.2038,4.1618,4.2189,4.2282,4.1632,4.0979,4.0324,4.0101,3.9863,3.9402,3.8967,3.8518,3.8081,3.8081,3.7856,3.7631,3.7166,3.6702,3.5796,3.5115,3.418,3.2822,3.1698,3.0306,2.9151,2.8225,2.7529,2.6599,2.59,2.4967,2.4023,2.3321,2.2148,2.0729,1.9814,1.9125,1.7557,1.5674,1.4033,1.2114,1.0179,0.8233,0.6529,0.5053,0.3368,0.2162,0.0,0.0,0.0,0.0,0.0,0.0,0.0,0.0,0.0,0.0,0.0,-0.0492,4.5467,4.5699,4.607,4.6275,4.6604,4.7578,4.8109,4.8708,5.0696,5.179,5.2177,5.3045,5.3376,5.3085,5.2875,5.2324,5.1661,5.1261,5.1309,5.1175,5.1175,5.1151,5.1272,5.1976,5.2947,5.3846,5.4285,5.4746,5.5784,5.7002,5.7536,5.7609,5.7584,5.7584,5.7409,5.7233,5.6754,5.632,5.5241,5.4307,5.3341,5.1727,4.9436,4.6659,4.497,4.3641,4.2242,4.1251,4.1166,4.198,4.1218,4.1488,4.1877,4.1041,4.006,3.9931,4.0275,4.0354,4.0105,4.0476,4.0644,4.0059,3.9612,3.9402,3.9402,3.9178,3.8743,3.8306,3.8081,3.7882,3.7644,3.7644,3.7405,3.694,3.6249,3.5354,3.4204,3.3039,3.1665,3.0075,2.892,2.7751,2.6822,2.59,2.52,2.4257,2.3555,2.2852,2.1913,2.0736,1.9558,1.885,1.8147,1.6489,1.4594,1.2707,1.0564,0.8659,0.6735,0.5044,0.3602,0.192,0.0,0.0,0.0,0.0,0.0,0.0,0.0,0.0,0.0,0.0,0.0,0.0,0.0,4.4649,4.4766,4.5001,4.5185,4.5234,4.5406,4.6113,4.6971,4.7922,4.9291,5.0588,5.1114,5.1688,5.1862,5.1588,5.1236,5.0992,5.0747,5.0636,5.0636,5.0636,5.0636,5.0684,5.0789,5.1387,5.2322,5.3064,5.3925,5.5125,5.6203,5.6786,5.6802,5.6802,5.6954,5.6778,5.6449,5.6119,5.6013,5.4931,5.3994,5.316,5.1705,4.9436,4.6659,4.4649,4.3106,4.1721,4.0953,4.0647,4.1103,4.0878,4.0899,4.0651,3.966,3.8657,3.8514,3.8599,3.8787,3.8668,3.9093,3.9626,3.9626,3.8954,3.8743,3.8518,3.8306,3.8094,3.7869,3.7869,3.7644,3.7644,3.7644,3.7405,3.6702,3.6249,3.5342,3.3976,3.1916,3.0065,2.8467,2.7297,2.6124,2.5192,2.4499,2.3555,2.2617,2.2382,2.167,2.0265,1.9086,1.8383,1.791,1.6963,1.5539,1.4113,1.2221,0.935,0.7441,0.552,0.4078,0.24,0.144,0.0,0.0,0.0,0.0,0.0,0.0,0.0,0.0,0.0,0.0,0.0,0.0,0.0,4.3438,4.3558,4.382,4.3939,4.3939,4.3963,4.4345,4.4919,4.6053,4.7148,4.7902,4.8886,4.9668,5.0516,5.0061,5.0132,5.0492,5.0365,5.0365,5.0365,5.0365,5.0389,5.023,4.9868,4.9712,5.0276,5.1593,5.2898,5.3943,5.5043,5.5901,5.6578,5.6649,5.6425,5.6473,5.6143,5.5836,5.5396,5.4463,5.3521,5.2707,5.1083,4.8964,4.6974,4.463,4.2571,4.1199,4.0307,4.0243,4.0284,3.958,3.8853,3.8578,3.7635,3.6826,3.6627,3.6926,3.7098,3.7002,3.7332,3.7817,3.7379,3.7605,3.7605,3.7605,3.7644,3.7644,3.7644,3.7644,3.7644,3.7644,3.7405,3.694,3.6249,3.5342,3.4204,3.2593,3.0285,2.8215,2.6832,2.5667,2.4491,2.3555,2.2617,2.1678,2.0972,2.0736,1.9787,1.8377,1.791,1.7437,1.6489,1.5777,1.4589,1.3395,1.125,0.8384,0.671,0.4794,0.3118,0.168,0.096,0.0,0.0,0.0,0.0,0.0,0.0,0.0,0.0,0.0,0.0,0.0,0.0,0.0,4.252,4.252,4.2786,4.2907,4.2884,4.2884,4.2907,4.3121,4.4432,4.5127,4.5631,4.6471,4.7554,4.8561,4.8501,4.8772,4.9324,4.9679,4.9957,4.9797,4.9957,4.9821,4.9684,4.9135,4.872,4.9137,5.0324,5.1332,5.2297,5.3331,5.4642,5.5469,5.5388,5.5777,5.5812,5.5551,5.5373,5.4931,5.3971,5.2866,5.1909,5.0294,4.88,4.7141,4.463,4.2398,4.0832,3.9604,3.9342,3.9212,3.7817,3.6622,3.6778,3.5918,3.4995,3.4822,3.4927,3.5091,3.4951,3.5669,3.6099,3.5985,3.6475,3.6475,3.6475,3.7179,3.7405,3.7405,3.7418,3.7405,3.7405,3.6928,3.6249,3.5342,3.4432,3.3051,3.0746,2.8437,2.659,2.5192,2.3789,2.2609,2.1207,2.0501,2.003,1.9558,1.8613,1.7904,1.72,1.6732,1.602,1.5069,1.4356,1.3399,1.197,1.0296,0.8145,0.6231,0.4075,0.2399,0.12,0.0,0.0,0.0,0.0,0.0,0.0,0.0,0.0,0.0,0.0,0.0,0.0,0.0,0.0,4.2178,4.2178,4.23,4.23,4.23,4.23,4.2178,4.23,4.2827,4.3412,4.4139,4.4441,4.5115,4.6115,4.6478,4.6834,4.7087,4.8028,4.8259,4.8489,4.8581,4.8443,4.8466,4.8164,4.8164,4.8324,4.9358,4.9982,5.0442,5.1131,5.2096,5.3006,5.3237,5.3544,5.4165,5.4395,5.4128,5.3634,5.316,5.2207,5.1083,4.9621,4.8139,4.6471,4.4308,4.2225,4.0307,3.8753,3.7644,3.6798,3.5461,3.4939,3.4967,3.4172,3.3343,3.2888,3.294,3.3304,3.3526,3.4096,3.4605,3.5483,3.5569,3.5808,3.6035,3.6475,3.6928,3.6928,3.6928,3.694,3.6702,3.6249,3.5342,3.4204,3.3496,3.1424,2.8659,2.6822,2.4958,2.2609,2.1678,2.0501,1.9086,1.8383,1.8153,1.7437,1.6963,1.6009,1.5539,1.5307,1.4594,1.3642,1.2689,1.1974,1.0538,0.934,0.7667,0.5752,0.3597,0.192,0.096,0.0,0.0,0.0,0.0,0.0,0.0,0.0,0.0,0.0,0.0,0.0,0.0,0.0,0.0,4.1049,4.1049,4.1049,4.1071,4.1049,4.1071,4.1049,4.1049,4.1273,4.1745,4.1993,4.2377,4.2921,4.3804,4.4149,4.4601,4.5256,4.625,4.6862,4.709,4.759,4.7397,4.6997,4.7182,4.716,4.725,4.7892,4.853,4.9095,4.9479,5.0202,5.0992,5.1173,5.1692,5.2485,5.2708,5.2599,5.2618,5.2047,5.1244,5.011,4.8635,4.7161,4.5837,4.4137,4.2416,4.029,3.8172,3.6529,3.4947,3.3879,3.3323,3.3094,3.2453,3.1707,3.1098,3.1149,3.1245,3.1739,3.2478,3.2999,3.387,3.466,3.4899,3.5366,3.5808,3.6261,3.6249,3.6261,3.6261,3.6022,3.5557,3.442,3.3051,3.0965,2.888,2.6348,2.4482,2.2844,2.12,1.9551,1.8128,1.7188,1.6246,1.6014,1.5529,1.5023,1.4316,1.3861,1.3404,1.2928,1.197,1.1254,1.0299,0.9105,0.8148,0.6473,0.4794,0.2878,0.192,0.096,0.0,0.0,0.0,0.0,0.0,0.0,0.0,0.0,0.0,0.0,0.0,0.0,0.0,0.0,3.9905,3.9905,3.9905,3.9926,3.9883,3.9905,3.9905,3.9905,4.0134,4.0237,4.0258,4.0508,4.1051,4.1646,4.1933,4.2396,4.3322,4.4272,4.5009,4.5414,4.5832,4.5519,4.512,4.5457,4.5883,4.6124,4.6541,4.697,4.7489,4.7489,4.8018,4.9071,4.9115,4.9602,5.0289,5.0421,5.0772,5.1109,5.0374,4.9652,4.8902,4.7475,4.6155,4.5178,4.326,4.1704,4.0131,3.7833,3.5758,3.3803,3.2504,3.1342,3.0647,3.0362,2.9681,2.9215,2.9137,2.9317,2.9784,3.0494,3.1211,3.2357,3.2971,3.3759,3.4228,3.4672,3.5115,3.5115,3.5115,3.5115,3.4875,3.4408,3.3496,3.1905,2.9362,2.6581,2.4249,2.2382,2.0736,1.9086,1.7188,1.5953,1.5207,1.4237,1.3515,1.3463,1.2975,1.2279,1.2077,1.1634,1.1192,1.026,0.9569,0.8618,0.767,0.6715,0.5515,0.3836,0.2638,0.144,0.072,0.0,0.0,0.0,0.0,0.0,0.0,0.0,0.0,0.0,0.0,0.0,0.0,0.0,0.0,3.919,3.9063,3.9063,3.9085,3.9085,3.9085,3.9085,3.9085,3.9085,3.9085,3.9085,3.9085,3.9275,3.9509,4.0169,4.0574,4.1046,4.2062,4.2761,4.2427,4.2214,4.2184,4.247,4.345,4.4298,4.4943,4.5137,4.5122,4.494,4.5026,4.5409,4.6388,4.6495,4.6944,4.7713,4.7905,4.8044,4.8555,4.8002,4.7752,4.746,4.6245,4.4932,4.353,4.1825,4.0307,3.8897,3.7056,3.5293,3.3061,3.0794,2.9224,2.8168,2.7879,2.7558,2.6853,2.6724,2.7251,2.763,2.8569,2.9461,3.0612,3.1674,3.2146,3.2375,3.2833,3.3279,3.3279,3.3279,3.3279,3.3039,3.2593,3.1905,3.0986,2.8215,2.5399,2.2609,2.0216,1.851,1.6645,1.4791,1.3316,1.2655,1.1947,1.1643,1.1322,1.0823,1.0434,1.0269,0.9859,0.9211,0.8783,0.8103,0.7166,0.6471,0.5515,0.4556,0.3118,0.192,0.096,0.024,0.0,0.0,0.0,0.0,0.0,0.0,0.0,0.0,0.0,0.0,0.0,0.0,0.0,0.0,3.7298,3.7811,3.7832,3.7832,3.7811,3.7832,3.7811,3.7832,3.7575,3.7446,3.7426,3.7446,3.7426,3.7636,3.8181,3.8475,3.8578,3.9822,3.9618,3.8503,3.8776,3.939,3.9959,4.1175,4.198,4.2335,4.2694,4.2843,4.2617,4.2987,4.3418,4.3706,4.3916,4.4369,4.5132,4.5255,4.5534,4.6157,4.5667,4.517,4.4739,4.3741,4.2662,4.1565,4.0591,3.9234,3.7801,3.5099,3.292,3.1077,2.9442,2.7369,2.5527,2.583,2.5694,2.5064,2.4877,2.5209,2.5834,2.6675,2.7801,2.8918,2.9816,3.0526,3.0997,3.1227,3.1457,3.1227,3.1227,3.1457,3.1227,3.0767,2.9372,2.75,2.5632,2.3915,2.1356,1.8413,1.6027,1.4422,1.2566,1.1589,1.085,1.0375,0.989,0.9394,0.9143,0.8953,0.8054,0.7847,0.7222,0.6812,0.661,0.5934,0.5018,0.4309,0.3353,0.2391,0.0,0.0,0.0,0.0,0.0,0.0,0.0,0.0,0.0,0.0,0.0,0.0,0.0,0.0,0.0,0.0,0.0,3.4901,3.5452,3.5452,3.5452,3.5452,3.5472,3.5649,3.5737,3.5497,3.5523,3.5737,3.5625,3.5644,3.5756,3.6018,3.6149,3.6319,3.6698,3.6433,3.5383,3.6319,3.7012,3.7477,3.8638,3.9332,3.9473,4.0217,4.0356,4.0373,4.0944,4.1233,4.1312,4.1489,4.1944,4.261,4.2669,4.3066,4.3684,4.3174,4.2854,4.2503,4.1745,4.0692,3.9756,3.8823,3.7353,3.5581,3.2882,3.064,2.8948,2.7502,2.5549,2.3537,2.3401,2.3421,2.276,2.2904,2.3256,2.3744,2.4527,2.535,2.6214,2.7301,2.804,2.8669,2.892,2.892,2.9161,2.9161,2.9161,2.9161,2.8688,2.698,2.3857,2.2823,2.1704,1.9206,1.675,1.4156,1.2107,1.0286,0.9116,0.8863,0.8394,0.7927,0.7431,0.7423,0.7222,0.6575,0.636,0.5943,0.51,0.4881,0.4668,0.3756,0.2826,0.2118,0.1174,0.0,0.0,0.0,0.0,0.0,0.0,0.0,0.0,0.0,0.0,0.0,0.0,0.0,0.0,0.0,0.0,0.0,3.1722,3.1815,3.1703,3.187,3.1907,3.1926,3.2241,3.2891,3.2818,3.3113,3.3569,3.3697,3.3679,3.3789,3.3904,3.4,3.3927,3.3369,3.2984,3.3047,3.3941,3.4378,3.4719,3.6148,3.6921,3.6979,3.7791,3.8018,3.7793,3.8471,3.8909,3.9062,3.9633,3.9864,4.0129,4.0224,4.0452,4.1022,4.09,4.0822,4.1244,4.0362,3.9251,3.8095,3.6579,3.4559,3.1686,3.0411,2.8701,2.6497,2.5253,2.3455,2.1297,2.0521,2.03,2.0399,2.0555,2.0752,2.0831,2.1781,2.2376,2.2894,2.3721,2.4756,2.5507,2.5596,2.5855,2.6357,2.6608,2.6608,2.6608,2.6284,2.4485,2.1443,2.0291,1.922,1.7106,1.5494,1.3451,1.0021,0.7967,0.6809,0.6286,0.603,0.5559,0.5507,0.5269,0.5291,0.5124,0.5136,0.4724,0.4102,0.3666,0.3216,0.2308,0.139,0.0693,0.0,0.0,0.0,0.0,0.0,0.0,0.0,0.0,0.0,0.0,0.0,0.0,0.0,0.0,0.0,0.0,0.0,0.0,2.9592,2.9907,2.9799,2.9691,2.9674,2.9691,2.983,3.0039,2.9836,3.012,3.0571,3.0673,3.1098,3.168,3.1867,3.1321,2.9941,2.9813,3.0316,3.1442,3.1732,3.2274,3.2984,3.3739,3.4272,3.4634,3.4857,3.5128,3.5262,3.6047,3.6431,3.6504,3.7253,3.7486,3.7595,3.8032,3.8377,3.8596,3.8359,3.8192,3.8321,3.7701,3.697,3.5762,3.3549,3.1382,2.9627,2.7575,2.5704,2.4168,2.2367,2.0568,1.8834,1.7589,1.6902,1.6594,1.689,1.7128,1.7332,1.8466,1.9347,1.9454,2.0637,2.1656,2.2211,2.2266,2.2623,2.3256,2.3555,2.3789,2.3707,2.218,2.0276,1.8367,1.7822,1.657,1.417,1.2799,1.0958,0.8663,0.6436,0.5311,0.4842,0.4397,0.3947,0.3493,0.3489,0.3274,0.3071,0.2857,0.2653,0.2469,0.2478,0.2036,0.1368,0.0909,0.0226,0.0,0.0,0.0,0.0,0.0,0.0,0.0,0.0,0.0,0.0,0.0,0.0,0.0,0.0,0.0,0.0,0.0,0.0,2.6723,2.6884,2.6619,2.6478,2.6478,2.6494,2.6638,2.6877,2.664,2.6907,2.7473,2.7552,2.7921,2.8634,2.7927,2.6871,2.5871,2.6375,2.7265,2.838,2.9161,2.9818,3.0646,3.1323,3.185,3.2156,3.2291,3.2418,3.2941,3.3675,3.4041,3.4181,3.4827,3.5193,3.5281,3.5682,3.6066,3.6158,3.6192,3.6177,3.6212,3.5975,3.5092,3.3771,3.1434,2.9308,2.784,2.5341,2.3298,2.1379,1.9489,1.75,1.5815,1.4342,1.3614,1.3062,1.3373,1.3611,1.3764,1.4837,1.5449,1.5768,1.6828,1.7687,1.8328,1.844,1.9038,1.9936,2.0204,1.9922,1.9356,1.7653,1.6037,1.4905,1.4622,1.3833,1.1968,1.0388,0.9031,0.7422,0.5447,0.3707,0.3493,0.3053,0.2616,0.2398,0.218,0.218,0.1744,0.1744,0.1751,0.1546,0.1329,0.1334,0.0675,0.0223,0.0,0.0,0.0,0.0,0.0,0.0,0.0,0.0,0.0,0.0,0.0,0.0,0.0,0.0,0.0,0.0,0.0,0.0,0.0,2.3018,2.2713,2.24,2.2335,2.2172,2.2307,2.2633,2.331,2.331,2.3808,2.4365,2.4408,2.451,2.4206,2.2285,2.162,2.2298,2.3028,2.3745,2.4594,2.599,2.7049,2.7528,2.8744,2.9475,2.9839,3.0058,3.0261,3.0586,3.1389,3.1722,3.1772,3.2454,3.2803,3.282,3.292,3.3219,3.3987,3.4205,3.4524,3.4884,3.4794,3.382,3.189,3.0203,2.8233,2.6006,2.3754,2.1101,1.799,1.646,1.4375,1.1786,1.0831,1.0242,0.9643,0.9754,0.9948,0.9987,1.0561,1.1154,1.1527,1.2004,1.2941,1.4154,1.4499,1.5096,1.6377,1.6475,1.5686,1.3397,1.279,1.2248,1.1561,1.1424,1.0702,0.9588,0.8297,0.7185,0.588,0.436,0.3053,0.1962,0.1744,0.1526,0.1526,0.1744,0.1526,0.1526,0.1526,0.1308,0.0874,0.0655,0.0654,0.0,0.0,0.0,0.0,0.0,0.0,0.0,0.0,0.0,0.0,0.0,0.0,0.0,0.0,0.0,0.0,0.0,0.0,0.0,0.0,-0.109,2.0342,2.0109,1.9973,1.985,1.9591,1.9468,1.9678,1.9827,1.9827,2.0265,2.0895,2.0908,1.9628,1.7532,1.7314,1.7878,1.8963,1.9972,2.0941,2.2032,2.2975,2.3736,2.4737,2.6001,2.6735,2.7235,2.7767,2.815,2.832,2.852,2.8581,2.883,2.9674,3.0001,3.0194,3.1006,3.1487,3.1978,3.2143,3.2633,3.3151,3.2539,3.1661,3.0489,2.8871,2.6844,2.4421,2.158,1.8724,1.5852,1.3548,1.1224,0.8733,0.7547,0.6472,0.5735,0.5306,0.5228,0.5298,0.6243,0.6965,0.6994,0.7879,0.9028,0.9799,1.0081,1.0834,1.2076,1.0954,0.9698,0.8815,0.9446,0.9421,0.8977,0.8729,0.8272,0.7185,0.632,0.5449,0.436,0.3489,0.2398,0.1308,0.0654,0.0436,0.0436,0.0436,0.0436,0.0436,0.0436,0.0436,0.0218,0.0218,0.0,-0.0436,-0.0436,0.0,0.0,0.0,0.0,0.0,0.0,0.0,0.0,0.0,0.0,0.0,0.0,0.0,0.0,0.0,0.0,-0.0654,-0.109,-0.1743,1.6951,1.6711,1.6461,1.62,1.6085,1.5949,1.6075,1.5949,1.6085,1.6365,1.6602,1.5285,1.3733,1.2026,1.2881,1.4027,1.5065,1.6226,1.7398,1.861,1.9616,2.0646,2.163,2.2949,2.3904,2.4364,2.4957,2.5405,2.5881,2.5938,2.6067,2.6494,2.7111,2.7443,2.7631,2.8434,2.9233,2.9918,3.0376,3.0711,3.1189,3.0742,3.0235,2.9614,2.8137,2.6113,2.3446,2.0472,1.7302,1.4103,1.1303,0.8471,0.5819,0.402,0.272,0.1372,0.1,0.0815,0.0829,0.1698,0.2151,0.2366,0.3247,0.4367,0.5295,0.5743,0.5758,0.5794,0.484,0.435,0.457,0.5441,0.6096,0.5878,0.5878,0.588,0.5012,0.4576,0.3925,0.3271,0.2398,0.1526,0.0654,0.0,-0.0436,-0.0654,-0.0654,-0.0654,-0.0654,-0.0654,-0.0654,-0.0654,-0.0654,-0.0872,-0.109,-0.0872,0.0,0.0,-0.0654,-0.0654,0.0,0.0,-0.0654,0.0,0.0,0.0,-0.0654,-0.0654,-0.0654,-0.0872,-0.109,-0.109,-0.109,-0.1735,-0.3023,1.2766,1.2647,1.2131,1.1876,1.1876,1.1876,1.1868,1.1876,1.2146,1.2146,1.1111,0.8414,0.7522,0.7914,0.8956,0.9998,1.1032,1.2042,1.3332,1.4667,1.6287,1.7511,1.8464,1.9722,2.0771,2.1449,2.1658,2.2246,2.3206,2.3219,2.3634,2.442,2.4682,2.4865,2.5374,2.5828,2.651,2.7605,2.8718,2.9006,2.8809,2.9257,2.9419,2.9105,2.7644,2.5529,2.3053,1.9711,1.6188,1.2616,0.9447,0.6139,0.2949,0.094,-0.0957,-0.234,-0.3127,-0.355,-0.3622,-0.3114,-0.275,-0.2118,-0.1718,-0.0651,0.0869,0.1301,0.0433,-0.1086,-0.1087,0.0,0.0435,0.1524,0.2179,0.2397,0.2833,0.3053,0.3053,0.2616,0.218,0.218,0.1308,0.0436,-0.0218,-0.0654,-0.109,-0.1526,-0.1526,-0.1526,-0.1526,-0.1526,-0.1526,-0.1962,-0.1962,-0.1962,-0.1962,-0.1962,-0.1962,-0.1962,-0.1962,-0.1962,-0.1962,-0.1962,-0.1744,-0.1744,-0.1744,-0.1744,-0.1744,-0.1744,-0.1744,-0.1526,-0.1526,-0.1744,-0.1958,-0.28,-0.4256,0.8141,0.7879,0.7627,0.7627,0.7627,0.7627,0.7627,0.7627,0.7884,0.5945,0.2716,0.2461,0.2982,0.3893,0.4933,0.5976,0.7144,0.8687,0.9979,1.1139,1.276,1.4092,1.5152,1.6578,1.7583,1.8042,1.8781,1.9421,1.9659,1.9818,2.0012,2.0563,2.1486,2.2464,2.3319,2.4049,2.4973,2.6097,2.6472,2.7013,2.7815,2.8269,2.8345,2.78,2.6947,2.5094,2.2083,1.9416,1.6087,1.1742,0.8622,0.5306,0.1807,-0.0369,-0.2445,-0.4401,-0.5753,-0.6806,-0.7421,-0.7384,-0.7056,-0.6443,-0.6123,-0.5116,-0.3838,-0.5059,-0.6302,-0.5957,-0.4694,-0.3433,-0.2601,-0.1739,-0.1089,-0.0218,0.0,0.0436,0.0654,0.0654,0.0436,0.0,-0.0218,-0.0654,-0.109,-0.1526,-0.1744,-0.1744,-0.1744,-0.1744,-0.1744,-0.1744,-0.2616,-0.3707,-0.3925,-0.3707,-0.3707,-0.3489,-0.3271,-0.3053,-0.3053,-0.3271,-0.3271,-0.3053,-0.3052,-0.2616,-0.2398,-0.2398,-0.1962,-0.1744,-0.1962,-0.1962,-0.1962,-0.218,-0.305,-0.3875,-0.5303,0.2192,0.2192,0.1805,0.1805,0.1934,0.1934,0.2066,0.2066,-0.0128,-0.2569,-0.4395,-0.336,-0.207,-0.0648,0.0519,0.1948,0.3384,0.4936,0.6493,0.7919,0.9471,1.089,1.1929,1.3381,1.4269,1.4556,1.5289,1.5894,1.6344,1.6623,1.6991,1.7612,1.8538,1.9631,2.0883,2.2002,2.3117,2.4513,2.4887,2.5542,2.6721,2.769,2.7996,2.7722,2.6951,2.5366,2.271,2.0019,1.6628,1.2357,0.8909,0.5532,0.1946,-0.1084,-0.3871,-0.6194,-0.8077,-0.97,-1.0952,-1.1264,-1.1202,-1.0784,-1.0354,-0.9801,-0.9925,-1.1138,-1.1178,-1.0032,-0.8375,-0.7152,-0.6367,-0.5136,-0.4089,-0.3445,-0.282,-0.2178,-0.196,-0.1743,-0.1744,-0.1962,-0.1962,-0.218,-0.2834,-0.2834,-0.3053,-0.3271,-0.3271,-0.3271,-0.3271,-0.3705,-0.4575,-0.5665,-0.5665,-0.5449,-0.5454,-0.5234,-0.5232,-0.5014,-0.5014,-0.5014,-0.5014,-0.5014,-0.4796,-0.4359,-0.4139,-0.3923,-0.3489,-0.3271,-0.3271,-0.3271,-0.3271,-0.3489,-0.4141,-0.4982,-0.6179,-0.4369,-0.4238,-0.4889,-0.4889,-0.4629,-0.4504,-0.4249,-0.4381,-0.9719,-1.1406,-1.0304,-0.8765,-0.7232,-0.5566,-0.4018,-0.2207,-0.026,0.1172,0.2863,0.4553,0.6372,0.7676,0.8838,1.0126,1.0904,1.116,1.1538,1.2202,1.299,1.327,1.3825,1.4662,1.5586,1.6569,1.7936,1.96,2.1309,2.2815,2.3415,2.4394,2.5818,2.714,2.7836,2.7718,2.7158,2.5787,2.4008,2.1088,1.7777,1.4227,1.0571,0.6888,0.3266,-0.0702,-0.4306,-0.713,-0.9728,-1.2046,-1.3963,-1.473,-1.4948,-1.4867,-1.4196,-1.464,-1.6349,-1.5972,-1.5135,-1.3752,-1.2125,-1.0906,-1.0123,-0.8587,-0.74,-0.6986,-0.5784,-0.4968,-0.4745,-0.4317,-0.4103,-0.4102,-0.3902,-0.4125,-0.4557,-0.457,-0.4798,-0.5236,-0.5234,-0.5454,-0.5669,-0.6538,-0.7403,-0.7397,-0.74,-0.7411,-0.7634,-0.7414,-0.7408,-0.7405,-0.7405,-0.7405,-0.7408,-0.7405,-0.7188,-0.6533,-0.6315,-0.61,-0.5669,-0.5454,-0.5452,-0.5452,-0.5452,-0.5452,-0.5669,-0.6294,-0.729,-1.1922,-1.2062,-1.207,-1.196,-1.1827,-1.1354,-1.1102,-1.1354,-1.6724,0.0,0.0,-1.3449,-1.1704,-1.0049,-0.8156,-0.6231,-0.4423,-0.2343,-0.0521,0.1041,0.2993,0.4686,0.5983,0.6765,0.7412,0.8053,0.8048,0.8586,0.9278,0.9402,0.9951,1.0933,1.2228,1.3316,1.4294,1.7281,1.9485,2.063,2.2213,2.3951,2.5787,2.6659,2.6981,2.6966,2.6599,2.5693,2.4356,2.2647,2.0357,1.7814,1.4566,1.0994,0.702,0.2509,-0.2053,-0.6646,-1.0497,-1.36,-1.6066,-1.7372,-1.8094,-1.8493,-1.8143,-1.843,-1.9318,-1.8269,-1.7024,-1.608,-1.5308,-1.4196,-1.2564,-1.1997,-1.1192,-0.9333,-0.8944,-0.8338,-0.7509,-0.689,-0.6486,-0.6486,-0.6352,-0.6191,-0.6404,-0.6478,-0.6538,-0.6756,-0.6753,-0.6756,-0.6973,-0.8492,-0.9787,-0.9787,-1.0004,-1.0011,-0.9802,-1.0019,-0.9794,-1.0008,-0.9787,-0.9791,-0.9791,-0.9791,-0.9574,-0.9147,-0.8492,-0.8054,-0.7403,-0.697,-0.6756,-0.6756,-0.6756,-0.6756,-0.74,-0.8831,-0.9956,-1.9453,-1.9359,-1.9384,-1.9168,0.0,-1.8126,-1.9422,-2.1888,-2.3951,-2.3097,-2.027,-1.8202,-1.6107,-1.4005,-1.2138,-1.0101,-0.7914,-0.5717,-0.3901,-0.221,-0.039,0.1042,0.2345,0.3124,0.3773,0.429,0.4553,0.4939,0.5458,0.5846,0.6372,0.7283,0.8945,1.0195,1.1263,1.4044,1.6788,1.9522,2.1295,2.3193,2.5293,2.6355,2.7033,2.7568,2.742,0.0,0.0,0.0,0.0,0.0,0.0,0.0,0.0,0.0,0.0,-0.4774,-0.8656,-1.2391,-1.5942,-1.8248,-1.9577,-1.9971,-2.0525,-2.0791,-2.0763,-1.998,-1.916,-1.7833,-1.7237,-1.6439,-1.5026,-1.4286,-1.3631,-1.2615,-1.1897,-1.1138,-1.0522,-0.9707,-0.9097,-0.8898,-0.8751,-0.8587,-0.8382,-0.8514,-0.86,-0.8607,-0.8663,-0.8706,-0.8926,-1.087,-1.2173,-1.2389,-1.2389,-1.2606,-1.262,-1.2827,-1.3028,-1.2817,-1.2601,-1.2606,-1.2389,-1.2173,-1.1961,-1.1528,-1.1095,-1.0658,-0.9787,-0.9353,-0.9147,-0.8933,-0.8709,-0.9123,-1.0532,-1.1513,-1.2203,-2.6884,-2.6413,-2.6595,-2.6173,-2.5384,-2.5598,-2.7871,-3.1356,-3.0156,-2.7876,-2.4805,-2.2421,-2.0007,-1.7551,-1.5447,-1.3299,-1.0869,-0.8822,-0.7015,-0.5461,-0.3773,-0.2475,-0.1435,-0.0521,0.013,0.052,0.0781,0.1171,0.1432,0.2214,0.2997,0.3911,0.5728,0.7407,0.8838,0.0,0.0,0.0,2.0477,2.2699,2.5026,2.6276,2.7421,2.8319,2.8397,0.0,2.6558,2.4468,2.18,1.8759,1.5521,0.0,0.0,0.0,0.0,0.0,0.0,0.0,0.0,0.0,0.0,0.0,-2.1032,-2.1293,-2.0792,-2.078,-2.0193,-1.8916,-1.8461,-1.7891,-1.6976,-1.6294,-1.5796,-1.5411,-1.4402,-1.3749,-1.3598,-1.2594,-1.1815,-1.1438,-1.1275,-1.0893,-1.0497,-1.0653,-1.0771,-1.0783,-1.0927,-1.123,-1.1625,-1.3316,-1.4411,-1.463,-1.5045,-1.5317,-1.5626,-1.5835,-1.6038,-1.5614,-1.5614,-1.5405,-1.5195,-1.498,-1.4554,-1.4123,-1.3912,-1.3259,-1.2375,-1.2169,-1.1961,-1.1325,-1.1312,-1.1893,-1.4017,-1.4315,-1.4141,-3.3919,-3.3753,-3.3225,-3.2715,-3.2349,-3.4708,-3.5365,-3.4847,-3.3482,-3.1516,-2.9275,-2.5223,-2.2251,-1.9825,-1.7585,-1.5486,-1.3349,-1.1289,-0.974,-0.8317,-0.6894,-0.5601,-0.4686,-0.4161,-0.3769,-0.3379,-0.3249,-0.2992,-0.2345,-0.1694,-0.0521,0.1172,0.3125,0.5212,0.7162,0.8838,1.1395,1.4953,1.9812,2.3544,2.5975,2.6749,2.7605,2.8536,2.851,2.8277,2.76,2.5589,2.3424,2.1014,1.7661,1.4236,1.0816,0.7435,0.3053,0.0,-0.5666,0.0,0.0,0.0,0.0,0.0,0.0,0.0,0.0,-1.8745,-1.9073,-1.9054,-1.8975,-1.8638,-1.8101,-1.8165,-1.7847,-1.6747,-1.6585,-1.6531,-1.6044,-1.5151,-1.4675,-1.4895,-1.3954,-1.3298,-1.3109,-1.2911,-1.2644,-1.2654,-1.3025,-1.3715,-1.5203,-1.5797,-1.6228,-1.6587,-1.7119,-1.7774,-1.827,-1.8582,-1.8582,-1.8603,-1.8596,-1.8403,-1.8403,-1.7975,-1.7768,-1.7553,-1.6701,-1.6062,-1.5841,-1.5399,-1.4753,-1.4328,-1.43,-1.5062,-1.7119,-1.7345,-1.6958,-3.8563,-3.8169,-3.7724,-3.7521,-3.7617,-3.8063,-3.7404,-3.5836,-3.4297,-3.2458,-3.0124,-2.713,-2.3813,-2.0316,-1.8241,-1.6388,-1.4756,-1.2712,-1.1303,-1.0512,-0.9366,-0.8457,-0.779,-0.779,-0.7532,-0.7015,-0.7269,-0.6877,-0.5976,-0.5198,-0.3773,-0.1954,0.0391,0.2733,0.4809,0.7537,1.0748,1.4312,1.8454,2.24,2.6296,2.7547,2.8798,3.0049,2.9611,2.8754,2.7585,2.4562,2.1295,1.7976,1.4064,1.0744,0.7965,0.5706,0.2666,0.0,0.0,0.0,0.0,0.0,0.0,0.0,0.0,0.0,0.0,0.0,-1.7097,-1.7647,-1.7713,-1.783,-1.765,-1.8191,-1.8434,-1.8086,-1.843,-1.8604,-1.8221,-1.742,-1.6834,-1.6857,-1.5831,-1.5228,-1.5032,-1.4866,-1.4628,-1.4628,-1.5736,-1.6774,-1.7671,-1.8204,-1.872,-1.9321,-1.9594,-2.0348,-2.1375,-2.1829,-2.1898,-2.1451,-2.1299,-2.1373,-2.1154,-2.0768,-2.0562,-2.0555,-1.9922,-1.9266,-1.9016,-1.8389,-1.7768,-1.7506,-1.8123,-1.9241,-1.9531,-1.9418,-1.9134,-4.1579,-4.0978,-3.9962,-3.9457,-3.937,-3.8414,-3.6876,-3.5035,-3.344,-3.1476,-2.9238,-2.6871,-2.3761,-2.0205,-1.794,-1.6189,-1.4839,-1.3314,-1.2345,-1.1965,-1.141,-1.0918,-1.0634,-1.1025,-1.0904,-1.0519,-1.0769,-1.037,-0.9471,-0.8435,-0.6886,-0.4689,-0.1939,0.0644,0.3088,0.6855,1.0734,1.4565,1.7574,2.1388,2.6129,2.8629,3.0568,3.1931,3.1256,2.9901,2.78,2.351,1.891,1.4001,0.8898,0.5297,0.3193,0.2122,0.0,0.0,0.0,0.0,0.0,0.0,0.0,0.0,0.0,-1.1406,-1.2648,0.0,-1.4766,0.0,-1.6086,-1.6541,-1.7114,-1.7966,0.0,0.0,-1.9446,-1.9829,-1.992,-1.9274,-1.8786,-1.882,-1.803,-1.7547,-1.7244,-1.6925,-1.6898,-1.7212,-1.8633,-1.9869,-1.9869,-2.0709,-2.1467,-2.2046,-2.2515,-2.3394,-2.4418,-2.5074,-2.5276,-2.4562,-2.4416,-2.4325,-2.3825,-2.3453,-2.3253,-2.3253,-2.2834,-2.2188,-2.1685,-2.1324,-2.092,-2.1081,-2.2467,-2.33,-2.2205,-2.1865,-2.1878,-4.2822,-4.2331,-3.8604,-3.6542,-3.5667,-3.5552,-3.411,-3.1808,-3.0171,-2.8505,-2.6525,-2.3226,-2.1029,-1.966,-1.6572,0.0,-1.3265,-1.3053,-1.2605,-1.1998,-1.2575,-1.2839,-1.2839,-1.3477,-1.374,-1.3604,-1.3621,-1.3349,-1.2576,-1.1538,-0.9728,-0.6881,-0.3675,-0.0501,0.2881,0.704,1.1239,1.5166,1.7732,2.1051,2.5287,3.0009,3.2928,3.382,3.3854,3.2193,2.8728,2.3395,1.7331,1.0598,0.3176,-0.176,-0.3548,0.0,0.0,0.0,0.0,0.0,0.0,0.0,0.0,0.0,0.0,0.0,0.0,0.0,0.0,-1.2412,-1.401,0.0,-1.6884,-1.8081,0.0,0.0,0.0,-2.0564,-2.0472,-2.0734,-2.0818,-2.0859,0.0,0.0,-1.9567,-1.9286,-1.9584,-2.0562,-2.1575,-2.2195,-2.2376,-2.2947,-2.3907,-2.4854,-2.5774,-2.6814,-2.7719,-2.8279,-2.837,-2.7859,-2.7783,-2.7618,-2.7086,-2.6277,-2.5656,-2.5697,-2.4664,-2.408,-2.4051,-2.4032,-2.4453,-2.6204,-2.6601,-2.6267,-2.5549,-2.5423,-2.5196,-3.6288,-3.2074,-3.0664,-2.985,-2.9393,-2.8911,-2.7503,-2.5332,-2.3564,-2.1324,-1.8806,-1.612,-1.4235,-1.2879,-1.0948,0.0,0.0,0.0,-1.0768,-1.103,-1.189,-1.256,-1.2932,-1.3898,-1.4268,-1.4138,-1.4259,-1.3907,-1.2811,-1.1582,-0.9612,-0.7026,0.0,-0.0244,0.3856,0.7787,1.1812,1.5949,1.879,2.2087,2.5844,2.9765,3.3307,3.62,3.5545,3.3412,3.0008,2.2744,1.4051,0.4054,-0.1748,-0.6515,0.0,0.0,0.0,0.0,0.0,0.0,0.0,0.0,0.0,0.0,0.0,-0.6277,-0.7731,0.0,0.0,0.0,-1.1546,-1.28,-1.4442,-1.5854,0.0,0.0,0.0,0.0,0.0,0.0,0.0,-2.1775,-2.1526,-2.0996,-2.0976,-2.1436,-2.1968,-2.2408,-2.293,-2.3396,-2.3761,0.0,-2.5895,-2.6808,-2.8068,-2.9107,-2.9674,-3.0489,-3.1024,-3.0865,-3.0845,-3.0817,-2.9984,-2.9468,-2.9075,-2.8704,-2.7937,-2.7156,-2.7156,-2.7323,-2.7708,-2.813,-2.7833,-2.7524,-2.6954,-2.6972,-2.6772,-2.5072,0.0,0.0,0.0,0.0,-2.0357,-1.8902,-1.6954,-1.4968,-1.2814,-1.0348,-0.8219,0.0,0.0,0.0,0.0,0.0,0.0,-0.8017,-0.9149,-1.0424,-1.1531,-1.2483,-1.3871,-1.4334,-1.4103,-1.4586,-1.4112,-1.2923,-0.9971,-0.7357,-0.5253,0.0,0.0,0.0,0.0,1.253,1.6612,1.9719,2.3127,2.6829,3.0287,3.3952,3.7845,3.7384,3.5366,3.1584,2.1639,1.1293,0.0965,-0.5817,0.0,0.0,0.0,0.0,0.0,0.0,0.0,0.0,0.0,0.0,0.0,0.0,0.0,0.0,0.0,0.0,0.0,0.0,0.0,-1.2234,-1.4027,-1.5572,0.0,0.0,0.0,0.0,0.0,0.0,0.0,0.0,0.0,-2.2126,-2.3151,-2.3849,0.0,0.0,-2.5351,-2.5692,-2.7088,-2.8474,-2.9356,-3.0726,0.0,-3.2115,-3.3008,-3.3648,-3.3822,-3.3674,-3.3314,-3.2109,-3.1599,-3.1235,-3.0871,-3.0151,-2.9772,-3.0417,-3.064,-3.0305,-2.9939,-2.9619,-2.9208,-2.8673,-2.866,-2.8584,0.0,0.0,0.0,0.0,0.0,0.0,0.0,0.0,-0.4662,-0.3262,0.0,0.0107,0.0,0.0,0.0,0.0,-0.1025,-0.2971,0.0,0.0,-0.8184,-0.9984,-1.1741,-1.3457,-1.4179,-1.4083,-1.4651,-1.441,-1.2922,-0.6684,0.0,0.0,0.0,0.0,0.0,0.0,1.3102,1.6836,2.0284,2.4156,2.8201,3.2169,3.5569,3.8229,3.9942,3.8446,3.3253,2.0199,0.979,0.3385,-0.9132,0.0,0.0,0.0,0.0,0.0,0.0,0.0,0.0,0.0,0.0,0.0,0.0,0.0,0.0,0.0,0.0,0.0,0.0,0.0,0.0,-1.3103,0.0,0.0,0.0,0.0,0.0,0.0,0.0,0.0,0.0,-2.3332,-2.2772,-2.41,-2.5217,-2.5241,0.0,0.0,0.0,0.0,-3.2272,-3.2555,-3.4282,-3.5461,-3.5796,-3.6347,-3.6697,-3.6714,0.0,0.0,-3.3816,-3.2431,-3.1612,-3.157,-3.08,-3.1023,-3.3415,-3.3051,-3.2511,-3.2072,-3.2015,-3.1758,-3.1085,-3.119,-3.1443,0.0,0.0,0.0,0.0,0.0,0.0,0.0,0.0,0.0,0.4857,0.6477,0.7735,0.0,0.0,0.0,0.0,0.0,0.0,0.0,0.0,-0.436,-0.6453,-0.7893,-0.9495,-1.0119,0.0,-0.9896,-0.83,0.0,0.0,0.0,0.0,0.0,0.0,0.0,0.0,1.3745,1.6714,1.9919,2.3444,2.7204,3.1213,3.4761,3.7691,4.0416,4.0274,3.6778,2.5855,1.4969,0.0,0.0,0.0,0.0,0.0,0.0,0.0,0.0,0.0,0.0,0.0,0.0,0.0,0.0,0.0,0.0,0.0,0.0,0.0,0.0,0.0,0.0,0.0,-1.2832,0.0,0.0,0.0,0.0,0.0,0.0,0.0,0.0,0.0,-2.3151,-2.3559,-2.4318,-2.5197,-2.6554,-2.7922,-2.8706,0.0,0.0,0.0,0.0,0.0,0.0,0.0,-3.9014,-3.9032,-3.923,-3.9093,-3.8454,-3.6632,-3.5293,-3.4666,0.0,0.0,-3.3159,-3.2722,-3.2231,-3.2181,-3.19,-3.1575,-3.1418,-3.1701,-3.1858,0.0,0.0,0.0,0.0,0.0,0.0,0.0,0.0,0.0,1.3021,1.4333,0.0,0.0,0.0,0.0,0.0,0.0,0.0,0.0,0.0,0.0,0.0,-0.3607,-0.5173,0.0,0.0,0.0,0.0,0.0,0.0,0.0,0.0,0.0,0.0,0.0,0.0,1.3938,1.6536,1.9731,2.3226,2.6875,3.1193,3.5008,3.7976,4.1476,4.2591,4.0988,0.0,0.0,0.0,0.0,0.0,0.0,0.0,0.0,0.0,0.0,0.0,0.0,0.0,0.0,0.0,0.0,0.0,0.0,0.0,0.0,0.0,0.0,0.0,0.0,0.0,-1.1177,0.0,0.0,0.0,0.0,0.0,0.0,0.0,0.0,0.0,0.0,-2.2723,-2.3839,-2.5528,-2.7008,-2.8539,-2.9958,-3.192,-3.3389,0.0,0.0,0.0,0.0,0.0,0.0,0.0,0.0,0.0,0.0,0.0,0.0,0.0,0.0,-3.3191,-3.261,-3.2156,-3.1755,-3.1726,0.0,0.0,0.0,0.0,0.0,0.0,0.0,0.0,0.0,0.0,0.0,0.0,0.0,0.0,0.0,2.151,0.0,0.0,1.9275,0.0,0.0,0.0,0.0,0.0,0.0,0.0,0.0,0.0,0.0,0.0,0.0,0.0,0.0,0.0,0.0,0.0,0.0,0.0,0.0,0.0,0.0,1.3829,1.6252,1.9647,2.3341,2.7478,3.2207,3.612,3.9191,4.3026,4.5322,4.5806,0.0,0.0,0.0,0.0,0.0,0.0,0.0,0.0,0.0,0.0,0.0,0.0,0.0,0.0,0.0,0.0,0.0,0.0,0.0,0.0,0.0,0.0,0.0,0.0,0.0,0.0,-1.1856,-1.4333,-1.621,0.0,0.0,0.0,0.0,0.0,0.0,0.0,0.0,0.0,-2.59,-2.7942,-3.0197,-3.2328,-3.4754,-3.6557,-3.7019,-3.898,-4.0399,-4.0358,-4.1082,-4.1667,0.0,0.0,0.0,0.0,0.0,0.0,0.0,0.0,0.0,0.0,0.0,0.0,0.0,0.0,0.0,0.0,0.0,0.0,0.0,0.0,0.0,0.0,0.0,0.0,0.0,0.0,0.0,0.0,0.0,0.0,0.0,0.0,0.0,0.0,0.0,0.0,0.0,0.0,0.0,0.0,0.0,0.0,0.0,0.0,0.0,0.0,0.0,0.0,0.0,0.0,0.0,0.0,0.0,0.0,1.3668,1.544,1.839,2.1937,2.584,3.0323,3.4812,3.8989,4.2646,4.4864,0.0,0.0,0.0,0.0,0.0,0.0,0.0,0.0,0.0,0.0,0.0,0.0,0.0,0.0,0.0,0.0,0.0,0.0,0.0,0.0,0.0,0.0,0.0,0.0,0.0,0.0,0.0,0.0,-1.1949,-1.3887,-1.5561,0.0,0.0,0.0,0.0,0.0,0.0,0.0,0.0,0.0,0.0,-3.0105,-3.2367,-3.4965,-3.7347,-3.853,-4.0064,-4.1338,-4.1909,-4.2285,-4.2456,-4.216,0.0,0.0,0.0,0.0,0.0,0.0,0.0,0.0,0.0,0.0,0.0,0.0,0.0,0.0,0.0,0.0,0.0,0.0,0.0,0.0,0.0,0.0,0.0,0.0,0.0,0.0,0.0,0.0,0.0,0.0,0.0,0.0,0.0,0.0,0.0,0.0,0.0,0.0,0.0,0.0,0.0,0.0,0.0,0.0,0.0,0.0,0.0,0.0,0.0,0.0,0.0,0.0,0.0,1.3138,1.4297,1.7486,2.102,2.4771,2.9366,3.411,3.9003,4.1887,4.4127,0.0,0.0,0.0,0.0,0.0,0.0,0.0,0.0,0.0,0.0,0.0,0.0,0.0,0.0,0.0,0.0,0.0,0.0,0.0,0.0,0.0,0.0,0.0,0.0,0.0,0.0,0.0,0.0,-1.0206,-1.1692,-1.3485,0.0,0.0,0.0,0.0,0.0,0.0,0.0,0.0,0.0,0.0,-3.0039,-3.2912,-3.5466,0.0,0.0,-4.0593,-4.1676,-4.2073,-4.2445,-4.2445,-4.1956,-4.1017,0.0,0.0,0.0,0.0,0.0,0.0,0.0,0.0,0.0,0.0,0.0,0.0,0.0,0.0,0.0,0.0,0.0,0.0,0.0,0.0,0.0,0.0,0.0,0.0,0.0,0.0,0.0,0.0,0.0,0.0,0.0,0.0,0.0,0.0,0.0,0.0,0.0,0.0,0.0,0.0,0.0,0.0,0.0,0.0,0.0,0.0,0.0,0.0,0.0,0.0,0.0,0.0,1.2301,1.3248,1.666,2.0271,2.4191,2.8996,3.3998,3.8915,4.1112,4.3262,0.0,0.0,0.0,0.0,0.0,0.0,0.0,0.0,0.0,0.0,0.0,0.0,0.0,0.0,0.0,0.0,0.0,0.0,0.0,0.0,0.0,0.0,0.0,0.0,0.0,0.0,0.0,0.0,0.0,0.0,0.0,0.0,0.0,0.0,0.0,0.0,0.0,0.0,0.0,0.0,0.0,-3.0149,-3.3823,-3.6219,-3.8001,0.0,-4.0659,-4.1671,-4.1779,-4.1923,-4.1849,-4.1283,0.0,0.0,0.0,0.0,0.0,0.0,0.0,0.0,0.0,0.0,0.0,0.0,0.0,0.0,0.0,0.0,0.0,0.0,0.0,0.0,0.0,0.0,0.0,0.0,0.0,0.0,0.0,0.0,0.0,0.0,0.0,0.0,0.0,0.0,0.0,0.0,0.0,0.0,0.0,0.0,0.0,0.0,0.0,0.0,0.0,0.0,0.0,0.0,0.0,0.0,0.0,0.0,0.0,0.0,1.2034,1.5008,1.8534,2.2762,2.8154,3.3503,3.8877,4.129,0.0,0.0,0.0,0.0,0.0,0.0,0.0,0.0,0.0,0.0,0.0,0.0,0.0,0.0,0.0,0.0,0.0,0.0,0.0,0.0,0.0,0.0,0.0,0.0,0.0,0.0,0.0,-0.5213,0.0,0.0,0.0,0.0,0.0,0.0,0.0,0.0,0.0,0.0,0.0,0.0,0.0,0.0,-3.0467,-3.4316,-3.6987,-3.9161,0.0,0.0,-4.2699,-4.3964,-4.2858,-4.1604,0.0,0.0,0.0,0.0,0.0,0.0,0.0,0.0,0.0,0.0,0.0,0.0,0.0,0.0,0.0,0.0,0.0,0.0,0.0,0.0,0.0,0.0,0.0,0.0,0.0,0.0,0.0,0.0,0.0,0.0,0.0,0.0,0.0,0.0,0.0,0.0,0.0,0.0,0.0,0.0,0.0,0.0,0.0,0.0,0.0,0.0,0.0,0.0,0.0,0.0,0.0,0.0,0.0,0.0,0.946,1.0146,1.26,1.5992,2.0169,2.5627,3.1152,3.6635,3.8842,4.0666,0.0,0.0,0.0,0.0,0.0,0.0,0.0,0.0,0.0,0.0,0.0,0.0,0.0,0.0,0.0,0.0,0.0,0.0,0.0,0.0,0.0,0.0,0.0,0.0,0.0,0.0,0.0,0.0,0.0,0.0,0.0,0.0,0.0,0.0,0.0,0.0,0.0,0.0,0.0,0.0,0.0,0.0,-3.3827,-3.6399,0.0,0.0,0.0,-4.0604,-4.1611,0.0,0.0,0.0,0.0,0.0,0.0,0.0,0.0,0.0,0.0,0.0,0.0,0.0,0.0,0.0,0.0,0.0,0.0,0.0,0.0,0.0,0.0,0.0,0.0,0.0,0.0,0.0,0.0,0.0,0.0,0.0,0.0,0.0,0.0,0.0,0.0,0.0,0.0,0.0,0.0,0.0,0.0,0.0,0.0,0.0,0.0,0.0,0.0,0.0,0.0,0.0,0.0,0.0,0.0,0.0,0.0,0.0,0.7721,0.9888,1.2887,1.6661,2.2171,2.7723,3.3247,3.5134,3.7321,0.0,0.0,0.0,0.0,0.0,0.0,0.0,0.0,0.0,0.0,0.0,0.0,0.0,0.0,0.0,0.0,0.0,0.0,0.0,0.0,0.0,0.0,0.0,0.0,0.0,0.0,0.0,0.0,0.0,0.0,0.0,0.0,0.0,0.0,0.0,0.0,0.0,0.0,0.0,0.0,0.0,-2.9981,-3.2498,-3.452,-3.5975,0.0,0.0,-3.6729,-3.7065,-3.6902,0.0,0.0,0.0,0.0,0.0,0.0,0.0,0.0,0.0,0.0,0.0,0.0,0.0,0.0,0.0,0.0,0.0,0.0,0.0,0.0,0.0,0.0,0.0,0.0,0.0,0.0,0.0,0.0,0.0,0.0,0.0,0.0,0.0,0.0,0.0,0.0,0.0,0.0,0.0,0.0,0.0,0.0,0.0,0.0,0.0,0.0,0.0,0.0,0.0,0.0,0.0,0.0,0.0,0.0,0.0,0.0,0.5506,0.6993,0.936,1.2707,1.842,2.4545,3.0925,3.2455,3.4871,0.0,0.0,0.0,0.0,0.0,0.0,0.0,0.0,0.0,0.0,0.0,0.0,0.0,0.0,0.0,0.0,0.0,0.0,0.0,0.0,0.0,0.0,0.0,0.0,0.0,0.0,0.0,0.0,0.0,0.0,0.0,0.0,0.0,0.0,0.0,0.0,0.0,0.0,0.0,0.0,0.0,-2.7261,-2.9208,-3.0457,0.0,0.0,0.0,0.0,-3.3183,-3.3487,0.0,0.0,0.0,0.0,0.0,0.0,0.0,0.0,0.0,0.0,0.0,0.0,0.0,0.0,0.0,0.0,0.0,0.0,0.0,0.0,0.0,0.0,0.0,0.0,0.0,0.0,0.0,0.0,0.0,0.0,0.0,0.0,0.0,0.0,0.0,0.0,0.0,0.0,0.0,0.0,0.0,0.0,0.0,0.0,0.0,0.0,0.0,0.0,0.0,0.0,0.0,0.0,0.0,0.0,0.0,0.0,0.3217,0.3646,0.4969,0.7127,1.0522,1.4789,1.9862,2.2333,2.5335,0.0,0.0,0.0,0.0,0.0,0.0,0.0,0.0,0.0,0.0,0.0,0.0,0.0,0.0,0.0,0.0,0.0,0.0,0.0,0.0,0.0,0.0,0.0,0.0,0.0,0.0,0.0,0.0,0.0,0.0,0.0,0.0,0.0,0.0,0.0,0.0,0.0,0.0,0.0,0.0,-2.1491,-2.4501,-2.5765,0.0,0.0,0.0,0.0,0.0,0.0,-2.6022,-2.4614,0.0,0.0,0.0,0.0,0.0,0.0,0.0,0.0,0.0,0.0,0.0,0.0,0.0,0.0,0.0,0.0,0.0,0.0,0.0,0.0,0.0,0.0,0.0,0.0,0.0,0.0,0.0,0.0,0.0,0.0,0.0,0.0,0.0,0.0,0.0,0.0,0.0,0.0,0.0,0.0,0.0,0.0,0.0,0.0,0.0,0.0,0.0,0.0,0.0,0.0,0.0,0.0,0.0,0.0,0.0,0.087,0.0346,0.0342,0.1007,0.1725,0.3607,0.6755,1.0137,1.329,1.5989,0.0,0.0,0.0,0.0,0.0,0.0,0.0,0.0,0.0,0.0,0.0,0.0,0.0,0.0,0.0,0.0,0.0,0.0,0.0,0.0,0.0,0.0,0.0,0.0,0.0,0.0,0.0,0.0,0.0,0.0,0.0,0.0,0.0,0.0,0.0,0.0,0.0,0.0,0.0,-1.8169,-2.0929,0.0,0.0,0.0,0.0,0.0,0.0,0.0,0.0,-1.511,0.0,0.0,0.0,0.0,0.0,0.0,0.0,0.0,0.0,0.0,0.0,0.0,0.0,0.0,0.0,0.0,0.0,0.0,0.0,0.0,0.0,0.0,0.0,0.0,0.0,0.0,0.0,0.0,0.0,0.0,0.0,0.0,0.0,0.0,0.0,0.0,0.0,0.0,0.0,0.0,0.0,0.0,0.0,0.0,0.0,0.0,0.0,0.0,0.0,0.0,0.0,0.0,0.0,0.0,0.0,0.0,-0.2422,-0.3507,-0.4358,-0.4394,-0.3411,-0.1341,0.1282,0.271,0.2938,0.0,0.0,0.0,0.0,0.0,0.0,0.0,0.0,0.0,0.0,0.0,0.0,0.0,0.0,0.0,0.0,0.0,0.0,0.0,0.0,0.0,0.0,0.0,0.0,0.0,0.0,0.0,0.0,0.0,0.0,0.0,0.0,0.0,0.0,0.0,0.0,0.0,0.0,-0.6857,-1.1487,0.0,0.0,0.0,0.0,0.0,0.0,0.0,0.0,-0.8992,0.0,0.0,0.0,0.0,0.0,0.0,0.0,0.0,0.0,0.0,0.0,0.0,0.0,0.0,0.0,0.0,0.0,0.0,0.0,0.0,0.0,0.0,0.0,0.0,0.0,0.0,0.0,0.0,0.0,0.0,0.0,0.0,0.0,0.0,0.0,0.0,0.0,0.0,0.0,0.0,0.0,0.0,0.0,0.0,0.0,0.0,0.0,0.0,0.0,0.0,0.0,0.0,0.0,0.0,0.0,0.0,0.0,0.0,-0.6999,-0.8976,-1.1162,-1.2398,-1.2422,-0.805,-0.422,0.0,0.0,0.0,0.0,0.0,0.0,0.0,0.0,0.0,0.0,0.0,0.0,0.0,0.0,0.0,0.0,0.0,0.0,0.0,0.0,0.0,0.0,0.0,0.0,0.0,0.0,0.0,0.0,0.0,0.0,0.0,0.0,0.0,0.0,0.0,0.0,0.0,0.0,0.0,0.0,0.0,0.0,0.0,0.0,0.0,0.0,0.0,0.0,0.0,0.0,0.0,0.0,0.0,0.0,0.0,0.0,0.0,0.0,0.0,0.0,0.0,0.0,0.0,0.0,0.0,0.0,0.0,0.0,0.0,0.0,0.0,0.0,0.0,0.0,0.0,0.0,0.0,0.0,0.0,0.0,0.0,0.0,0.0,0.0,0.0,0.0,0.0,0.0,0.0,0.0,0.0,0.0,0.0,0.0,0.0,0.0,0.0,0.0,0.0,0.0,0.0,0.0,0.0,0.0,0.0,0.0,0.0,0.0,-0.9626,-1.27,-1.6764,-1.9719,-2.1558,-1.455,-0.7577,0.0,0.0,0.0,0.0,0.0,0.0,0.0,0.0,0.0,0.0,0.0,0.0,0.0,0.0,0.0,0.0,0.0,0.0,0.0,0.0,0.0,0.0,0.0,0.0,0.0,0.0,0.0,0.0,0.0,0.0,0.0,0.0,0.0,0.0,0.0,0.0,0.0,0.0,0.0,0.0,0.0,0.0,0.0,0.0,0.0,0.0,0.0,0.0,0.6625,0.0,0.0,0.0,0.0,0.0,0.0,0.0,0.0,0.0,0.0,0.0,0.0,0.0,0.0,0.0,0.0,0.0,0.0,0.0,0.0,0.0,0.0,0.0,0.0,0.0,0.0,0.0,0.0,0.0,0.0,0.0,0.0,0.0,0.0,0.0,0.0,0.0,0.0,0.0,0.0,0.0,0.0,0.0,0.0,0.0,0.0,0.0,0.0,0.0,0.0,0.0,0.0,0.0,0.0,0.0,0.0,0.0,0.0,0.0,-1.078,-1.4791,-1.9014,-2.1963,-2.327,-1.4456,-0.5377,0.0,0.0,0.0,0.0,0.0,0.0,0.0,0.0,0.0,0.0,0.0,0.0,0.0,0.0,0.0,0.0,0.0,0.0,0.0,0.0,0.0,0.0,0.0,0.0,0.0,0.0,0.0,0.0,0.0,0.0,0.0,0.0,0.0,0.0,0.0,0.0,0.0,0.0,0.0,0.0,0.0,0.0,0.0,0.0,0.0,0.0,0.0,0.0,0.0,0.0,0.0,0.0,0.0,0.0,0.0,0.0,0.0,0.0,0.0,0.0,0.0,0.0,0.0,0.0,0.0,0.0,0.0,0.0,0.0,0.0,0.0,0.0,0.0,0.0,0.0,0.0,0.0,0.0,0.0,0.0,0.0,0.0,0.0,0.0,0.0,0.0,0.0,0.0,0.0,0.0,0.0,0.0,0.0,0.0,0.0,0.0,0.0,0.0,0.0,0.0,0.0,0.0,0.0,0.0,0.0,0.0,0.0,0.0,-1.1089,-1.4871,-1.8473,-1.9291,-1.6978,-0.7304,0.1111,0.0,0.0,0.0,0.0,0.0,0.0,0.0,0.0,0.0,0.0,0.0,0.0,0.0,0.0,0.0,0.0,0.0,0.0,0.0,0.0,0.0,0.0,0.0,0.0,0.0,0.0,0.0,0.0,0.0,0.0,0.0,0.0,0.0,0.0,0.0,0.0,0.0,0.0,0.0,0.0,0.0,0.0,0.0,0.0,0.0,0.0,0.0,0.0,0.0,0.0,0.0,0.0,0.0,0.0,0.0,0.0,0.0,0.0,0.0,0.0,0.0,0.0,0.0,0.0,0.0,0.0,0.0,0.0,0.0,0.0,0.0,0.0,0.0,0.0,0.0,0.0,0.0,0.0,0.0,0.0,0.0,0.0,0.0,0.0,0.0,0.0,0.0,0.0,0.0,0.0,0.0,0.0,0.0,0.0,0.0,0.0,0.0,0.0,0.0,0.0,0.0,0.0,0.0,0.0,0.0,0.0,0.0,0.0,0.0,-1.3761,-1.5161,-1.3775,-0.9286,-0.0496,0.6736,0.0,0.0,0.0,0.0,0.0,0.0,0.0,0.0,0.0,0.0,0.0,0.0,0.0,0.0,0.0,0.0,0.0,0.0,0.0,0.0,0.0,0.0,0.0,0.0,0.0,0.0,0.0,0.0,0.0,0.0,0.0,0.0,0.0,0.0,0.0,0.0,0.0,0.0,0.0,0.0,0.0,0.0,0.0,0.0,0.0,0.0,0.0,0.0,0.0,0.0,0.0,0.0,0.0,0.0,0.0,0.0,0.0,0.0,0.0,0.0,0.0,0.0,0.0,0.0,0.0,0.0,0.0,0.0,0.0,0.0,0.0,0.0,0.0,0.0,0.0,0.0,0.0,0.0,0.0,0.0,0.0,0.0,0.0,0.0,0.0,0.0,0.0,0.0,0.0,0.0,0.0,0.0,0.0,0.0,0.0,0.0,0.0,0.0,0.0,0.0,0.0,0.0,0.0,0.0,0.0,0.0,0.0,0.0,0.0,-1.163,-0.8225,-0.5247,-0.274,0.3776,0.974,0.0,0.0,0.0,0.0,0.0,0.0,0.0,0.0,0.0,0.0,0.0,0.0,0.0,0.0,0.0,0.0,0.0,0.0,0.0,0.0,0.0,0.0,0.0,0.0,0.0,0.0,0.0,0.0,0.0,0.0,0.0,0.0,0.0,0.0,0.0,0.0,0.0,0.0,0.0,0.0,0.0,0.0,0.0,0.0,0.0,0.0,0.0,0.0,0.0,0.0,0.0,0.0,0.0,0.0,0.0,0.0,0.0,0.0,0.0,0.0,0.0,0.0,0.0,0.0,0.0,0.0,0.0,0.0,0.0,0.0,0.0,0.0,0.0,0.0,0.0,0.0,0.0,0.0,0.0,0.0,0.0,0.0,0.0,0.0,0.0,0.0,0.0,0.0,0.0,0.0,0.0,0.0,0.0,0.0,0.0,0.0,0.0,0.0,0.0,0.0,0.0,0.0,0.0,0.0,0.0,0.0,0.0,0.0,0.0,-0.1904,-0.0916,0.0563,0.2441,0.7611,1.2664,1.7418,0.0,0.0,0.0,0.0,0.0,0.0,0.0,0.0,0.0,0.0,0.0,0.0,0.0,0.0,0.0,0.0,0.0,0.0,0.0,0.0,0.0,0.0,0.0,0.0,0.0,0.0,0.0,0.0,0.0,0.0,0.0,0.0,0.0,0.0,0.0,0.0,0.0,0.0,0.0,0.0,0.0,0.0,0.0,0.0,0.0,0.0,0.0,0.0,0.0,0.0,0.0,0.0,0.0,0.0,0.0,0.0,0.0,0.0,0.0,0.0,0.0,0.0,0.0,0.0,0.0,0.0,0.0,0.0,0.0,0.0,0.0,0.0,0.0,0.0,0.0,0.0,0.0,0.0,0.0,0.0,0.0,0.0,0.0,0.0,0.0,0.0,0.0,0.0,0.0,0.0,0.0,0.0,0.0,0.0,0.0,0.0,0.0,0.0,0.0,0.0,0.0,0.0,0.0,0.0,0.0,0.0,0.0,0.0,0.6481,0.5987,0.6355,0.7676,1.1685,1.578,0.0,0.0,0.0,0.0,0.0,0.0,0.0,0.0,0.0,0.0,0.0,0.0,0.0,0.0,0.0,0.0,0.0,0.0,0.0,0.0,0.0,0.0,0.0,0.0,0.0,0.0,0.0,0.0,0.0,0.0,0.0,0.0,0.0,0.0,0.0,0.0,0.0,0.0,0.0,0.0,0.0,0.0,0.0,0.0,0.0,0.0,0.0,0.0,0.0,0.0,0.0,0.0,0.0,0.0,0.0,0.0,0.0,0.0,0.0,0.0,0.0,0.0,0.0,0.0,0.0,0.0,0.0,0.0,0.0,0.0,0.0,0.0,0.0,0.0,0.0,0.0,0.0,0.0,0.0,0.0,0.0,0.0,0.0,0.0,0.0,0.0,0.0,0.0,0.0,0.0,0.0,0.0,0.0,0.0,0.0,0.0,0.0,0.0,0.0,0.0,0.0,0.0,0.0,0.0,0.0,0.0,0.0,0.0,1.7059,1.2762,1.2428,1.2445,1.284,1.6134,1.9019,0.0,0.0,0.0,0.0,0.0,0.0,0.0,0.0,0.0,0.0,0.0,0.0,0.0,0.0,0.0,0.0,0.0,0.0,0.0,0.0,0.0,0.0,0.0,0.0,0.0,0.0,0.0,0.0,0.0,0.0,0.0,0.0,0.0,0.0,0.0,0.0,0.0,0.0,0.0,0.0,0.0,0.0,0.0,0.0,0.0,0.0,0.0,0.0,0.0,0.0,0.0,0.0,0.0,0.0,0.0,0.0,0.0,0.0,0.0,0.0,0.0,0.0,0.0,0.0,0.0,0.0,0.0,0.0,0.0,0.0,0.0,0.0,0.0,0.0,0.0,0.0,0.0,0.0,0.0,0.0,0.0,0.0,0.0,0.0,0.0,0.0,0.0,0.0,0.0,0.0,0.0,0.0,0.0,0.0,0.0,0.0,0.0,0.0,0.0,0.0,0.0,0.0,0.0,0.0,0.0,0.0,0.0,0.0,0.0,1.9033,0.0,1.7513,1.8103,1.9773,2.1688,0.0,0.0,0.0,0.0,0.0,0.0,0.0,0.0,0.0,0.0,0.0,0.0,0.0,0.0,0.0,0.0,0.0,0.0,0.0,0.0,0.0,0.0,0.0,0.0,0.0,0.0,0.0,0.0,0.0,0.0,0.0,0.0,0.0,0.0,0.0,0.0,0.0,0.0,0.0,0.0,0.0,0.0,0.0,0.0,0.0,0.0,0.0,0.0,0.0,0.0,0.0,0.0,0.0,0.0,0.0,0.0,0.0,0.0,0.0,0.0,0.0,0.0,0.0,0.0,0.0,0.0,0.0,0.0,0.0,0.0,0.0,0.0,0.0,0.0,0.0,0.0,0.0,0.0,0.0,0.0,0.0,0.0,0.0,0.0,0.0,0.0,0.0,0.0,0.0,0.0,0.0,0.0,0.0,0.0,0.0,0.0,0.0,0.0,0.0,0.0,0.0,0.0,0.0,0.0,0.0,0.0,0.0,0.0,0.0,2.3487,2.2136,2.1549,2.1863,2.2539,2.3724,0.0,0.0,0.0,0.0,0.0,0.0,0.0,0.0,0.0,0.0,0.0,0.0,0.0,0.0,0.0,0.0,0.0,0.0,0.0,0.0,0.0,0.0,0.0,0.0,0.0,0.0,0.0,0.0,0.0,0.0,0.0,0.0,0.0,0.0,0.0,0.0,0.0,0.0,0.0,0.0,0.0,0.0,0.0,0.0,0.0,0.0,0.0,0.0,0.0,0.0,0.0,0.0,0.0,0.0,0.0,0.0,0.0,0.0,0.0,0.0,0.0,0.0,0.0,0.0,0.0,0.0,0.0,0.0,0.0,0.0,0.0,0.0,0.0,0.0,0.0,0.0,0.0,0.0,0.0,0.0,0.0,0.0,0.0,0.0,0.0,0.0,0.0,0.0,0.0,0.0,0.0,0.0,0.0,0.0,0.0,0.0,0.0,0.0,0.0,0.0,0.0,0.0,0.0,0.0,0.0,0.0,0.0,0.0,0.0,2.6393,2.5345,2.4639,2.4336,2.4606,2.5221,0.0,0.0,0.0,0.0,0.0,0.0,0.0,0.0,0.0,0.0,0.0,0.0,0.0,0.0,0.0,0.0,0.0,0.0,0.0,0.0,0.0,0.0,0.0,0.0,0.0,0.0,0.0,0.0,0.0,0.0,0.0,0.0,0.0,0.0,0.0,0.0,0.0,0.0,0.0,0.0,0.0,0.0,0.0,0.0,0.0,0.0,0.0,0.0,0.0,0.0,0.0,0.0,0.0,0.0,0.0,0.0,0.0,0.0,0.0,0.0,0.0,0.0,0.0,0.0,0.0,0.0,0.0,0.0,0.0,0.0,0.0,0.0,0.0,0.0,0.0,0.0,0.0,0.0,0.0,0.0,0.0,0.0,0.0,0.0,0.0,0.0,0.0,0.0,0.0,0.0,0.0,0.0,0.0,0.0,0.0,0.0,0.0,0.0,0.0,0.0,0.0,0.0,0.0,0.0,0.0,0.0,0.0,0.0,0.0,0.0,2.7358,2.683,2.7154,2.6409,2.6571,2.7814,0.0,0.0,0.0,0.0,0.0,0.0,0.0,0.0,0.0,0.0,0.0,0.0,0.0,0.0,0.0,0.0,0.0,0.0,0.0,0.0,0.0,0.0,0.0,0.0,0.0,0.0,0.0,0.0,0.0,0.0,0.0,0.0,0.0,0.0,0.0,0.0,0.0,0.0,0.0,0.0,0.0,0.0,0.0,0.0,0.0,0.0,0.0,0.0,0.0,0.0,0.0,0.0,0.0,0.0,0.0,0.0,0.0,0.0,0.0,0.0,0.0,0.0,0.0,0.0,0.0,0.0,0.0,0.0,0.0,0.0,0.0,0.0,0.0,0.0,0.0,0.0,0.0,0.0,0.0,0.0,0.0,0.0,0.0,0.0,0.0,0.0,0.0,0.0,0.0,0.0,0.0,0.0,0.0,0.0,0.0,0.0,0.0,0.0,0.0,0.0,0.0,0.0,0.0,0.0,0.0,0.0,0.0,0.0,0.0,0.0,2.8938,2.9245,2.857,2.8395,0.0,0.0,0.0,0.0,0.0,0.0,0.0,0.0,0.0,0.0,0.0,0.0,0.0,0.0,0.0,0.0,0.0,0.0,0.0,0.0,0.0,0.0,0.0,0.0,0.0,0.0,0.0,0.0,0.0,0.0,0.0,0.0,0.0,0.0,0.0,0.0,0.0,0.0,0.0,0.0,0.0,0.0,0.0,0.0,0.0,0.0,0.0,0.0,0.0,0.0,0.0,0.0,0.0,0.0,0.0,0.0,0.0,0.0,0.0,0.0,0.0,0.0,0.0,0.0,0.0,0.0,0.0,0.0,0.0,0.0,0.0,0.0,0.0,0.0,0.0,0.0,0.0,0.0,0.0,0.0,0.0,0.0,0.0,0.0,0.0,0.0,0.0,0.0,0.0,0.0,0.0,0.0,0.0,0.0,0.0,0.0,0.0,0.0,0.0,0.0,0.0,0.0,0.0,0.0,0.0,0.0,0.0,0.0,0.0,0.0,0.0,3.0812,3.0649,3.076,0.0,2.8977,0.0,0.0,0.0,0.0,0.0,0.0,0.0,0.0,0.0,0.0,0.0,0.0,0.0,0.0,0.0,0.0,0.0,0.0,0.0,0.0,0.0,0.0,0.0,0.0,0.0,0.0,0.0,0.0,0.0,0.0,0.0,0.0,0.0,0.0,0.0,0.0,0.0,0.0,0.0,0.0,0.0,0.0,0.0,0.0,0.0,0.0,0.0,0.0,0.0,0.0,0.0,0.0,0.0,0.0,0.0,0.0,0.0,0.0,0.0,0.0,0.0,0.0,0.0,0.0,0.0,0.0,0.0,0.0,0.0,0.0,0.0,0.0,0.0,0.0,0.0,0.0,0.0,0.0,0.0,0.0,0.0,0.0,0.0,0.0,0.0,0.0,0.0,0.0,0.0,0.0,0.0,0.0,0.0,0.0,0.0,0.0,0.0,0.0,0.0,0.0,0.0,0.0,0.0,0.0,0.0,0.0,0.0,0.0,0.0,0.0,0.0,0.0,3.1732,3.0824,2.8736,0.0,0.0,0.0,0.0,0.0,0.0,0.0,0.0,0.0,0.0,0.0,0.0,0.0,0.0,0.0,0.0,0.0,0.0,0.0,0.0,0.0,0.0,0.0,0.0,0.0,0.0,0.0,0.0,0.0,0.0,0.0,0.0,0.0,0.0,0.0,0.0,0.0,0.0,0.0,0.0,0.0,0.0,0.0,0.0,0.0,0.0,0.0,0.0,0.0,0.0,0.0,0.0,0.0,0.0,0.0,0.0,0.0,0.0,0.0,0.0,0.0,0.0,0.0,0.0,0.0,0.0,0.0,0.0,0.0,0.0,0.0,0.0,0.0,0.0,0.0,0.0,0.0,0.0,0.0,0.0,0.0,0.0,0.0,0.0,0.0,0.0,0.0,0.0,0.0,0.0,0.0,0.0,0.0,0.0,0.0,0.0,0.0,0.0,0.0,0.0,0.0,0.0,0.0,0.0,0.0,0.0,0.0,0.0,0.0,0.0,3.2717,3.2547,3.2496,3.1328,2.8973,0.0,0.0,0.0,0.0,0.0,0.0,0.0,0.0,0.0,0.0,0.0,0.0,0.0,0.0,0.0,0.0,0.0,0.0,0.0,0.0,0.0,0.0,0.0,0.0,0.0,0.0,0.0,0.0,0.0,0.0,0.0,0.0,0.0,0.0,0.0,0.0,0.0,0.0,0.0,0.0,0.0,0.0,0.0,0.0,0.0,0.0,0.0,0.0,0.0,0.0,0.0,0.0,0.0,0.0,0.0,0.0,0.0,0.0,0.0,0.0,0.0,0.0,0.0,0.0,0.0,0.0,0.0,0.0,0.0,0.0,0.0,0.0,0.0,0.0,0.0,0.0,0.0,0.0,0.0,0.0,0.0,0.0,0.0,0.0,0.0,0.0,0.0,0.0,0.0,0.0,0.0,0.0,0.0,0.0,0.0,0.0,0.0,0.0,0.0,0.0,0.0,0.0,0.0,0.0,0.0,0.0,0.0,0.0,0.0,0.0,0.0,0.0,0.0,0.0,2.9348,0.0,0.0,0.0,0.0,0.0,0.0,0.0,0.0,0.0,0.0,0.0,0.0,0.0,0.0,0.0,0.0,0.0,0.0,0.0,0.0,0.0,0.0,0.0,0.0,0.0,0.0,0.0,0.0,0.0,0.0,0.0,0.0,0.0,0.0,0.0,0.0,0.0,0.0,0.0,0.0,0.0,0.0,0.0,0.0,0.0,0.0,0.0,0.0,0.0,0.0,0.0,0.0,0.0,0.0,0.0,0.0,0.0,0.0,0.0,0.0,0.0,0.0,0.0,0.0,0.0,0.0,0.0,0.0,0.0,0.0,0.0,0.0,0.0,0.0,0.0,0.0,0.0,0.0,0.0,0.0,0.0,0.0,0.0,0.0,0.0,0.0,0.0,0.0,0.0,0.0,0.0,0.0,0.0,0.0,0.0,0.0,0.0,0.0,0.0,0.0,0.0,0.0,0.0,0.0,0.0,0.0,0.0,0.0,0.0,0.0,0.0,0.0,0.0,0.0,0.0,0.0,0.0,0.0,0.0,0.0,0.0,0.0,0.0,0.0,0.0,0.0,0.0,0.0,0.0,0.0,0.0,0.0,0.0,0.0,0.0,0.0,0.0,0.0,0.0,0.0,0.0,0.0,0.0,0.0,0.0,0.0,0.0,0.0,0.0,0.0,0.0,0.0,0.0,0.0,0.0,0.0,0.0,0.0,0.0,0.0,0.0,0.0,0.0,0.0,0.0,0.0,0.0,0.0,0.0,0.0,0.0,0.0,0.0,0.0,0.0,0.0,0.0,0.0,0.0,0.0,0.0,0.0,0.0,0.0,0.0,0.0,0.0,0.0,0.0,0.0,0.0,0.0,0.0,0.0,0.0,0.0,0.0,0.0,0.0,0.0,0.0,0.0,0.0,0.0,0.0,0.0,0.0,0.0,0.0,0.0,0.0,0.0,0.0,0.0,0.0,0.0,0.0,0.0,0.0,0.0,0.0,0.0,0.0,0.0,0.0,0.0,0.0,0.0,0.0,0.0,0.0,0.0,0.0,0.0,0.0,0.0,0.0,0.0,0.0,0.0,0.0,0.0,0.0,0.0,0.0,0.0,0.0,0.0,0.0,0.0,0.0,0.0,0.0,0.0,0.0,0.0,0.0,0.0,0.0,0.0,0.0,0.0,0.0,0.0,0.0,0.0,0.0,0.0,0.0,0.0,0.0,0.0,0.0,0.0,0.0,0.0,0.0,0.0,0.0,0.0,0.0,0.0,0.0,0.0,0.0,0.0,0.0,0.0,0.0,0.0,0.0,0.0,0.0,0.0,0.0,0.0,0.0,0.0,0.0,0.0,0.0,0.0,0.0,0.0,0.0,0.0,0.0,0.0,0.0,0.0,0.0,0.0,0.0,0.0,0.0,0.0,0.0,0.0,0.0,0.0,0.0,0.0,0.0,0.0,0.0,0.0,0.0,0.0,0.0,0.0,0.0,0.0,0.0,0.0,0.0,0.0,0.0,0.0,0.0,0.0,0.0,0.0,0.0,0.0,0.0,0.0,0.0,0.0,0.0,0.0,0.0,0.0,0.0,0.0,0.0,0.0,0.0,0.0,0.0,0.0,0.0,0.0,0.0,0.0,0.0,0.0,0.0,0.0,0.0,0.0,0.0,0.0,0.0,0.0,0.0,0.0,0.0,0.0,0.0,0.0,0.0,0.0,0.0,0.0,0.0,0.0,0.0,0.0,0.0,0.0,0.0,0.0,0.0,0.0,0.0,0.0,0.0,0.0,0.0,0.0,0.0,0.0,0.0,0.0,0.0,0.0,0.0,0.0,0.0,0.0,0.0,0.0,0.0,0.0,0.0,0.0,0.0,0.0,0.0,0.0,0.0,0.0,0.0,0.0,0.0,0.0,0.0,0.0,0.0,0.0,0.0,0.0,0.0,0.0,0.0,0.0,0.0,0.0,0.0,0.0,0.0,0.0,0.0,0.0,0.0,0.0,0.0,0.0,0.0,0.0,0.0,0.0,0.0,0.0,0.0,0.0,0.0,0.0,0.0,0.0,0.0,0.0,0.0,0.0,0.0,0.0,0.0,0.0,0.0,0.0,0.0,0.0,0.0,0.0,0.0,0.0,0.0,0.0,0.0,0.0,0.0,0.0,0.0,0.0,0.0,0.0,0.0,0.0,0.0,0.0,0.0,0.0,0.0,0.0,0.0,0.0,0.0,0.0,0.0,0.0,0.0,0.0,0.0,0.0,0.0,0.0,0.0,0.0,0.0,0.0,0.0,0.0,0.0,0.0,0.0,0.0,0.0,0.0,0.0,0.0,0.0,0.0,0.0,0.0,0.0,0.0,0.0,0.0,0.0,0.0,0.0,0.0,0.0,0.0,0.0,0.0,0.0,0.0,0.0,0.0,0.0,0.0,0.0,0.0,0.0,0.0,0.0,0.0,0.0,0.0,0.0,0.0,0.0,0.0,0.0,0.0,0.0,0.0,0.0,0.0,0.0,0.0,0.0,0.0,0.0,0.0,0.0,0.0,0.0,0.0,0.0,0.0,0.0,0.0,0.0,0.0,0.0,0.0,0.0,0.0,0.0,0.0,0.0,0.0,0.0,0.0,0.0,0.0,0.0,0.0,0.0,0.0,0.0,0.0,0.0,0.0,0.0,0.0,0.0,0.0,0.0,0.0,0.0,0.0,0.0,0.0,0.0,0.0,0.0,0.0,0.0,0.0,0.0,0.0,0.0,0.0,0.0,0.0,0.0,0.0,0.0,0.0,0.0,0.0,0.0,0.0,0.0,0.0,0.0,0.0,0.0,0.0,0.0,0.0,0.0,0.0,0.0,0.0,0.0,0.0,0.0,0.0,0.0,0.0,0.0,0.0,0.0,0.0,0.0,0.0,0.0,0.0,0.0,0.0,0.0,0.0,0.0,0.0,0.0,0.0,0.0,0.0,0.0,0.0,0.0,0.0,0.0,0.0,0.0,0.0,0.0,0.0,0.0,0.0,0.0,0.0,0.0,0.0,0.0,0.0,0.0,0.0,0.0,0.0,0.0,0.0,0.0,0.0,0.0,0.0,0.0,0.0,0.0,0.0,0.0,0.0,0.0,0.0,0.0,0.0,0.0,0.0,0.0,0.0,0.0,0.0,0.0,0.0,0.0,0.0,0.0,0.0,0.0,0.0,0.0,0.0,0.0,0.0,0.0,0.0,0.0,0.0,0.0,0.0,0.0,0.0,0.0,0.0,0.0,0.0,0.0,0.0,0.0,0.0,0.0,0.0,0.0,0.0,0.0,0.0,0.0,0.0,0.0,0.0,0.0,0.0,0.0,0.0,0.0,0.0,0.0,0.0,0.0,0.0,0.0,0.0,0.0,0.0,0.0,0.0,0.0,0.0,0.0,0.0,0.0,0.0,0.0,0.0,0.0,0.0,0.0,0.0,0.0,0.0,0.0,0.0,0.0,0.0,0.0,0.0,0.0,0.0,0.0,0.0,0.0,0.0,0.0,0.0,0.0,0.0,0.0,0.0,0.0,0.0,0.0,0.0,0.0,0.0,0.0,0.0,0.0,0.0,0.0,0.0,0.0,0.0,0.0,0.0,0.0,0.0,0.0,0.0,0.0,0.0,0.0,0.0,0.0,0.0,0.0,0.0,0.0,0.0,0.0,0.0,0.0,0.0,0.0,0.0,0.0,0.0,0.0,0.0,0.0,0.0,0.0,0.0,0.0,0.0,0.0,0.0,0.0,0.0,0.0,0.0,0.0,0.0,0.0,0.0,0.0,0.0,0.0,0.0,0.0,0.0,0.0,0.0,0.0,0.0,0.0,0.0,0.0,0.0,0.0,0.0,0.0,0.0,0.0,0.0,0.0,0.0,0.0,0.0,0.0,0.0,0.0,0.0,0.0,0.0,0.0,0.0,0.0,0.0,0.0,0.0,0.0,0.0,0.0,0.0,0.0,0.0,0.0,0.0,0.0,0.0,0.0,0.0,0.0,0.0,0.0,0.0,0.0,0.0,0.0,0.0,0.0,0.0,0.0,0.0,0.0,0.0,0.0,0.0,0.0,0.0,0.0,0.0,0.0,0.0,0.0,0.0,0.0,0.0,0.0,0.0,0.0,0.0,0.0,0.0,0.0,0.0,0.0,0.0,0.0,0.0,0.0,0.0,0.0,0.0,0.0,0.0,0.0,0.0,0.0,0.0,0.0,0.0,0.0,0.0,0.0,0.0,0.0,0.0,0.0,0.0,0.0,0.0,0.0,0.0,0.0,0.0,0.0,0.0,0.0,0.0,0.0,0.0,0.0,0.0,0.0,0.0,0.0,0.0,0.0,0.0,0.0,0.0,0.0,0.0,0.0,0.0,0.0,0.0,0.0,0.0,0.0,0.0,0.0,0.0]}],[{"header":{"parameterUnit":"kt","parameterCategory":2,"dx":1,"dy":1,"la1":29.587661999999998,"la2":31.0,"lo1":-88.76705300000003,"lo2":-86.6583820000003,"nx":115,"ny":88,"refTime":"2022-09-24T06:00:00:Z","depth":0,"parameterNumber":2,"parameterNumberName":"V-component_of_WINDS"},"data":[3.9296,3.9296,3.9675,4.0469,4.1636,4.266,4.4204,4.5859,4.6987,4.7722,4.842,4.9226,4.9886,5.0477,5.0612,5.0906,5.1334,5.1334,5.1443,5.1577,5.171,5.171,5.2103,5.3196,5.4482,5.593,5.7279,5.799,5.8336,5.8336,5.8635,5.9204,5.9204,5.9647,6.0379,6.0985,6.1443,6.1821,6.2478,6.3153,6.3848,6.5078,6.6444,6.7592,6.8928,7.0723,7.2694,7.4543,7.6469,7.8154,7.9758,8.0529,8.0744,8.0744,8.0713,8.0713,8.0969,8.2613,8.4617,8.6133,8.8736,9.1576,9.3078,9.4458,9.5424,9.6395,9.7158,9.7856,9.8323,9.8644,9.8784,9.8923,9.8923,9.8923,9.8923,9.9708,10.0531,10.1283,10.2074,10.3373,10.4946,10.622,10.7333,10.7898,10.8336,10.9458,11.0021,11.0704,11.1395,11.2154,11.2878,11.3782,11.4657,11.5465,11.628,11.6902,11.7451,11.7982,11.8494,11.8873,11.9162,11.9431,11.9575,11.9641,11.9693,11.9769,11.9845,11.9917,11.9945,11.9961,11.9937,12.0518,12.2079,12.3716,12.5317,4.0052,4.0052,4.0177,4.1201,4.2703,4.3653,4.51,4.6919,4.7888,4.8651,4.9363,5.0429,5.0944,5.137,5.1819,5.2109,5.2241,5.2001,5.2134,5.2266,5.2241,5.2241,5.2638,5.3566,5.4783,5.6249,5.7964,5.8634,5.8759,5.8908,5.9056,5.9525,5.9819,5.9966,6.0669,6.1273,6.173,6.2106,6.2645,6.3293,6.4397,6.551,6.6707,6.785,6.8986,7.0605,7.2724,7.4823,7.6655,7.8342,8.0008,8.0657,8.0841,8.0969,8.0841,8.1,8.1286,8.3251,8.5602,8.6931,8.9504,9.2025,9.3455,9.4702,9.5543,9.6477,9.7381,9.8073,9.8571,9.8923,9.8923,9.8923,9.8923,9.8923,9.9028,9.9233,9.9954,10.0675,10.1365,10.1984,10.3495,10.508,10.5978,10.6848,10.7825,10.9324,11.0194,11.0904,11.1588,11.2394,11.3141,11.3982,11.4845,11.5535,11.6243,11.6881,11.7451,11.7973,11.8449,11.873,11.9071,11.9368,11.9575,11.9622,11.9659,11.9725,11.9782,11.9857,11.9917,11.9936,12.0143,12.0606,12.229,12.4124,12.5652,4.053,4.0778,4.0903,4.2139,4.3873,4.4732,4.6268,4.8144,4.8927,4.975,5.0834,5.1528,5.1952,5.2084,5.2374,5.2398,5.2398,5.253,5.2662,5.253,5.2398,5.253,5.3436,5.4546,5.5422,5.6563,5.837,5.9352,5.9031,5.9179,5.9352,5.9525,5.9672,6.0112,6.0814,6.1273,6.1704,6.2389,6.3067,6.3985,6.5078,6.6311,6.752,6.8519,6.9877,7.1879,7.3731,7.5499,7.7549,7.939,8.0253,8.0811,8.0969,8.1097,8.1159,8.1286,8.1975,8.332,8.5957,8.8012,8.9848,9.2711,9.458,9.5424,9.6279,9.7124,9.7897,9.8182,9.8784,9.8923,9.8923,9.9028,9.9028,9.9028,9.9133,9.9099,9.9683,10.0336,10.092,10.147,10.2435,10.3848,10.5024,10.5785,10.6893,10.821,10.9272,10.9792,11.1471,11.2754,11.3484,11.426,11.5031,11.5747,11.6371,11.6939,11.7451,11.7925,11.8363,11.873,11.9115,11.9341,11.9553,11.9581,11.9623,11.971,11.9755,11.9883,11.9906,11.9965,12.0278,12.0695,12.2694,12.4605,12.5837,4.115,4.152,4.172,4.3024,4.5034,4.5924,4.7613,4.943,5.0046,5.0992,5.1927,5.2374,5.2637,5.2637,5.2768,5.2768,5.29,5.3031,5.29,5.3031,5.3161,5.3292,5.3565,5.5449,5.6488,5.7476,5.8693,6.0112,5.994,5.9794,5.9794,6.0112,6.0258,6.055,6.1247,6.1417,6.1963,6.2645,6.3459,6.4561,6.5751,6.6998,6.8036,6.915,7.041,7.2373,7.4645,7.6326,7.8196,8.0258,8.0719,8.1,8.1,8.1413,8.157,8.1696,8.2228,8.4323,8.6587,8.8572,9.0751,9.3446,9.5305,9.6163,9.7045,9.7897,9.8329,9.8503,9.875,9.8923,9.8923,9.9028,9.9028,9.9133,9.9203,9.9306,9.9409,9.9991,10.0536,10.0985,10.1569,10.2638,10.3949,10.4915,10.5908,10.6898,10.8113,10.9527,11.1291,11.2926,11.3684,11.4575,11.5251,11.5883,11.6371,11.6939,11.7488,11.7973,11.8363,11.873,11.912,11.9267,11.9431,11.9492,11.9641,11.9693,11.9755,11.9833,11.9895,11.9927,12.024,12.0856,12.2656,12.3776,12.531,4.2056,4.2178,4.2422,4.3728,4.5988,4.7586,4.9024,5.0318,5.1686,5.2374,5.2505,5.29,5.3005,5.3161,5.3266,5.3371,5.3526,5.3656,5.3785,5.3888,5.4043,5.4197,5.484,5.6598,5.7657,5.8612,5.9827,6.1247,6.1129,6.0985,6.0985,6.1273,6.1155,6.1273,6.1678,6.1989,6.2389,6.3207,6.4288,6.5375,6.6604,6.752,6.8264,6.9371,7.0715,7.2498,7.5135,7.6692,7.7798,7.9701,8.0969,8.1128,8.1382,8.1634,8.201,8.2383,8.2751,8.5095,8.7516,8.9113,9.1608,9.3982,9.5896,9.6625,9.7303,9.8073,9.8503,9.8784,9.8784,9.8923,9.9028,9.9133,9.9237,9.9341,9.9512,9.9682,9.9883,10.0286,10.0755,10.1089,10.1603,10.2083,10.3287,10.3628,10.4571,10.6424,10.7844,10.9456,11.1199,11.3005,11.3978,11.4881,11.5431,11.5981,11.6459,11.6997,11.7578,11.801,11.8363,11.8729,11.9054,11.9215,11.9267,11.9444,11.9641,11.9677,11.9717,11.982,11.9845,11.9917,12.0278,12.097,12.1676,12.2496,12.3912,4.3102,4.3365,4.3222,4.4263,4.6375,4.854,5.0549,5.22,5.3136,5.3526,5.3811,5.3914,5.3914,5.394,5.4069,5.4171,5.4171,5.43,5.4428,5.4555,5.4657,5.4784,5.5848,5.7364,5.8572,5.9758,6.0942,6.2221,6.2221,6.2106,6.1561,6.1561,6.1443,6.1704,6.2274,6.2531,6.2953,6.4039,6.5133,6.6178,6.726,6.8193,6.9179,7.0173,7.0753,7.3043,7.5685,7.642,7.8292,8.0666,8.1128,8.1413,8.1603,8.1979,8.2351,8.3206,8.3781,8.5964,8.8739,9.0066,9.2588,9.5002,9.651,9.7191,9.7746,9.8323,9.8678,9.8923,9.8923,9.9028,9.9133,9.9237,9.9444,9.9546,9.9918,10.0183,10.038,10.0672,10.0994,10.1278,10.164,10.1978,10.2303,10.2626,10.3512,10.5461,10.7255,10.8939,11.0875,11.298,11.4326,11.5142,11.5641,11.6076,11.662,11.7091,11.7578,11.8057,11.8401,11.869,11.902,11.9215,11.9296,11.9444,11.9622,11.9677,11.9717,11.9782,11.9845,11.9917,12.0135,12.0462,12.0864,12.1597,12.278,4.4058,4.4319,4.4176,4.5208,4.7173,4.9416,5.1697,5.3683,5.4017,5.43,5.4581,5.4581,5.4454,5.4581,5.4581,5.4581,5.4709,5.4709,5.4836,5.509,5.5443,5.5416,5.6487,5.8147,5.9288,6.0513,6.1767,6.3014,6.304,6.2786,6.2389,6.1963,6.2248,6.2389,6.2672,6.3093,6.4067,6.5133,6.6101,6.7157,6.8065,6.8928,6.9803,7.0662,7.1385,7.3497,7.5778,7.6787,7.8663,8.0951,8.1603,8.1916,8.2104,8.2597,8.3085,8.3923,8.4915,8.6578,8.9647,9.1058,9.2849,9.5824,9.7124,9.7822,9.8289,9.8678,9.8818,9.9028,9.9028,9.9133,9.9237,9.9546,9.9817,10.0018,10.0281,10.0575,10.0864,10.1184,10.1465,10.1741,10.1978,10.2279,10.2333,10.2616,10.3303,10.4749,10.6444,10.8521,11.0639,11.3151,11.4702,11.5251,11.5779,11.6206,11.6644,11.724,11.7666,11.814,11.8363,11.869,11.8986,11.9215,11.9296,11.9457,11.9537,11.9641,11.9717,11.9795,11.9906,11.9936,11.9961,11.9948,12.0078,12.0805,12.1832,4.4859,4.4976,4.5259,4.67,4.8673,5.0102,5.2192,5.453,5.4581,5.4709,5.4709,5.4709,5.4709,5.4709,5.4709,5.4709,5.4836,5.5343,5.5443,5.5694,5.6193,5.6317,5.719,5.8974,6.01,6.0992,6.231,6.3874,6.3571,6.3459,6.3319,6.3014,6.304,6.318,6.3459,6.4039,6.516,6.6101,6.7027,6.7936,6.883,6.9803,7.054,7.1115,7.1981,7.3883,7.5681,7.7274,7.9154,8.0735,8.2228,8.2475,8.2842,8.3447,8.3836,8.4574,8.5265,8.7832,9.0659,9.2157,9.4133,9.6621,9.7788,9.8397,9.875,9.8923,9.9028,9.9028,9.9133,9.9237,9.9444,9.9817,10.0118,10.0414,10.0672,10.096,10.1278,10.1557,10.1832,10.2103,10.2333,10.256,10.2646,10.2901,10.3509,10.4874,10.631,10.8371,11.0427,11.2916,11.4413,11.5026,11.5878,11.6234,11.6763,11.7258,11.7767,11.8186,11.8449,11.869,11.8951,11.9184,11.9324,11.9457,11.9492,11.9584,11.9703,11.9808,11.9917,11.9945,11.9937,11.9957,11.997,12.0541,12.0842,4.6224,4.6224,4.6339,4.7739,4.997,5.0752,5.2406,5.465,5.519,5.5217,5.5217,5.5217,5.5217,5.5343,5.5443,5.5568,5.5568,5.6068,5.6193,5.6317,5.6933,5.7178,5.8184,5.9963,6.1057,6.2192,6.3599,6.4889,6.4589,6.4452,6.415,6.3709,6.3571,6.3709,6.4288,6.497,6.6101,6.6764,6.7807,6.8859,6.9584,7.0296,7.1145,7.1711,7.2513,7.3593,7.5546,7.7382,7.9072,8.0903,8.2333,8.3447,8.3955,8.4542,8.5119,8.5492,8.636,8.8557,9.1502,9.3291,9.5438,9.7585,9.8363,9.8784,9.8923,9.8923,9.9028,9.9133,9.9237,9.9444,9.9817,10.0118,10.0512,10.0803,10.1089,10.1465,10.1741,10.1942,10.221,10.2508,10.2681,10.2986,10.3235,10.3435,10.3678,10.4892,10.6252,10.8041,10.9973,11.2046,11.3718,11.5014,11.6105,11.6484,11.6939,11.7367,11.7817,11.8194,11.8491,11.8729,11.8986,11.9184,11.9324,11.9482,11.9537,11.9604,11.9741,11.9819,11.9898,11.9968,11.9948,11.9964,11.9933,12.0083,12.0189,4.7133,4.7133,4.7159,4.8695,5.106,5.1767,5.3235,5.508,5.5416,5.5568,5.5568,5.5568,5.5568,5.5694,5.5819,5.6068,5.6193,5.6564,5.6933,5.6933,5.7543,5.7812,5.8647,6.0505,6.2113,6.2863,6.4501,6.5593,6.5458,6.5025,6.4725,6.4425,6.415,6.4315,6.5025,6.5968,6.6736,6.739,6.8449,6.9488,7.0325,7.0934,7.1653,7.2416,7.2763,7.3933,7.5874,7.7806,7.9559,8.1449,8.3551,8.4478,8.4921,8.5685,8.6131,8.6385,8.7037,8.8945,9.1475,9.5113,9.7131,9.7989,9.875,9.8923,9.8923,9.9028,9.9133,9.9375,9.9546,9.9817,10.0118,10.0478,10.0803,10.1089,10.1465,10.1832,10.2103,10.2298,10.2524,10.2817,10.3069,10.3318,10.3562,10.3758,10.4108,10.5139,10.6524,10.8266,10.9279,11.12,11.323,11.4696,11.5939,11.6519,11.7053,11.7473,11.7866,11.8231,11.8528,11.8767,11.8948,11.9115,11.9324,11.9506,11.9581,11.9679,11.9741,11.9819,11.9907,11.9943,11.9961,11.9933,11.9932,11.9964,11.9953,4.7857,4.7857,4.7909,4.9462,5.2048,5.3353,5.4461,5.5489,5.5568,5.5568,5.5568,5.5694,5.5819,5.5944,5.6193,5.644,5.6687,5.73,5.7543,5.7664,5.8293,5.8615,5.9624,6.1055,6.2812,6.2935,6.4763,6.6157,6.5889,6.5593,6.5323,6.5025,6.4725,6.4725,6.5323,6.6367,6.7129,6.7908,6.8869,6.9897,7.0783,7.1534,7.2126,7.2794,7.3139,7.4223,7.6101,7.8116,8.0079,8.1988,8.4084,8.5475,8.583,8.6713,8.7004,8.721,8.7916,8.9201,9.0953,9.5914,9.817,9.8787,9.8889,9.9028,9.9028,9.9133,9.9341,9.9546,9.9817,10.0183,10.0478,10.0768,10.1184,10.1465,10.1832,10.2067,10.2421,10.2646,10.2901,10.3069,10.34,10.3606,10.3837,10.4108,10.449,10.533,10.6813,10.7856,10.8645,11.0273,11.24,11.3935,11.5353,11.6083,11.7147,11.754,11.7914,11.8231,11.8569,11.8767,11.8983,11.9177,11.9352,11.9492,11.9622,11.9715,11.9793,11.9792,11.9877,11.9953,11.9969,11.9933,11.9969,11.9957,11.9937,4.8386,4.8491,4.9252,5.0627,5.2192,5.3379,5.4513,5.5463,5.5568,5.5568,5.5568,5.5819,5.5944,5.6219,5.6687,5.7178,5.7421,5.7933,5.8173,5.8531,5.8999,5.9684,6.0935,6.2296,6.3662,6.485,6.6134,6.666,6.6234,6.6101,6.5834,6.5565,6.5323,6.5431,6.5862,6.6764,6.7707,6.8704,6.9554,7.051,7.1235,7.1948,7.2648,7.3139,7.3819,7.4863,7.614,7.8485,8.0478,8.23,8.4387,8.6166,8.7004,8.7536,8.792,8.8598,8.9543,9.1233,9.2994,9.5852,9.773,9.8996,9.9271,9.9341,9.9409,9.9512,9.975,9.9852,10.0217,10.0512,10.0707,10.1184,10.1557,10.1832,10.2067,10.2421,10.2646,10.2901,10.3153,10.3318,10.3562,10.3801,10.3994,10.4262,10.4676,10.5294,10.6371,10.6972,10.7896,10.9576,11.1519,11.3043,11.4612,11.5959,11.7234,11.7655,11.8057,11.8363,11.8613,11.8878,11.8819,11.9208,11.9379,11.9197,11.9282,11.971,11.9719,11.9519,11.9671,11.9809,11.9969,11.9933,11.9967,11.9957,11.993,4.8606,4.8711,4.9845,5.1032,5.2245,5.3379,5.4513,5.5463,5.5568,5.5568,5.5568,5.5944,5.6166,5.6537,5.7178,5.7664,5.8053,5.865,5.8887,5.9123,5.9475,6.0278,6.1419,6.2883,6.4433,6.5166,6.6665,6.7288,6.6764,6.6632,6.6206,6.5968,6.5968,6.5995,6.6262,6.6764,6.7936,6.8928,7.005,7.0995,7.1593,7.2385,7.3077,7.3706,7.4517,7.5,7.5963,7.8731,8.0503,8.2311,8.4784,8.6429,8.7579,8.8229,8.8568,8.887,9.0421,9.2011,9.3776,9.6193,9.8005,9.9272,9.9444,9.9512,9.9614,9.9918,10.0118,10.0316,10.0575,10.096,10.1184,10.1557,10.1923,10.2156,10.2386,10.2646,10.2901,10.3153,10.34,10.3562,10.3722,10.3994,10.4262,10.4526,10.4896,10.5183,10.5634,10.6222,10.7349,10.8835,11.0352,11.1768,11.3883,11.5439,11.7317,11.7877,11.8194,11.8453,11.8692,11.8343,11.7896,11.8418,11.8436,11.8597,11.8616,11.8997,11.9223,11.9164,11.8961,11.8598,11.8869,11.9554,11.9895,11.9961,11.9885,4.8606,4.8738,4.9958,5.1032,5.2219,5.3379,5.4513,5.5568,5.5568,5.5568,5.5568,5.5944,5.6414,5.7001,5.7421,5.8053,5.8531,5.9241,5.9447,5.9708,6.0228,6.0658,6.1633,6.3127,6.4477,6.4956,6.679,6.7722,6.7418,6.7129,6.7027,6.6895,6.6736,6.6472,6.6604,6.7157,6.8036,6.9179,7.0418,7.1385,7.2004,7.2733,7.3418,7.4375,7.5032,7.5644,7.6617,7.8727,8.058,8.2744,8.4979,8.6687,8.8198,8.8735,8.8969,8.9607,9.1026,9.2789,9.4456,9.6876,9.8964,9.9409,9.9614,9.9918,10.0083,10.038,10.0478,10.0575,10.1055,10.1337,10.1649,10.1923,10.2156,10.2421,10.2681,10.2937,10.3153,10.34,10.3562,10.3758,10.3994,10.4262,10.4526,10.486,10.5253,10.5494,10.5865,10.616,10.7268,10.7898,10.9293,11.094,11.3122,11.4856,11.6922,11.7692,11.7465,11.7637,11.7935,11.7607,11.6881,11.6787,11.6814,11.6934,11.7163,11.8013,11.8561,11.7849,11.7342,11.7233,11.7693,11.8605,11.9098,11.963,11.9847,4.8851,4.9447,5.057,5.1605,5.2492,5.3713,5.4733,5.5489,5.5568,5.5568,5.5694,5.5944,5.6564,5.7272,5.8025,5.865,5.9213,5.9563,5.994,6.0257,6.0601,6.1233,6.2184,6.3775,6.5192,6.5959,6.7486,6.795,6.7908,6.7779,6.7807,6.7649,6.739,6.739,6.752,6.7807,6.8193,6.9179,7.0418,7.1563,7.2379,7.3274,7.4091,7.4892,7.5675,7.6442,7.7423,7.9038,8.1222,8.3246,8.5212,8.6985,8.8699,8.9167,8.9397,9.0034,9.2239,9.3873,9.52,9.7387,9.9066,9.975,10.0018,10.0478,10.0768,10.096,10.1055,10.1055,10.1557,10.1832,10.2013,10.2245,10.2508,10.2767,10.2937,10.3188,10.3435,10.3597,10.3758,10.3994,10.4339,10.4601,10.4932,10.5287,10.5561,10.5726,10.5986,10.6337,10.6786,10.7206,10.8517,10.9931,11.1659,11.2776,11.4789,11.6299,11.6582,11.6701,11.7011,11.6692,11.5464,11.509,11.5174,11.5314,11.5434,11.5753,11.5559,11.5626,11.5681,11.6023,11.6517,11.7542,11.8453,11.9402,11.9747,4.9504,4.98,5.0447,5.1168,5.212,5.3179,5.4379,5.5243,5.5829,5.6068,5.6068,5.6193,5.6687,5.7543,5.8504,5.9213,5.968,6.0142,6.0372,6.06,6.0885,6.143,6.2474,6.4098,6.5292,6.6154,6.7477,6.8247,6.8449,6.8449,6.8293,6.8036,6.7908,6.7908,6.7779,6.8165,6.8704,6.9305,7.0266,7.1532,7.2641,7.3582,7.4533,7.5323,7.6306,7.7025,7.799,7.9272,8.1147,8.3704,8.4993,8.6802,8.8689,8.9592,8.9689,9.0085,9.2909,9.4646,9.5323,9.8099,9.9504,10.0217,10.0575,10.0994,10.1243,10.143,10.1649,10.1649,10.2013,10.228,10.2333,10.2595,10.2852,10.2986,10.3153,10.34,10.3562,10.3758,10.403,10.4339,10.4676,10.5004,10.5356,10.5592,10.5857,10.6014,10.6362,10.6602,10.6834,10.7076,10.8061,10.9243,11.0059,11.1068,11.3139,11.4742,11.5049,11.5298,11.5617,11.5162,11.3993,11.3432,11.3571,11.369,11.3781,11.3168,11.2281,11.2758,11.3821,11.4542,11.5264,11.5871,11.6517,11.758,11.8245,5.0333,5.0093,5.012,5.0638,5.1633,5.2631,5.3701,5.4992,5.5866,5.6403,5.6687,5.6687,5.7028,5.7757,5.8831,5.9651,5.9999,6.0458,6.0799,6.0941,6.1054,6.1253,6.1631,6.3867,6.474,6.567,6.759,6.8695,6.8859,6.8605,6.8449,6.8449,6.8193,6.8065,6.8193,6.8548,6.8928,6.9525,7.0143,7.1355,7.2763,7.3787,7.4751,7.5749,7.6719,7.7528,7.8476,7.9247,8.1183,8.3914,8.4824,8.641,8.8815,8.9751,8.9847,9.0858,9.2823,9.5167,9.5712,9.8419,10.0512,10.0672,10.1055,10.1278,10.1557,10.1832,10.2103,10.2138,10.2421,10.2646,10.2681,10.2937,10.3021,10.3188,10.3318,10.3526,10.3722,10.3994,10.4375,10.4676,10.5004,10.5356,10.5659,10.5922,10.614,10.6386,10.6661,10.6834,10.7022,10.7253,10.7991,10.8533,10.9316,11.0398,11.2191,11.3096,11.3496,11.3832,11.3827,11.3577,11.2599,11.1842,11.1957,11.2111,11.2074,11.1716,11.123,11.1353,11.1961,11.2834,11.3783,11.4352,11.477,11.534,11.6061,5.1249,5.1118,5.0965,5.1471,5.2163,5.2519,5.3692,5.5233,5.5539,5.6189,5.7218,5.7421,5.7515,5.809,5.8949,5.9883,6.0685,6.0714,6.0941,6.1083,6.1166,6.1166,6.1544,6.2849,6.4216,6.5147,6.6834,6.7939,6.8637,6.883,6.8859,6.8732,6.8859,6.8732,6.8732,6.8928,6.94,6.9897,7.054,7.1175,7.236,7.3706,7.5,7.6138,7.7025,7.7924,7.8825,7.9387,8.1395,8.3782,8.5214,8.6429,8.9103,9.0003,9.0191,9.0825,9.3548,9.5109,9.6464,9.8934,10.0994,10.1149,10.1649,10.1867,10.2048,10.2192,10.2508,10.2595,10.2731,10.2901,10.2937,10.3224,10.3307,10.3389,10.3517,10.3722,10.3958,10.4267,10.4639,10.5004,10.5356,10.5659,10.5885,10.614,10.6386,10.6624,10.6854,10.7022,10.7237,10.7459,10.7741,10.816,10.8754,10.9863,11.0733,11.1732,11.203,11.2303,11.2231,11.2107,11.1312,11.0564,11.0564,11.079,11.0784,11.0974,11.0556,11.0442,11.0898,11.1505,11.234,11.291,11.3176,11.3669,11.431,5.2275,5.2174,5.1952,5.198,5.2357,5.2835,5.3756,5.4838,5.5684,5.6566,5.7262,5.7988,5.8357,5.8831,5.9447,6.0114,6.0685,6.0941,6.1083,6.1166,6.1166,6.1166,6.134,6.2616,6.3867,6.4972,6.5878,6.699,6.8121,6.8791,6.8986,6.8986,6.8986,6.8986,6.9112,6.9305,6.9679,7.005,7.0783,7.1504,7.2243,7.3593,7.5184,7.6449,7.7495,7.8346,7.9202,7.963,8.1501,8.4204,8.516,8.7014,8.9105,9.0471,9.0872,9.1662,9.4222,9.6107,9.6869,9.9391,10.1452,10.1762,10.2067,10.2369,10.2456,10.2508,10.2646,10.2852,10.3021,10.3224,10.3224,10.3307,10.3389,10.3517,10.3642,10.3958,10.419,10.4421,10.4895,10.532,10.5689,10.6014,10.6264,10.6446,10.6683,10.6854,10.7076,10.7253,10.7408,10.7656,10.7899,10.8226,10.8465,10.9307,10.9784,11.0312,11.0616,11.0773,11.0782,11.0705,11.0212,11.0239,11.0117,10.9986,11.0024,11.0328,11.0062,11.0062,11.0062,11.029,11.0936,11.1505,11.1695,11.2037,11.2681,5.3235,5.3036,5.2764,5.2534,5.2446,5.3307,5.3902,5.4334,5.5812,5.6767,5.7442,5.8398,5.902,5.9739,6.0027,6.0458,6.1025,6.1362,6.142,6.1532,6.1532,6.1502,6.1648,6.2495,6.3662,6.4742,6.5562,6.6412,6.7672,6.8537,6.9179,6.9267,6.9238,6.9238,6.9334,6.943,6.9773,7.0173,7.1025,7.1742,7.2416,7.3531,7.5045,7.6891,7.7891,7.873,7.9446,8.0094,8.1671,8.466,8.5455,8.7472,8.9806,9.1108,9.1585,9.2387,9.4883,9.6826,9.7423,10.0182,10.1874,10.235,10.2524,10.2646,10.2646,10.2731,10.2937,10.3141,10.3224,10.3378,10.3425,10.3425,10.3471,10.3597,10.3801,10.4149,10.4493,10.4787,10.5211,10.5755,10.6077,10.6349,10.6587,10.6854,10.7022,10.72,10.7357,10.7509,10.7704,10.7937,10.8156,10.8282,10.8441,10.8705,10.9014,10.9403,10.9707,11.0026,11.0122,11.0023,11.0041,11.0008,10.9986,11.0024,11.0024,11.0062,11.0062,11.0062,11.0062,11.0062,11.0062,11.0138,11.0556,11.1011,11.1543,5.3923,5.3826,5.363,5.3375,5.3433,5.3636,5.4231,5.4996,5.5128,5.6454,5.8194,5.8541,5.9199,6.0455,6.0938,6.1332,6.1585,6.1836,6.1976,6.1976,6.1976,6.1976,6.2035,6.244,6.3176,6.4325,6.5238,6.6592,6.7771,6.9096,6.9502,6.9832,6.9832,6.9708,6.9803,7.002,7.0236,7.0418,7.1265,7.1978,7.2501,7.35,7.5045,7.6891,7.8119,7.8981,7.9721,8.0374,8.1973,8.5215,8.5702,8.7707,9.0243,9.1759,9.2186,9.2411,9.5536,9.722,9.8165,10.0527,10.256,10.256,10.2817,10.2937,10.3021,10.3141,10.326,10.3342,10.3342,10.3425,10.3425,10.3425,10.3471,10.3642,10.3801,10.4114,10.4567,10.5214,10.5719,10.6239,10.6506,10.6761,10.6985,10.7184,10.7357,10.7558,10.7607,10.7714,10.8026,10.8241,10.8401,10.848,10.8632,10.8845,10.9039,10.9382,10.9626,10.9849,10.9924,10.9911,10.9998,11.0015,11.0024,11.0024,11.0062,11.0062,11.0062,11.0062,11.0062,11.0062,11.0062,11.0062,11.0062,11.0062,11.029,5.4854,5.476,5.4599,5.4503,5.4503,5.4532,5.4761,5.5224,5.5373,5.6189,5.7341,5.8002,5.8931,6.0203,6.0729,6.1358,6.1799,6.2196,6.2196,6.2196,6.2196,6.2226,6.2306,6.2693,6.3059,6.3774,6.4862,6.5909,6.7212,6.8276,6.934,6.9867,6.9956,6.9991,7.005,7.0266,7.051,7.0904,7.1623,7.233,7.2879,7.398,7.5399,7.6655,7.8086,7.9228,7.9992,8.0403,8.251,8.4934,8.6351,8.8301,9.1437,9.2567,9.2892,9.3582,9.6195,9.7917,9.8967,10.1194,10.32,10.34,10.3318,10.3318,10.3318,10.3425,10.3425,10.3425,10.3425,10.3425,10.3425,10.3471,10.3597,10.3801,10.4114,10.4493,10.4967,10.5616,10.6227,10.6624,10.6911,10.7147,10.7357,10.7558,10.7752,10.7891,10.7937,10.8076,10.8363,10.848,10.8557,10.8705,10.8811,10.8976,10.9091,10.9333,10.959,10.9705,10.9806,10.9904,11.0012,11.002,11.0062,11.0062,11.0062,11.0062,11.0062,11.0062,11.0062,11.0062,11.0062,11.0062,11.0062,11.0062,11.0062,5.5665,5.5665,5.5509,5.5415,5.5385,5.5385,5.5415,5.5441,5.5859,5.6227,5.6601,5.7387,5.8463,5.97,6.0432,6.1041,6.2009,6.2455,6.2524,6.2604,6.2524,6.2633,6.2742,6.3173,6.3493,6.3748,6.4412,6.5407,6.6338,6.765,6.8695,6.9735,6.9945,7.0121,7.048,7.0783,7.0874,7.1265,7.1948,7.2763,7.3449,7.4564,7.5505,7.6552,7.8086,7.9321,8.0138,8.0752,8.2481,8.5058,8.6972,8.8962,9.1603,9.2962,9.3597,9.439,9.6616,9.8412,9.9388,10.143,10.3371,10.3772,10.3722,10.3722,10.3722,10.3552,10.3471,10.3471,10.3507,10.3471,10.3471,10.3562,10.3801,10.4114,10.4418,10.4823,10.5483,10.6129,10.6646,10.6985,10.7305,10.7521,10.7845,10.7982,10.807,10.8156,10.8323,10.8442,10.8595,10.8706,10.8814,10.8949,10.9045,10.9129,10.9295,10.9427,10.9608,10.9734,10.9835,10.9922,11.0018,11.0062,11.0062,11.0062,11.0062,11.0062,11.0062,11.0062,11.0062,11.0062,11.0062,11.0062,11.0062,11.0062,11.0062,5.5972,5.5972,5.588,5.588,5.588,5.588,5.5972,5.588,5.5813,5.632,5.7006,5.7396,5.8267,5.9558,6.0572,6.159,6.1922,6.2875,6.3464,6.3479,6.3599,6.3705,6.3735,6.3916,6.3916,6.4128,6.5203,6.573,6.6334,6.7241,6.851,6.9392,6.9694,7.0414,7.123,7.1532,7.183,7.2152,7.2501,7.3191,7.398,7.4969,7.5928,7.696,7.8313,7.9413,8.0403,8.1248,8.2602,8.5138,8.7222,8.9269,9.1091,9.3254,9.4158,9.4841,9.6348,9.811,9.9477,10.1168,10.2679,10.3785,10.4036,10.3994,10.3916,10.3722,10.3562,10.3562,10.3562,10.3597,10.3642,10.3801,10.4114,10.4493,10.4642,10.5243,10.603,10.6587,10.7039,10.7521,10.7752,10.7982,10.8241,10.8401,10.8478,10.8557,10.8632,10.8738,10.8845,10.8916,10.9014,10.9137,10.9252,10.9333,10.9442,10.9513,10.9643,10.976,10.989,10.997,11.002,11.0062,11.0062,11.0062,11.0062,11.0062,11.0062,11.0062,11.0062,11.0062,11.0062,11.0062,11.0062,11.0062,11.0062,5.6759,5.6759,5.6759,5.6789,5.6759,5.6789,5.6759,5.6759,5.6548,5.6673,5.701,5.7009,5.774,5.8928,5.9665,6.0275,6.116,6.2503,6.3042,6.3061,6.373,6.4346,6.4685,6.4644,6.4613,6.4736,6.5018,6.5585,6.6348,6.6867,6.7844,6.8912,6.9156,6.9858,7.1254,7.1231,7.1736,7.2756,7.3305,7.3868,7.4642,7.5612,7.6584,7.7428,7.841,7.9354,8.0369,8.1396,8.3019,8.5422,8.7686,8.9723,9.1546,9.3585,9.4762,9.5003,9.6583,9.8347,9.9903,10.146,10.3087,10.4242,10.4343,10.4303,10.4185,10.3994,10.3837,10.3801,10.3837,10.3837,10.388,10.4,10.4382,10.4823,10.5379,10.593,10.6667,10.711,10.7472,10.7808,10.8119,10.8328,10.852,10.8703,10.8776,10.877,10.8611,10.8744,10.8956,10.9167,10.9224,10.9295,10.9371,10.9465,10.9571,10.9646,10.9758,10.9806,10.9911,11.0008,11.0058,11.0062,11.0062,11.0062,11.0062,11.0062,11.0062,11.0062,11.0062,11.0062,11.0062,11.0062,11.0062,11.0062,11.0062,5.7522,5.7522,5.7522,5.7554,5.7491,5.7522,5.7522,5.7522,5.7317,5.7198,5.7229,5.7053,5.7551,5.8386,5.8788,5.9437,6.0455,6.1782,6.2234,6.2221,6.3373,6.4111,6.4438,6.4619,6.4923,6.5264,6.5248,6.5547,6.6577,6.6577,6.7319,6.8479,6.8541,6.9219,7.0502,7.0688,7.1509,7.2991,7.3638,7.4309,7.5303,7.6345,7.7195,7.7858,7.8853,7.9687,8.0491,8.1597,8.323,8.5269,8.7516,8.9751,9.1593,9.3446,9.4859,9.5559,9.6813,9.8186,9.975,10.1321,10.2889,10.4205,10.457,10.4677,10.4565,10.4379,10.419,10.419,10.419,10.419,10.4231,10.4346,10.4642,10.5178,10.5877,10.6609,10.7163,10.7607,10.7937,10.8241,10.852,10.8363,10.8202,10.8142,10.812,10.7706,10.7612,10.7771,10.8099,10.8415,10.8767,10.9049,10.9379,10.9496,10.9681,10.9781,10.981,10.9844,10.9917,11.0015,11.006,11.0062,11.0062,11.0062,11.0062,11.0062,11.0062,10.9873,11.0024,11.0062,11.0062,11.0062,11.0062,10.9683,10.9645,5.7829,5.7914,5.7914,5.7945,5.7945,5.7945,5.7945,5.7945,5.7945,5.7945,5.7945,5.7945,5.7954,5.83,5.9274,5.9871,6.0285,6.12,6.164,6.1732,6.2291,6.2541,6.2669,6.3517,6.4454,6.5393,6.5674,6.5961,6.6314,6.644,6.7006,6.813,6.8287,6.8946,7.0076,7.0358,7.1228,7.2668,7.3216,7.4239,7.5952,7.6964,7.7825,7.8531,7.9495,8.0403,8.1094,8.1785,8.2644,8.393,8.6361,8.8625,9.0717,9.2632,9.4548,9.6013,9.6364,9.7439,9.8792,10.046,10.1903,10.3346,10.4415,10.5144,10.5074,10.4932,10.4751,10.4751,10.4751,10.4751,10.4787,10.4967,10.5178,10.5452,10.6227,10.6819,10.7521,10.7765,10.7724,10.8143,10.8681,10.8451,10.6924,10.6929,10.6313,10.5508,10.5179,10.5943,10.6646,10.7294,10.8,10.8569,10.904,10.9334,10.972,10.981,10.9854,10.9904,10.997,11.002,11.0062,11.0062,11.0062,11.0062,11.0062,11.0062,10.9948,10.9607,10.9531,10.9189,10.9303,10.991,10.9721,10.9151,10.8885,5.7986,5.8784,5.8816,5.8816,5.8784,5.8816,5.8784,5.8816,5.8981,5.9062,5.903,5.9062,5.903,5.9077,5.9359,5.9531,5.969,6.0738,6.1007,6.073,6.1456,6.183,6.1826,6.2802,6.3726,6.4265,6.512,6.5658,6.594,6.6831,6.7501,6.7948,6.7948,6.865,6.983,7.0021,7.079,7.2104,7.2729,7.3351,7.4458,7.6145,7.7362,7.8172,7.9664,8.089,8.1528,8.1695,8.2515,8.4239,8.5507,8.7467,8.976,9.2357,9.4246,9.5201,9.6191,9.7478,9.9002,10.043,10.1974,10.3399,10.4842,10.5586,10.5489,10.5421,10.5352,10.5421,10.5421,10.5352,10.5421,10.5556,10.5913,10.6336,10.6763,10.6771,10.6151,10.5776,10.5665,10.5972,10.617,10.5823,10.5443,10.5338,10.5118,10.4744,10.45,10.4973,10.5275,10.5595,10.6629,10.7531,10.8076,10.8686,10.9454,10.9674,10.9745,10.9581,10.9455,10.9265,10.9227,10.9227,10.9265,10.9189,10.9227,10.9151,10.9037,10.8847,10.8392,10.7784,10.7329,10.7557,10.7557,10.7367,10.7671,5.7514,5.8423,5.8423,5.8423,5.8423,5.8456,5.8748,5.9183,5.9371,5.9709,6.0068,6.0178,6.0211,6.0101,5.9944,5.9865,5.9851,6.0775,6.0935,6.0673,6.1047,6.1295,6.1457,6.2438,6.2945,6.317,6.4361,6.5214,6.556,6.6814,6.7616,6.7746,6.8037,6.8783,6.9533,6.963,7.0277,7.1635,7.2209,7.2752,7.3617,7.531,7.653,7.7191,7.8724,8.0103,8.0864,8.1385,8.2498,8.4071,8.5274,8.6948,8.94,9.2141,9.3937,9.4802,9.6329,9.7806,9.89,10.0233,10.1673,10.3217,10.4623,10.5567,10.6066,10.6077,10.6077,10.605,10.605,10.605,10.605,10.614,10.6234,10.6512,10.6234,10.5499,10.4902,10.4284,10.4016,10.4236,10.4432,10.4197,10.3914,10.3763,10.3609,10.3037,10.2923,10.328,10.378,10.3983,10.4655,10.6181,10.6458,10.6923,10.7567,10.7937,10.784,10.7626,10.7519,10.7405,10.7595,10.7708,10.786,10.7898,10.7974,10.7974,10.786,10.7557,10.6911,10.6304,10.5886,10.5469,10.5089,10.5279,10.5772,5.6644,5.6809,5.661,5.6909,5.6975,5.7008,5.7571,5.873,5.8901,5.9737,6.0873,6.1105,6.1072,6.1272,6.1165,6.1024,6.0891,6.1458,6.1709,6.1503,6.1231,6.1074,6.1055,6.1985,6.2367,6.2465,6.3838,6.4541,6.4805,6.6299,6.7055,6.7317,6.8302,6.9046,6.9156,6.932,7.0066,7.1052,7.156,7.2521,7.4025,7.4725,7.54,7.5991,7.669,7.7621,7.892,8.08,8.2188,8.3403,8.5254,8.7536,8.957,9.1619,9.3495,9.495,9.6702,9.7631,9.8002,9.9273,10.093,10.2215,10.3779,10.5137,10.6246,10.6615,10.667,10.6703,10.6719,10.6719,10.6719,10.6409,10.6058,10.5397,10.4388,10.3702,10.361,10.3672,10.3918,10.4076,10.4139,10.3879,10.2771,10.2254,10.1824,10.0876,10.0547,10.0964,10.2037,10.2264,10.3044,10.4401,10.4987,10.5268,10.5785,10.6181,10.5884,10.5696,10.5658,10.6,10.6342,10.638,10.6532,10.6494,10.657,10.6532,10.6418,10.5772,10.5203,10.4899,10.4671,10.4254,10.3798,10.3494,10.395,5.6545,5.7451,5.755,5.7649,5.7615,5.7649,5.7919,5.8324,5.8556,5.9433,6.0652,6.0855,6.1364,6.2175,6.2207,6.1804,6.1388,6.2503,6.2851,6.2381,6.2277,6.1997,6.1709,6.1818,6.1829,6.1844,6.2242,6.3047,6.4274,6.5706,6.6405,6.6538,6.7902,6.8683,6.8883,6.9683,7.0316,7.0716,7.1018,7.1452,7.2072,7.3594,7.4558,7.4977,7.4912,7.5763,7.7687,7.8962,8.0906,8.3594,8.4957,8.6504,8.8606,9.0487,9.2317,9.4108,9.579,9.7136,9.8295,9.9633,10.0704,10.1263,10.2578,10.4113,10.5626,10.5886,10.6432,10.7111,10.7357,10.7305,10.6935,10.5478,10.4313,10.4165,10.3721,10.3159,10.2443,10.2394,10.2111,10.1569,10.1582,10.1343,10.0796,10.0703,10.0455,10.0016,9.9903,10.0024,10.0524,10.072,10.1296,10.2857,10.3237,10.3664,10.4472,10.4212,10.3608,10.3836,10.3912,10.4823,10.5355,10.5241,10.5203,10.5089,10.5013,10.4975,10.4595,10.3912,10.3494,10.3229,10.2963,10.2545,10.209,10.1824,10.1862,5.6027,5.7001,5.7084,5.7107,5.7107,5.7142,5.7452,5.7968,5.812,5.9041,6.0285,6.0458,6.0915,6.1757,6.1997,6.18,6.132,6.2137,6.2332,6.1916,6.2182,6.2164,6.1803,6.2143,6.2173,6.2101,6.2031,6.2607,6.3618,6.5034,6.5742,6.6012,6.726,6.7968,6.8136,6.8912,6.9653,7.0204,7.0272,7.0621,7.1455,7.2551,7.3572,7.4104,7.4054,7.488,7.6489,7.7992,7.9932,8.2665,8.4417,8.6014,8.7459,8.929,9.1093,9.2938,9.5156,9.6848,9.7938,9.9279,10.0376,10.098,10.1925,10.2935,10.3941,10.4577,10.528,10.6272,10.6415,10.6198,10.5723,10.4096,10.2705,10.2799,10.2418,10.1646,10.1118,10.0949,10.0698,9.9878,9.9777,9.9895,10.0016,9.9917,9.9891,9.9897,9.9902,9.9902,9.991,9.991,10.029,10.1243,10.1549,10.1891,10.315,10.2127,10.1634,10.1976,10.2241,10.2925,10.3001,10.2735,10.2887,10.2659,10.2621,10.2545,10.2431,10.1824,10.171,10.1444,10.1178,10.0685,9.9888,10.0609,10.0419,5.5229,5.5519,5.5442,5.5631,5.5574,5.5561,5.6371,5.7695,5.7695,5.8558,5.993,6.0035,5.9912,5.9912,6.0815,6.1054,6.085,6.0781,6.0668,6.0492,6.1228,6.1473,6.1468,6.271,6.3208,6.2911,6.3017,6.3089,6.3058,6.4357,6.5039,6.5141,6.654,6.7257,6.7291,6.7496,6.811,6.9299,6.9361,7.0007,7.1522,7.1735,7.2116,7.2907,7.3826,7.4521,7.5528,7.7696,7.9441,8.0319,8.3706,8.5899,8.6599,8.8215,8.9891,9.1751,9.4793,9.6682,9.7059,9.8411,9.9836,10.1169,10.142,10.1725,10.233,10.3164,10.4114,10.4881,10.402,10.3412,10.3504,10.2318,10.1582,10.1471,10.0264,9.9733,9.9579,9.9847,9.9629,9.9714,9.9868,9.9917,9.9906,9.991,9.9914,9.9914,9.991,9.9914,9.9914,9.9914,9.9955,10.0112,10.0113,9.9961,9.9963,10.0305,10.0191,10.0381,10.0647,10.0305,10.0001,9.9888,10.0039,10.0191,10.0571,10.0609,10.0115,10.0001,10.0191,10.0153,9.9963,9.9926,9.9888,9.9888,9.9882,5.627,5.6394,5.6402,5.6445,5.6495,5.6538,5.6747,5.7177,5.7177,5.803,5.9418,5.9454,5.9089,5.8715,5.9887,6.0355,6.0142,6.1014,6.1251,6.0947,6.1044,6.1038,6.0844,6.2006,6.2603,6.2635,6.348,6.3975,6.3983,6.4435,6.4573,6.4754,6.5874,6.66,6.6639,6.7645,6.8301,6.8576,6.8541,6.9191,7.029,6.9781,6.9475,7.0121,7.1909,7.3256,7.4059,7.6515,7.8747,8.0614,8.3188,8.5256,8.673,8.848,8.9745,9.0518,9.3435,9.5759,9.7047,9.8551,9.9606,10.0023,10.011,10.066,10.1771,10.2354,10.3078,10.3972,10.2073,10.0713,10.0756,10.0393,10.0129,10.0093,9.9772,9.9544,9.9629,9.9763,9.9815,9.9868,9.9903,9.9897,9.9917,9.9885,9.9887,9.9887,9.9887,9.9887,9.9887,9.9887,9.9887,9.9887,9.9887,9.9888,9.9887,9.9887,9.9888,9.9888,9.9888,9.9888,9.9888,9.9888,9.9888,9.9888,9.9888,9.9888,9.9888,9.9888,10.0001,9.9926,9.9888,9.9926,9.9885,9.9882,9.9872,5.7224,5.7334,5.7406,5.7441,5.7513,5.7511,5.7476,5.7511,5.7513,5.8026,5.8866,5.9104,5.8899,5.8458,5.9325,5.9571,5.9317,6.0033,6.0179,5.9934,6.0372,6.0388,6.0245,6.1379,6.1869,6.1852,6.2556,6.3277,6.3658,6.3798,6.4115,6.4761,6.5451,6.5847,6.5892,6.6583,6.7231,6.7594,6.7431,6.778,6.8438,6.7849,6.791,6.8928,7.0526,7.1744,7.27,7.5089,7.7244,7.8972,8.1721,8.4124,8.5909,8.7684,8.9026,8.9854,9.1682,9.3392,9.5024,9.7291,9.8573,9.8568,9.9189,10.002,10.104,10.1129,10.1395,10.2039,10.0758,9.9641,9.9669,9.9663,9.9663,9.9676,9.9676,9.9714,9.98,9.9821,9.9886,9.991,9.9897,9.9914,9.9885,9.9888,9.9887,9.9885,9.9885,9.9885,9.9885,9.9885,9.9885,9.9885,9.9885,9.9884,9.9882,9.9884,9.9888,9.9888,9.9885,9.9885,9.9888,9.9888,9.9885,9.9888,9.9888,9.9888,9.9885,9.9885,9.9885,9.9884,9.9882,9.992,9.992,9.9379,9.893,5.8184,5.8249,5.832,5.8372,5.8372,5.8372,5.8335,5.8372,5.8394,5.8394,5.8523,5.8933,5.9129,5.9117,5.9045,5.8954,5.8808,5.8532,5.833,5.8283,5.923,5.9592,5.9463,6.0697,6.1188,6.0994,6.1162,6.196,6.2903,6.2939,6.3635,6.4882,6.5148,6.52,6.5249,6.5152,6.5615,6.6644,6.6047,6.5921,6.6256,6.6101,6.686,6.8567,6.9291,7.0139,7.0951,7.3564,7.5351,7.6415,7.9816,8.2613,8.446,8.6139,8.7771,8.9378,8.9544,9.0364,9.2185,9.5129,9.6925,9.7055,9.843,9.9468,9.9618,9.9348,9.9279,9.954,9.9616,9.9584,9.9735,9.98,9.9864,9.9859,9.9847,9.9917,9.9917,9.9891,9.9902,9.9902,9.9917,9.9887,9.9887,9.9885,9.9882,9.9914,9.9914,9.9914,9.9914,9.9914,9.9914,9.9906,9.9906,9.9906,9.9906,9.9906,9.9906,9.9906,9.9906,9.9906,9.9906,9.9906,9.991,9.991,9.991,9.991,9.991,9.991,9.991,9.9914,9.9914,9.991,9.9716,9.8709,9.7479,5.8856,5.8853,5.8925,5.8925,5.8925,5.8925,5.8925,5.8925,5.8891,5.9042,5.924,5.9327,5.9379,5.9403,5.9363,5.9344,5.9253,5.9008,5.8842,5.8672,5.8768,5.8697,5.859,5.978,6.0323,6.0425,6.1431,6.2068,6.2351,6.238,6.2518,6.2818,6.3752,6.4781,6.585,6.5627,6.5484,6.5413,6.3908,6.3639,6.4742,6.4628,6.4802,6.5492,6.7117,6.8479,6.9508,7.1835,7.4091,7.6286,7.8726,8.0959,8.2821,8.4549,8.6185,8.7628,8.7778,8.8959,9.1729,9.3827,9.4956,9.5114,9.6657,9.7628,9.7686,9.6528,9.615,9.739,9.7725,9.8309,9.9322,9.9645,9.9806,9.9887,9.9888,9.9887,9.9885,9.9885,9.9887,9.9888,9.9887,9.9885,9.992,9.9914,9.991,9.991,9.991,9.991,9.991,9.991,9.9891,9.9895,9.9886,9.9895,9.9895,9.9903,9.991,9.9917,9.9917,9.991,9.991,9.9917,9.9879,9.9891,9.9897,9.9897,9.9906,9.991,9.9906,9.9906,9.9906,9.9902,9.9841,9.8635,9.7123,5.9072,5.9072,5.9085,5.9085,5.9081,5.9081,5.9152,5.9152,5.8809,5.8829,5.9139,5.9169,5.9266,5.9375,5.9452,5.9498,5.9586,5.9401,5.9289,5.9154,5.8964,5.8757,5.8633,5.9136,5.9436,5.9484,6.0201,6.0907,6.1535,6.1499,6.1792,6.2447,6.3089,6.3712,6.4271,6.3897,6.3946,6.4278,6.238,6.1663,6.2195,6.256,6.2881,6.3002,6.5065,6.6513,6.7386,6.9815,7.2025,7.3841,7.6706,7.9117,8.1071,8.2796,8.4423,8.5883,8.5841,8.6819,8.9195,9.0112,9.123,9.2847,9.4539,9.5246,9.4432,9.4105,9.4445,9.5451,9.5725,9.6243,9.7135,9.8007,9.8588,9.865,9.9392,9.9826,9.983,9.9872,9.991,9.9906,9.9906,9.9902,9.9885,9.9885,9.9917,9.991,9.991,9.991,9.991,9.9857,9.9783,9.9765,9.9765,9.9815,9.9891,9.9864,9.9826,9.9838,9.9838,9.9838,9.9838,9.9838,9.9848,9.983,9.9802,9.9848,9.9903,9.991,9.991,9.991,9.991,9.9903,9.984,9.9193,9.7528,5.8798,5.877,5.8834,5.8834,5.8817,5.8865,5.8921,5.895,5.8077,5.8002,5.8439,5.8651,5.8898,5.9155,5.9318,5.9489,5.9643,5.967,5.9613,5.9508,5.9379,5.9301,5.9139,5.8932,5.8832,5.8784,5.8672,5.9313,6.0466,6.0483,6.1099,6.2269,6.2514,6.2379,6.2039,6.1693,6.1887,6.2683,6.0999,6.0,5.9732,6.0602,6.108,6.1175,6.2834,6.4228,6.5076,6.7394,6.9361,7.0718,7.4042,7.68,7.8749,8.0446,8.2159,8.3601,8.3759,8.4377,8.5736,8.5723,8.6995,9.005,9.2233,9.2433,9.0411,9.175,9.293,9.3414,9.3677,9.3903,9.4334,9.5745,9.672,9.6864,9.8085,9.8928,9.8787,9.8882,9.8929,9.8891,9.9317,9.946,9.9403,9.9669,9.9886,9.9902,9.9864,9.9891,9.9841,9.9749,9.9613,9.9537,9.9575,9.9726,9.9786,9.9764,9.9689,9.9651,9.9651,9.9651,9.9689,9.9651,9.9667,9.9674,9.9688,9.9739,9.9841,9.9891,9.9853,9.9853,9.9853,9.9853,9.9841,9.9347,9.8098,5.7316,5.7364,5.7402,5.7502,5.7491,5.7741,5.779,5.7741,5.646,0.0,0.0,5.7679,5.8175,5.8483,5.8969,5.928,5.9518,5.9636,5.968,5.9635,5.9607,5.9536,5.9419,5.9374,5.9296,5.9174,5.9137,5.9215,5.9418,5.936,5.9463,5.9714,6.078,6.1328,6.1303,6.1791,6.1331,5.9912,5.9019,5.891,5.9663,5.9528,5.9549,5.9515,6.0095,6.1271,6.3037,6.3953,6.607,6.9508,7.0804,7.2483,7.4615,7.665,7.841,7.9984,8.1101,8.2371,8.3628,8.3521,8.4222,8.6078,8.9177,8.9583,8.6247,8.7833,8.9668,9.1191,9.1478,9.2233,9.3849,9.4306,9.4558,9.4759,9.5064,9.5309,9.5416,9.5539,9.5758,9.5758,9.6908,9.7717,9.7704,9.884,9.9749,9.9735,9.9697,9.9735,9.972,9.9564,9.9369,9.9369,9.9347,9.9423,9.952,9.9498,9.9444,9.9385,9.9369,9.9407,9.9407,9.9407,9.9428,9.9544,9.9564,9.9562,9.9613,9.9682,9.9735,9.9735,9.9735,9.9735,9.9575,9.8467,9.6757,5.4935,5.5048,5.512,5.5276,0.0,5.5786,5.5228,5.4175,5.3794,5.4413,5.569,5.644,5.7112,5.7781,5.8357,5.8783,5.9117,5.9369,5.9516,5.9565,5.9643,5.9673,5.9674,5.96,5.9563,5.9489,5.9508,5.9439,5.9394,5.9357,5.9379,5.9312,5.9852,6.0114,6.0039,6.023,5.9524,5.7924,5.7336,5.7046,5.7144,5.7498,5.7644,5.7475,5.8469,0.0,0.0,0.0,0.0,0.0,0.0,0.0,0.0,0.0,0.0,7.5363,7.5971,7.7144,7.9241,7.9833,8.0768,8.2391,8.4679,8.4966,8.2509,8.4029,8.5543,8.6683,8.7654,8.8696,8.9793,9.149,9.2587,9.2693,9.3515,9.4105,9.4176,9.434,9.4477,9.4572,9.5234,9.5745,9.5801,9.7314,9.8297,9.8373,9.9016,9.9507,9.9526,9.9256,9.9143,9.9116,9.9116,9.9089,9.9202,9.9099,9.8958,9.9024,9.9051,9.9089,9.9116,9.9143,9.9207,9.9258,9.9308,9.9317,9.9369,9.9411,9.9544,9.9602,9.9545,9.9279,9.8147,9.7272,9.5925,5.192,5.2118,5.2196,5.2494,5.2922,5.2776,5.1871,5.0424,5.1195,5.2428,5.4116,5.5147,5.6108,5.6963,5.7648,5.8181,5.8645,5.9026,5.9268,5.9432,5.9563,5.9669,5.9779,5.968,5.9644,5.9604,5.9639,5.9633,5.9665,5.9679,5.9683,5.9668,5.9483,5.9259,5.9139,0.0,0.0,0.0,5.6261,5.5484,5.4599,5.5399,5.5604,5.528,5.6645,0.0,5.8616,5.9437,6.0304,6.1358,6.3429,0.0,0.0,0.0,0.0,0.0,0.0,0.0,0.0,0.0,0.0,0.0,7.9184,7.9468,7.8973,8.0349,8.1751,8.2757,8.4143,8.5081,8.5345,8.7912,8.9584,8.9689,9.0933,9.1994,9.2362,9.2542,9.2875,9.3151,9.3515,9.379,9.395,9.5346,9.6402,9.6516,9.7798,9.8566,9.8215,9.7847,9.7883,9.7889,9.7749,9.8091,9.8658,9.8586,9.8476,9.8583,9.8583,9.8654,9.8725,9.8758,9.886,9.8922,9.8991,9.9042,9.9003,9.9105,9.9207,9.9396,9.9283,9.8642,9.6675,9.5786,9.4622,4.7995,4.8204,4.857,4.8961,4.934,4.7991,4.7793,4.8406,4.9406,5.0682,5.2009,5.409,5.542,5.6374,5.7072,5.7795,5.8404,5.8759,5.8997,5.9176,5.9359,5.9533,5.9536,5.9499,5.9487,5.951,5.9517,5.9569,5.9674,5.9696,5.968,5.967,5.9638,5.9568,5.9404,5.9139,5.8623,5.7818,5.6338,5.5131,5.4154,5.3946,5.3598,5.3108,5.3338,5.4319,5.6277,5.7137,5.7976,5.8933,6.0102,6.0458,5.9813,6.1665,6.3557,0.0,6.6426,0.0,0.0,0.0,0.0,0.0,0.0,0.0,0.0,7.7337,7.9445,8.253,8.3016,8.3209,8.3366,8.3663,8.3964,8.4191,8.4339,8.5046,8.6568,8.7037,8.7696,8.9007,9.0657,9.1715,9.1819,9.3342,9.4451,9.4526,9.5702,9.6066,9.465,9.4399,9.4441,9.407,9.467,9.59,9.7391,9.7873,9.7873,9.7985,9.7948,9.81,9.81,9.818,9.8256,9.8295,9.8481,9.8626,9.8623,9.8617,9.8715,9.8816,9.8628,9.7862,9.5865,9.3586,9.1496,4.4952,4.5287,4.556,4.5923,4.6041,4.5969,4.6604,4.7773,4.8982,5.022,5.1654,5.3245,5.4767,5.6199,5.6985,5.7625,5.8103,5.8546,5.8834,5.8865,5.9135,5.9233,5.9171,5.9171,5.9205,5.9268,5.9199,5.9208,5.9344,5.9417,5.9563,5.9688,5.9681,5.9619,5.945,5.9242,5.8706,5.7941,5.6797,5.5442,5.3915,5.3201,5.2491,5.1785,5.103,5.1344,5.271,5.2974,5.3717,5.4916,5.5889,5.5926,5.4931,5.6662,5.814,0.0,0.0,0.0,0.0,0.0,0.0,0.0,0.0,0.0,0.0,0.0,7.4799,7.7205,7.828,7.8799,7.88,8.0391,8.1465,8.1582,8.2283,8.3061,8.3923,8.4674,8.5606,8.6723,8.8652,8.9797,8.983,9.1282,9.2358,9.2358,9.2792,9.2764,9.1979,9.2572,9.305,9.2888,9.318,9.3718,9.4462,9.4553,9.4849,9.5768,9.6074,9.6408,9.7428,9.7705,9.7787,9.775,9.7919,9.7973,9.7829,9.8026,9.8256,9.8033,9.6608,9.4571,9.2883,9.1355,9.0018,4.2868,4.3182,4.3042,4.3249,4.3533,4.4779,4.6152,4.7564,4.9113,5.0618,5.1942,5.2737,5.4002,5.5512,5.6045,5.6458,5.6867,5.7671,5.8081,5.816,5.8697,5.8907,5.8804,5.8771,5.8832,5.8902,5.8818,5.8813,5.8964,5.9083,5.9283,5.9574,5.9233,5.9033,5.8918,5.9019,5.8631,5.7878,5.7036,5.5718,5.387,5.2454,5.1127,4.9881,4.8826,4.8556,4.9136,4.9568,5.0243,5.1354,5.1785,5.1475,5.0393,5.1172,0.0,0.0,0.0,0.0,0.0,0.0,0.0,0.0,0.0,6.3873,6.6617,0.0,7.0219,0.0,7.3314,7.4613,7.4873,7.7053,0.0,0.0,7.9471,8.0276,8.0645,8.1855,8.302,8.4024,8.6681,8.8212,8.7692,8.9145,9.0078,8.9593,8.958,8.9625,8.9625,9.0603,9.1168,9.0952,9.1149,9.128,9.113,9.1188,9.192,9.3292,9.3565,9.4059,9.5557,9.5845,9.5933,9.5933,9.6033,9.6107,9.5832,9.6185,9.6352,9.6083,9.3584,9.0913,8.9896,8.9354,8.8569,4.1898,4.1964,4.1037,4.1122,4.2132,4.4099,4.5887,4.7603,5.0214,5.1959,5.2912,5.2786,5.3046,5.365,5.3372,0.0,5.3702,5.5432,5.6275,5.6447,5.7915,5.8518,5.8518,5.8374,5.8352,5.8345,5.8419,5.8404,5.8536,5.8672,5.8922,5.9246,5.8009,5.7364,5.737,5.8386,5.8498,5.7605,5.6669,5.5562,5.4228,5.1457,4.8818,4.6336,4.6171,4.6191,4.6425,4.8233,4.9282,4.9331,4.8454,4.7424,4.6372,0.0,0.0,0.0,0.0,0.0,0.0,0.0,0.0,0.0,0.0,0.0,0.0,0.0,0.0,6.697,6.9638,0.0,7.3134,7.32,0.0,0.0,0.0,7.3527,7.5089,7.6709,7.8377,7.9936,0.0,0.0,8.5607,8.6993,8.7433,8.5647,8.6532,8.7394,8.7309,8.716,8.6941,8.6675,8.7713,8.8393,8.7914,8.9011,8.9978,9.0416,9.0876,9.1045,9.1442,9.1639,9.1736,9.1882,9.2047,9.228,9.2169,9.2096,9.2064,9.1383,8.9804,8.8676,8.8372,8.7222,8.5746,4.2301,4.4554,4.4202,4.4254,4.4831,4.6043,4.7161,4.8404,4.9962,5.1164,5.2021,5.2319,5.2667,5.3132,5.3214,0.0,0.0,0.0,5.4761,5.4825,5.5344,5.5507,5.5461,5.5227,5.5171,5.5165,5.5134,5.5263,5.5489,5.5681,5.5939,5.6207,0.0,5.5961,5.6932,5.7218,5.7417,5.7511,5.6567,5.5363,5.388,5.1555,4.8237,4.3914,4.1987,4.163,4.2855,4.346,4.3896,4.412,4.4499,4.3594,0.0,0.0,0.0,0.0,0.0,0.0,0.0,0.0,0.0,0.0,0.0,5.6181,5.872,0.0,0.0,0.0,6.4658,6.5853,6.7222,6.7995,0.0,0.0,0.0,0.0,0.0,0.0,0.0,7.7209,8.1763,8.4211,8.3355,8.2886,8.2707,8.2903,8.339,8.3655,8.3552,0.0,8.2757,8.2506,8.2687,8.277,8.2649,8.3767,8.4663,8.4802,8.6504,8.8245,8.9613,9.0024,9.0152,9.035,9.067,9.0946,9.0946,8.7322,8.4648,8.5308,8.4407,8.3469,8.3576,8.3011,8.2397,4.2777,0.0,0.0,0.0,0.0,4.6541,4.7681,4.8891,5.013,5.0919,5.1438,5.1167,0.0,0.0,0.0,0.0,0.0,0.0,5.2851,5.3245,5.3629,5.3674,5.3538,5.3156,5.3033,5.3095,5.3043,5.3132,5.3316,5.1899,5.1528,5.2167,0.0,0.0,0.0,0.0,5.5942,5.6533,5.5686,5.4483,5.3227,5.1161,4.7599,4.2402,3.8209,3.6623,3.7976,3.8052,3.8745,4.0194,4.0742,0.0,0.0,0.0,0.0,0.0,0.0,0.0,0.0,0.0,0.0,0.0,0.0,0.0,0.0,0.0,0.0,0.0,0.0,0.0,6.2211,6.3932,6.4863,0.0,0.0,0.0,0.0,0.0,0.0,0.0,0.0,0.0,7.8452,7.8156,7.862,0.0,0.0,8.1018,8.087,8.0373,7.9853,7.9573,7.9013,0.0,7.85,7.9199,7.9754,7.968,8.18,8.4034,8.5881,8.6232,8.6404,8.6576,8.6949,8.708,8.6495,8.2498,7.9988,8.0612,8.0285,7.9708,7.9862,7.9826,7.9612,0.0,0.0,0.0,0.0,0.0,0.0,0.0,0.0,5.0736,5.1492,0.0,4.9014,0.0,0.0,0.0,0.0,4.6952,4.8581,0.0,0.0,5.3171,5.3867,5.3512,5.2988,5.2918,5.3022,5.2828,5.2855,5.2809,4.7559,0.0,0.0,0.0,0.0,0.0,0.0,5.4054,5.4641,5.3539,5.2701,5.2211,4.9774,4.6355,4.1902,3.5183,3.1552,3.1419,3.2325,3.4713,3.8691,3.732,0.0,0.0,0.0,0.0,0.0,0.0,0.0,0.0,0.0,0.0,0.0,0.0,0.0,0.0,0.0,0.0,0.0,0.0,0.0,0.0,6.1646,0.0,0.0,0.0,0.0,0.0,0.0,0.0,0.0,0.0,7.4568,7.0085,7.3085,7.5915,7.5987,0.0,0.0,0.0,0.0,7.8395,7.8113,7.7453,7.6921,7.6765,7.6632,7.6507,7.6542,0.0,0.0,7.8238,7.8781,7.9236,7.913,7.9717,7.9264,7.8245,7.7863,7.8008,7.8394,7.8254,7.8604,7.8914,7.8178,7.7339,0.0,0.0,0.0,0.0,0.0,0.0,0.0,0.0,0.0,4.5261,4.5365,4.4435,0.0,0.0,0.0,0.0,0.0,0.0,0.0,0.0,4.7447,4.8204,4.9143,4.7737,4.7608,0.0,4.7578,4.7073,0.0,0.0,0.0,0.0,0.0,0.0,0.0,0.0,5.2208,5.3009,5.189,5.0563,4.9078,4.6494,4.2736,3.7691,3.2437,2.8332,2.5514,2.5742,2.7858,0.0,0.0,0.0,0.0,0.0,0.0,0.0,0.0,0.0,0.0,0.0,0.0,0.0,0.0,0.0,0.0,0.0,0.0,0.0,0.0,0.0,0.0,0.0,5.9102,0.0,0.0,0.0,0.0,0.0,0.0,0.0,0.0,0.0,6.7235,6.842,7.0126,7.2152,7.2957,7.3217,7.2873,0.0,0.0,0.0,0.0,0.0,0.0,0.0,7.1483,7.1516,7.3394,7.5097,7.5469,7.637,7.6998,7.7407,0.0,0.0,7.0706,7.0575,7.155,7.228,7.2072,7.176,7.1828,7.1621,7.1136,0.0,0.0,0.0,0.0,0.0,0.0,0.0,0.0,0.0,4.0678,4.0758,0.0,0.0,0.0,0.0,0.0,0.0,0.0,0.0,0.0,0.0,0.0,4.5835,4.4538,0.0,0.0,0.0,0.0,0.0,0.0,0.0,0.0,0.0,0.0,0.0,0.0,4.9835,5.1273,5.0089,4.8694,4.726,4.4342,4.0095,3.4646,2.9721,2.5088,2.066,0.0,0.0,0.0,0.0,0.0,0.0,0.0,0.0,0.0,0.0,0.0,0.0,0.0,0.0,0.0,0.0,0.0,0.0,0.0,0.0,0.0,0.0,0.0,0.0,0.0,5.6189,0.0,0.0,0.0,0.0,0.0,0.0,0.0,0.0,0.0,0.0,6.4168,6.5946,6.8278,6.8564,6.8476,6.8489,6.7681,6.6968,0.0,0.0,0.0,0.0,0.0,0.0,0.0,0.0,0.0,0.0,0.0,0.0,0.0,0.0,7.0775,6.5405,6.5206,6.6204,6.689,0.0,0.0,0.0,0.0,0.0,0.0,0.0,0.0,0.0,0.0,0.0,0.0,0.0,0.0,0.0,3.8212,0.0,0.0,3.4242,0.0,0.0,0.0,0.0,0.0,0.0,0.0,0.0,0.0,0.0,0.0,0.0,0.0,0.0,0.0,0.0,0.0,0.0,0.0,0.0,0.0,0.0,4.7062,4.9649,4.8324,4.733,4.6648,4.3328,3.8734,3.3031,2.7147,2.1739,1.6899,0.0,0.0,0.0,0.0,0.0,0.0,0.0,0.0,0.0,0.0,0.0,0.0,0.0,0.0,0.0,0.0,0.0,0.0,0.0,0.0,0.0,0.0,0.0,0.0,0.0,0.0,5.5778,5.6957,5.7478,0.0,0.0,0.0,0.0,0.0,0.0,0.0,0.0,0.0,6.451,6.5431,6.6262,6.7023,6.6056,6.4944,6.477,6.3609,6.2807,6.2744,6.2363,6.2065,0.0,0.0,0.0,0.0,0.0,0.0,0.0,0.0,0.0,0.0,0.0,0.0,0.0,0.0,0.0,0.0,0.0,0.0,0.0,0.0,0.0,0.0,0.0,0.0,0.0,0.0,0.0,0.0,0.0,0.0,0.0,0.0,0.0,0.0,0.0,0.0,0.0,0.0,0.0,0.0,0.0,0.0,0.0,0.0,0.0,0.0,0.0,0.0,0.0,0.0,0.0,0.0,0.0,0.0,4.6516,4.8235,4.6986,4.548,4.3867,4.0423,3.5892,3.0325,2.4005,1.756,0.0,0.0,0.0,0.0,0.0,0.0,0.0,0.0,0.0,0.0,0.0,0.0,0.0,0.0,0.0,0.0,0.0,0.0,0.0,0.0,0.0,0.0,0.0,0.0,0.0,0.0,0.0,0.0,5.3349,5.4681,5.4268,0.0,0.0,0.0,0.0,0.0,0.0,0.0,0.0,0.0,0.0,6.2068,6.152,6.1177,6.0647,5.9902,5.8841,5.7953,5.7682,5.7407,5.7376,5.7499,0.0,0.0,0.0,0.0,0.0,0.0,0.0,0.0,0.0,0.0,0.0,0.0,0.0,0.0,0.0,0.0,0.0,0.0,0.0,0.0,0.0,0.0,0.0,0.0,0.0,0.0,0.0,0.0,0.0,0.0,0.0,0.0,0.0,0.0,0.0,0.0,0.0,0.0,0.0,0.0,0.0,0.0,0.0,0.0,0.0,0.0,0.0,0.0,0.0,0.0,0.0,0.0,0.0,4.5444,4.6763,4.6154,4.4823,4.2689,3.9148,3.456,2.8861,2.2389,1.5626,0.0,0.0,0.0,0.0,0.0,0.0,0.0,0.0,0.0,0.0,0.0,0.0,0.0,0.0,0.0,0.0,0.0,0.0,0.0,0.0,0.0,0.0,0.0,0.0,0.0,0.0,0.0,0.0,5.0731,5.22,5.3099,0.0,0.0,0.0,0.0,0.0,0.0,0.0,0.0,0.0,0.0,5.8324,5.7584,5.7033,0.0,0.0,5.4361,5.3583,5.3369,5.3122,5.3122,5.3461,5.4185,0.0,0.0,0.0,0.0,0.0,0.0,0.0,0.0,0.0,0.0,0.0,0.0,0.0,0.0,0.0,0.0,0.0,0.0,0.0,0.0,0.0,0.0,0.0,0.0,0.0,0.0,0.0,0.0,0.0,0.0,0.0,0.0,0.0,0.0,0.0,0.0,0.0,0.0,0.0,0.0,0.0,0.0,0.0,0.0,0.0,0.0,0.0,0.0,0.0,0.0,0.0,0.0,4.3985,4.5452,4.5772,4.5,4.2977,3.9186,3.4296,2.8404,2.1744,1.5108,0.0,0.0,0.0,0.0,0.0,0.0,0.0,0.0,0.0,0.0,0.0,0.0,0.0,0.0,0.0,0.0,0.0,0.0,0.0,0.0,0.0,0.0,0.0,0.0,0.0,0.0,0.0,0.0,0.0,0.0,0.0,0.0,0.0,0.0,0.0,0.0,0.0,0.0,0.0,0.0,0.0,5.4954,5.4925,5.3696,5.2544,0.0,5.0661,4.9882,4.9791,4.9521,4.9434,4.9858,0.0,0.0,0.0,0.0,0.0,0.0,0.0,0.0,0.0,0.0,0.0,0.0,0.0,0.0,0.0,0.0,0.0,0.0,0.0,0.0,0.0,0.0,0.0,0.0,0.0,0.0,0.0,0.0,0.0,0.0,0.0,0.0,0.0,0.0,0.0,0.0,0.0,0.0,0.0,0.0,0.0,0.0,0.0,0.0,0.0,0.0,0.0,0.0,0.0,0.0,0.0,0.0,0.0,0.0,4.571,4.5181,4.4471,4.3493,3.947,3.4092,2.7349,1.9254,0.0,0.0,0.0,0.0,0.0,0.0,0.0,0.0,0.0,0.0,0.0,0.0,0.0,0.0,0.0,0.0,0.0,0.0,0.0,0.0,0.0,0.0,0.0,0.0,0.0,0.0,0.0,4.1703,0.0,0.0,0.0,0.0,0.0,0.0,0.0,0.0,0.0,0.0,0.0,0.0,0.0,0.0,5.2771,5.259,5.2335,5.1733,0.0,0.0,4.8904,4.7769,4.7391,4.744,0.0,0.0,0.0,0.0,0.0,0.0,0.0,0.0,0.0,0.0,0.0,0.0,0.0,0.0,0.0,0.0,0.0,0.0,0.0,0.0,0.0,0.0,0.0,0.0,0.0,0.0,0.0,0.0,0.0,0.0,0.0,0.0,0.0,0.0,0.0,0.0,0.0,0.0,0.0,0.0,0.0,0.0,0.0,0.0,0.0,0.0,0.0,0.0,0.0,0.0,0.0,0.0,0.0,0.0,4.2234,4.3947,4.394,4.3348,4.2286,3.8354,3.2827,2.5652,1.7395,0.9669,0.0,0.0,0.0,0.0,0.0,0.0,0.0,0.0,0.0,0.0,0.0,0.0,0.0,0.0,0.0,0.0,0.0,0.0,0.0,0.0,0.0,0.0,0.0,0.0,0.0,0.0,0.0,0.0,0.0,0.0,0.0,0.0,0.0,0.0,0.0,0.0,0.0,0.0,0.0,0.0,0.0,0.0,5.0866,5.0329,0.0,0.0,0.0,4.7752,4.6826,0.0,0.0,0.0,0.0,0.0,0.0,0.0,0.0,0.0,0.0,0.0,0.0,0.0,0.0,0.0,0.0,0.0,0.0,0.0,0.0,0.0,0.0,0.0,0.0,0.0,0.0,0.0,0.0,0.0,0.0,0.0,0.0,0.0,0.0,0.0,0.0,0.0,0.0,0.0,0.0,0.0,0.0,0.0,0.0,0.0,0.0,0.0,0.0,0.0,0.0,0.0,0.0,0.0,0.0,0.0,0.0,0.0,4.166,4.2409,4.2152,4.0726,3.7082,3.1335,2.3606,1.5643,0.717,0.0,0.0,0.0,0.0,0.0,0.0,0.0,0.0,0.0,0.0,0.0,0.0,0.0,0.0,0.0,0.0,0.0,0.0,0.0,0.0,0.0,0.0,0.0,0.0,0.0,0.0,0.0,0.0,0.0,0.0,0.0,0.0,0.0,0.0,0.0,0.0,0.0,0.0,0.0,0.0,0.0,4.8685,4.9332,4.8173,4.7096,0.0,0.0,4.68,4.6389,4.681,0.0,0.0,0.0,0.0,0.0,0.0,0.0,0.0,0.0,0.0,0.0,0.0,0.0,0.0,0.0,0.0,0.0,0.0,0.0,0.0,0.0,0.0,0.0,0.0,0.0,0.0,0.0,0.0,0.0,0.0,0.0,0.0,0.0,0.0,0.0,0.0,0.0,0.0,0.0,0.0,0.0,0.0,0.0,0.0,0.0,0.0,0.0,0.0,0.0,0.0,0.0,0.0,0.0,0.0,0.0,0.0,4.1819,4.1789,4.179,4.1889,3.8619,3.1988,2.1957,1.2703,0.3051,0.0,0.0,0.0,0.0,0.0,0.0,0.0,0.0,0.0,0.0,0.0,0.0,0.0,0.0,0.0,0.0,0.0,0.0,0.0,0.0,0.0,0.0,0.0,0.0,0.0,0.0,0.0,0.0,0.0,0.0,0.0,0.0,0.0,0.0,0.0,0.0,0.0,0.0,0.0,0.0,0.0,4.6511,4.7199,4.6676,0.0,0.0,0.0,0.0,4.6095,4.7603,0.0,0.0,0.0,0.0,0.0,0.0,0.0,0.0,0.0,0.0,0.0,0.0,0.0,0.0,0.0,0.0,0.0,0.0,0.0,0.0,0.0,0.0,0.0,0.0,0.0,0.0,0.0,0.0,0.0,0.0,0.0,0.0,0.0,0.0,0.0,0.0,0.0,0.0,0.0,0.0,0.0,0.0,0.0,0.0,0.0,0.0,0.0,0.0,0.0,0.0,0.0,0.0,0.0,0.0,0.0,0.0,4.0876,4.065,4.0471,4.0417,3.7623,2.9662,1.6373,0.8129,-0.2272,0.0,0.0,0.0,0.0,0.0,0.0,0.0,0.0,0.0,0.0,0.0,0.0,0.0,0.0,0.0,0.0,0.0,0.0,0.0,0.0,0.0,0.0,0.0,0.0,0.0,0.0,0.0,0.0,0.0,0.0,0.0,0.0,0.0,0.0,0.0,0.0,0.0,0.0,0.0,0.0,4.7157,4.6568,4.7701,0.0,0.0,0.0,0.0,0.0,0.0,4.8684,4.9368,0.0,0.0,0.0,0.0,0.0,0.0,0.0,0.0,0.0,0.0,0.0,0.0,0.0,0.0,0.0,0.0,0.0,0.0,0.0,0.0,0.0,0.0,0.0,0.0,0.0,0.0,0.0,0.0,0.0,0.0,0.0,0.0,0.0,0.0,0.0,0.0,0.0,0.0,0.0,0.0,0.0,0.0,0.0,0.0,0.0,0.0,0.0,0.0,0.0,0.0,0.0,0.0,0.0,0.0,0.0,3.9854,3.9597,3.9141,3.8446,3.5912,2.6943,1.1355,0.3891,-0.7029,-2.1607,0.0,0.0,0.0,0.0,0.0,0.0,0.0,0.0,0.0,0.0,0.0,0.0,0.0,0.0,0.0,0.0,0.0,0.0,0.0,0.0,0.0,0.0,0.0,0.0,0.0,0.0,0.0,0.0,0.0,0.0,0.0,0.0,0.0,0.0,0.0,0.0,0.0,0.0,0.0,4.7641,4.7284,0.0,0.0,0.0,0.0,0.0,0.0,0.0,0.0,4.981,0.0,0.0,0.0,0.0,0.0,0.0,0.0,0.0,0.0,0.0,0.0,0.0,0.0,0.0,0.0,0.0,0.0,0.0,0.0,0.0,0.0,0.0,0.0,0.0,0.0,0.0,0.0,0.0,0.0,0.0,0.0,0.0,0.0,0.0,0.0,0.0,0.0,0.0,0.0,0.0,0.0,0.0,0.0,0.0,0.0,0.0,0.0,0.0,0.0,0.0,0.0,0.0,0.0,0.0,0.0,0.0,3.96,3.91,3.825,3.5148,2.6815,1.3029,0.2879,-0.8341,-2.0903,0.0,0.0,0.0,0.0,0.0,0.0,0.0,0.0,0.0,0.0,0.0,0.0,0.0,0.0,0.0,0.0,0.0,0.0,0.0,0.0,0.0,0.0,0.0,0.0,0.0,0.0,0.0,0.0,0.0,0.0,0.0,0.0,0.0,0.0,0.0,0.0,0.0,0.0,4.6575,4.6945,0.0,0.0,0.0,0.0,0.0,0.0,0.0,0.0,5.0998,0.0,0.0,0.0,0.0,0.0,0.0,0.0,0.0,0.0,0.0,0.0,0.0,0.0,0.0,0.0,0.0,0.0,0.0,0.0,0.0,0.0,0.0,0.0,0.0,0.0,0.0,0.0,0.0,0.0,0.0,0.0,0.0,0.0,0.0,0.0,0.0,0.0,0.0,0.0,0.0,0.0,0.0,0.0,0.0,0.0,0.0,0.0,0.0,0.0,0.0,0.0,0.0,0.0,0.0,0.0,0.0,0.0,0.0,3.8705,3.7748,3.5134,2.6893,1.2863,0.7344,-0.0518,0.0,0.0,0.0,0.0,0.0,0.0,0.0,0.0,0.0,0.0,0.0,0.0,0.0,0.0,0.0,0.0,0.0,0.0,0.0,0.0,0.0,0.0,0.0,0.0,0.0,0.0,0.0,0.0,0.0,0.0,0.0,0.0,0.0,0.0,0.0,0.0,0.0,0.0,0.0,0.0,0.0,0.0,0.0,0.0,0.0,0.0,0.0,0.0,0.0,0.0,0.0,0.0,0.0,0.0,0.0,0.0,0.0,0.0,0.0,0.0,0.0,0.0,0.0,0.0,0.0,0.0,0.0,0.0,0.0,0.0,0.0,0.0,0.0,0.0,0.0,0.0,0.0,0.0,0.0,0.0,0.0,0.0,0.0,0.0,0.0,0.0,0.0,0.0,0.0,0.0,0.0,0.0,0.0,0.0,0.0,0.0,0.0,0.0,0.0,0.0,0.0,0.0,0.0,0.0,0.0,0.0,0.0,0.0,3.8254,3.7146,3.495,2.7392,1.4134,1.2427,0.7778,0.0,0.0,0.0,0.0,0.0,0.0,0.0,0.0,0.0,0.0,0.0,0.0,0.0,0.0,0.0,0.0,0.0,0.0,0.0,0.0,0.0,0.0,0.0,0.0,0.0,0.0,0.0,0.0,0.0,0.0,0.0,0.0,0.0,0.0,0.0,0.0,0.0,0.0,0.0,0.0,0.0,0.0,0.0,0.0,0.0,0.0,0.0,0.0,4.8679,0.0,0.0,0.0,0.0,0.0,0.0,0.0,0.0,0.0,0.0,0.0,0.0,0.0,0.0,0.0,0.0,0.0,0.0,0.0,0.0,0.0,0.0,0.0,0.0,0.0,0.0,0.0,0.0,0.0,0.0,0.0,0.0,0.0,0.0,0.0,0.0,0.0,0.0,0.0,0.0,0.0,0.0,0.0,0.0,0.0,0.0,0.0,0.0,0.0,0.0,0.0,0.0,0.0,0.0,0.0,0.0,0.0,0.0,0.0,3.7905,3.6609,3.3779,2.8752,2.1417,1.5434,1.1274,0.0,0.0,0.0,0.0,0.0,0.0,0.0,0.0,0.0,0.0,0.0,0.0,0.0,0.0,0.0,0.0,0.0,0.0,0.0,0.0,0.0,0.0,0.0,0.0,0.0,0.0,0.0,0.0,0.0,0.0,0.0,0.0,0.0,0.0,0.0,0.0,0.0,0.0,0.0,0.0,0.0,0.0,0.0,0.0,0.0,0.0,0.0,0.0,0.0,0.0,0.0,0.0,0.0,0.0,0.0,0.0,0.0,0.0,0.0,0.0,0.0,0.0,0.0,0.0,0.0,0.0,0.0,0.0,0.0,0.0,0.0,0.0,0.0,0.0,0.0,0.0,0.0,0.0,0.0,0.0,0.0,0.0,0.0,0.0,0.0,0.0,0.0,0.0,0.0,0.0,0.0,0.0,0.0,0.0,0.0,0.0,0.0,0.0,0.0,0.0,0.0,0.0,0.0,0.0,0.0,0.0,0.0,0.0,3.7737,3.6577,3.438,3.1948,2.9258,2.5473,2.1194,0.0,0.0,0.0,0.0,0.0,0.0,0.0,0.0,0.0,0.0,0.0,0.0,0.0,0.0,0.0,0.0,0.0,0.0,0.0,0.0,0.0,0.0,0.0,0.0,0.0,0.0,0.0,0.0,0.0,0.0,0.0,0.0,0.0,0.0,0.0,0.0,0.0,0.0,0.0,0.0,0.0,0.0,0.0,0.0,0.0,0.0,0.0,0.0,0.0,0.0,0.0,0.0,0.0,0.0,0.0,0.0,0.0,0.0,0.0,0.0,0.0,0.0,0.0,0.0,0.0,0.0,0.0,0.0,0.0,0.0,0.0,0.0,0.0,0.0,0.0,0.0,0.0,0.0,0.0,0.0,0.0,0.0,0.0,0.0,0.0,0.0,0.0,0.0,0.0,0.0,0.0,0.0,0.0,0.0,0.0,0.0,0.0,0.0,0.0,0.0,0.0,0.0,0.0,0.0,0.0,0.0,0.0,0.0,0.0,3.6806,3.5716,3.4971,3.4655,3.2457,2.8057,0.0,0.0,0.0,0.0,0.0,0.0,0.0,0.0,0.0,0.0,0.0,0.0,0.0,0.0,0.0,0.0,0.0,0.0,0.0,0.0,0.0,0.0,0.0,0.0,0.0,0.0,0.0,0.0,0.0,0.0,0.0,0.0,0.0,0.0,0.0,0.0,0.0,0.0,0.0,0.0,0.0,0.0,0.0,0.0,0.0,0.0,0.0,0.0,0.0,0.0,0.0,0.0,0.0,0.0,0.0,0.0,0.0,0.0,0.0,0.0,0.0,0.0,0.0,0.0,0.0,0.0,0.0,0.0,0.0,0.0,0.0,0.0,0.0,0.0,0.0,0.0,0.0,0.0,0.0,0.0,0.0,0.0,0.0,0.0,0.0,0.0,0.0,0.0,0.0,0.0,0.0,0.0,0.0,0.0,0.0,0.0,0.0,0.0,0.0,0.0,0.0,0.0,0.0,0.0,0.0,0.0,0.0,0.0,0.0,3.7454,3.788,3.7333,3.5811,3.2508,2.8287,0.0,0.0,0.0,0.0,0.0,0.0,0.0,0.0,0.0,0.0,0.0,0.0,0.0,0.0,0.0,0.0,0.0,0.0,0.0,0.0,0.0,0.0,0.0,0.0,0.0,0.0,0.0,0.0,0.0,0.0,0.0,0.0,0.0,0.0,0.0,0.0,0.0,0.0,0.0,0.0,0.0,0.0,0.0,0.0,0.0,0.0,0.0,0.0,0.0,0.0,0.0,0.0,0.0,0.0,0.0,0.0,0.0,0.0,0.0,0.0,0.0,0.0,0.0,0.0,0.0,0.0,0.0,0.0,0.0,0.0,0.0,0.0,0.0,0.0,0.0,0.0,0.0,0.0,0.0,0.0,0.0,0.0,0.0,0.0,0.0,0.0,0.0,0.0,0.0,0.0,0.0,0.0,0.0,0.0,0.0,0.0,0.0,0.0,0.0,0.0,0.0,0.0,0.0,0.0,0.0,0.0,0.0,0.0,0.0,3.7918,3.8144,3.686,3.3853,3.14,2.7314,2.1509,0.0,0.0,0.0,0.0,0.0,0.0,0.0,0.0,0.0,0.0,0.0,0.0,0.0,0.0,0.0,0.0,0.0,0.0,0.0,0.0,0.0,0.0,0.0,0.0,0.0,0.0,0.0,0.0,0.0,0.0,0.0,0.0,0.0,0.0,0.0,0.0,0.0,0.0,0.0,0.0,0.0,0.0,0.0,0.0,0.0,0.0,0.0,0.0,0.0,0.0,0.0,0.0,0.0,0.0,0.0,0.0,0.0,0.0,0.0,0.0,0.0,0.0,0.0,0.0,0.0,0.0,0.0,0.0,0.0,0.0,0.0,0.0,0.0,0.0,0.0,0.0,0.0,0.0,0.0,0.0,0.0,0.0,0.0,0.0,0.0,0.0,0.0,0.0,0.0,0.0,0.0,0.0,0.0,0.0,0.0,0.0,0.0,0.0,0.0,0.0,0.0,0.0,0.0,0.0,0.0,0.0,0.0,0.0,3.7717,3.7798,3.6043,3.2282,3.0244,2.6262,0.0,0.0,0.0,0.0,0.0,0.0,0.0,0.0,0.0,0.0,0.0,0.0,0.0,0.0,0.0,0.0,0.0,0.0,0.0,0.0,0.0,0.0,0.0,0.0,0.0,0.0,0.0,0.0,0.0,0.0,0.0,0.0,0.0,0.0,0.0,0.0,0.0,0.0,0.0,0.0,0.0,0.0,0.0,0.0,0.0,0.0,0.0,0.0,0.0,0.0,0.0,0.0,0.0,0.0,0.0,0.0,0.0,0.0,0.0,0.0,0.0,0.0,0.0,0.0,0.0,0.0,0.0,0.0,0.0,0.0,0.0,0.0,0.0,0.0,0.0,0.0,0.0,0.0,0.0,0.0,0.0,0.0,0.0,0.0,0.0,0.0,0.0,0.0,0.0,0.0,0.0,0.0,0.0,0.0,0.0,0.0,0.0,0.0,0.0,0.0,0.0,0.0,0.0,0.0,0.0,0.0,0.0,0.0,3.4976,3.6803,3.6877,3.5144,3.1583,2.9256,2.5125,0.0,0.0,0.0,0.0,0.0,0.0,0.0,0.0,0.0,0.0,0.0,0.0,0.0,0.0,0.0,0.0,0.0,0.0,0.0,0.0,0.0,0.0,0.0,0.0,0.0,0.0,0.0,0.0,0.0,0.0,0.0,0.0,0.0,0.0,0.0,0.0,0.0,0.0,0.0,0.0,0.0,0.0,0.0,0.0,0.0,0.0,0.0,0.0,0.0,0.0,0.0,0.0,0.0,0.0,0.0,0.0,0.0,0.0,0.0,0.0,0.0,0.0,0.0,0.0,0.0,0.0,0.0,0.0,0.0,0.0,0.0,0.0,0.0,0.0,0.0,0.0,0.0,0.0,0.0,0.0,0.0,0.0,0.0,0.0,0.0,0.0,0.0,0.0,0.0,0.0,0.0,0.0,0.0,0.0,0.0,0.0,0.0,0.0,0.0,0.0,0.0,0.0,0.0,0.0,0.0,0.0,0.0,0.0,0.0,3.3986,0.0,3.3642,3.0887,2.8238,2.4406,0.0,0.0,0.0,0.0,0.0,0.0,0.0,0.0,0.0,0.0,0.0,0.0,0.0,0.0,0.0,0.0,0.0,0.0,0.0,0.0,0.0,0.0,0.0,0.0,0.0,0.0,0.0,0.0,0.0,0.0,0.0,0.0,0.0,0.0,0.0,0.0,0.0,0.0,0.0,0.0,0.0,0.0,0.0,0.0,0.0,0.0,0.0,0.0,0.0,0.0,0.0,0.0,0.0,0.0,0.0,0.0,0.0,0.0,0.0,0.0,0.0,0.0,0.0,0.0,0.0,0.0,0.0,0.0,0.0,0.0,0.0,0.0,0.0,0.0,0.0,0.0,0.0,0.0,0.0,0.0,0.0,0.0,0.0,0.0,0.0,0.0,0.0,0.0,0.0,0.0,0.0,0.0,0.0,0.0,0.0,0.0,0.0,0.0,0.0,0.0,0.0,0.0,0.0,0.0,0.0,0.0,0.0,0.0,0.0,3.1597,3.2512,3.1947,2.9682,2.698,2.3416,0.0,0.0,0.0,0.0,0.0,0.0,0.0,0.0,0.0,0.0,0.0,0.0,0.0,0.0,0.0,0.0,0.0,0.0,0.0,0.0,0.0,0.0,0.0,0.0,0.0,0.0,0.0,0.0,0.0,0.0,0.0,0.0,0.0,0.0,0.0,0.0,0.0,0.0,0.0,0.0,0.0,0.0,0.0,0.0,0.0,0.0,0.0,0.0,0.0,0.0,0.0,0.0,0.0,0.0,0.0,0.0,0.0,0.0,0.0,0.0,0.0,0.0,0.0,0.0,0.0,0.0,0.0,0.0,0.0,0.0,0.0,0.0,0.0,0.0,0.0,0.0,0.0,0.0,0.0,0.0,0.0,0.0,0.0,0.0,0.0,0.0,0.0,0.0,0.0,0.0,0.0,0.0,0.0,0.0,0.0,0.0,0.0,0.0,0.0,0.0,0.0,0.0,0.0,0.0,0.0,0.0,0.0,0.0,0.0,2.9571,3.0474,3.0023,2.8244,2.548,2.2314,0.0,0.0,0.0,0.0,0.0,0.0,0.0,0.0,0.0,0.0,0.0,0.0,0.0,0.0,0.0,0.0,0.0,0.0,0.0,0.0,0.0,0.0,0.0,0.0,0.0,0.0,0.0,0.0,0.0,0.0,0.0,0.0,0.0,0.0,0.0,0.0,0.0,0.0,0.0,0.0,0.0,0.0,0.0,0.0,0.0,0.0,0.0,0.0,0.0,0.0,0.0,0.0,0.0,0.0,0.0,0.0,0.0,0.0,0.0,0.0,0.0,0.0,0.0,0.0,0.0,0.0,0.0,0.0,0.0,0.0,0.0,0.0,0.0,0.0,0.0,0.0,0.0,0.0,0.0,0.0,0.0,0.0,0.0,0.0,0.0,0.0,0.0,0.0,0.0,0.0,0.0,0.0,0.0,0.0,0.0,0.0,0.0,0.0,0.0,0.0,0.0,0.0,0.0,0.0,0.0,0.0,0.0,0.0,0.0,0.0,2.8206,2.8397,2.7875,2.4843,2.1903,1.9385,0.0,0.0,0.0,0.0,0.0,0.0,0.0,0.0,0.0,0.0,0.0,0.0,0.0,0.0,0.0,0.0,0.0,0.0,0.0,0.0,0.0,0.0,0.0,0.0,0.0,0.0,0.0,0.0,0.0,0.0,0.0,0.0,0.0,0.0,0.0,0.0,0.0,0.0,0.0,0.0,0.0,0.0,0.0,0.0,0.0,0.0,0.0,0.0,0.0,0.0,0.0,0.0,0.0,0.0,0.0,0.0,0.0,0.0,0.0,0.0,0.0,0.0,0.0,0.0,0.0,0.0,0.0,0.0,0.0,0.0,0.0,0.0,0.0,0.0,0.0,0.0,0.0,0.0,0.0,0.0,0.0,0.0,0.0,0.0,0.0,0.0,0.0,0.0,0.0,0.0,0.0,0.0,0.0,0.0,0.0,0.0,0.0,0.0,0.0,0.0,0.0,0.0,0.0,0.0,0.0,0.0,0.0,0.0,0.0,0.0,2.675,2.7034,2.4945,2.2485,0.0,0.0,0.0,0.0,0.0,0.0,0.0,0.0,0.0,0.0,0.0,0.0,0.0,0.0,0.0,0.0,0.0,0.0,0.0,0.0,0.0,0.0,0.0,0.0,0.0,0.0,0.0,0.0,0.0,0.0,0.0,0.0,0.0,0.0,0.0,0.0,0.0,0.0,0.0,0.0,0.0,0.0,0.0,0.0,0.0,0.0,0.0,0.0,0.0,0.0,0.0,0.0,0.0,0.0,0.0,0.0,0.0,0.0,0.0,0.0,0.0,0.0,0.0,0.0,0.0,0.0,0.0,0.0,0.0,0.0,0.0,0.0,0.0,0.0,0.0,0.0,0.0,0.0,0.0,0.0,0.0,0.0,0.0,0.0,0.0,0.0,0.0,0.0,0.0,0.0,0.0,0.0,0.0,0.0,0.0,0.0,0.0,0.0,0.0,0.0,0.0,0.0,0.0,0.0,0.0,0.0,0.0,0.0,0.0,0.0,0.0,2.5174,2.5491,2.5357,0.0,1.9637,0.0,0.0,0.0,0.0,0.0,0.0,0.0,0.0,0.0,0.0,0.0,0.0,0.0,0.0,0.0,0.0,0.0,0.0,0.0,0.0,0.0,0.0,0.0,0.0,0.0,0.0,0.0,0.0,0.0,0.0,0.0,0.0,0.0,0.0,0.0,0.0,0.0,0.0,0.0,0.0,0.0,0.0,0.0,0.0,0.0,0.0,0.0,0.0,0.0,0.0,0.0,0.0,0.0,0.0,0.0,0.0,0.0,0.0,0.0,0.0,0.0,0.0,0.0,0.0,0.0,0.0,0.0,0.0,0.0,0.0,0.0,0.0,0.0,0.0,0.0,0.0,0.0,0.0,0.0,0.0,0.0,0.0,0.0,0.0,0.0,0.0,0.0,0.0,0.0,0.0,0.0,0.0,0.0,0.0,0.0,0.0,0.0,0.0,0.0,0.0,0.0,0.0,0.0,0.0,0.0,0.0,0.0,0.0,0.0,0.0,0.0,0.0,2.4129,2.2809,2.0121,0.0,0.0,0.0,0.0,0.0,0.0,0.0,0.0,0.0,0.0,0.0,0.0,0.0,0.0,0.0,0.0,0.0,0.0,0.0,0.0,0.0,0.0,0.0,0.0,0.0,0.0,0.0,0.0,0.0,0.0,0.0,0.0,0.0,0.0,0.0,0.0,0.0,0.0,0.0,0.0,0.0,0.0,0.0,0.0,0.0,0.0,0.0,0.0,0.0,0.0,0.0,0.0,0.0,0.0,0.0,0.0,0.0,0.0,0.0,0.0,0.0,0.0,0.0,0.0,0.0,0.0,0.0,0.0,0.0,0.0,0.0,0.0,0.0,0.0,0.0,0.0,0.0,0.0,0.0,0.0,0.0,0.0,0.0,0.0,0.0,0.0,0.0,0.0,0.0,0.0,0.0,0.0,0.0,0.0,0.0,0.0,0.0,0.0,0.0,0.0,0.0,0.0,0.0,0.0,0.0,0.0,0.0,0.0,0.0,0.0,2.2909,2.3215,2.3286,2.2243,1.9913,0.0,0.0,0.0,0.0,0.0,0.0,0.0,0.0,0.0,0.0,0.0,0.0,0.0,0.0,0.0,0.0,0.0,0.0,0.0,0.0,0.0,0.0,0.0,0.0,0.0,0.0,0.0,0.0,0.0,0.0,0.0,0.0,0.0,0.0,0.0,0.0,0.0,0.0,0.0,0.0,0.0,0.0,0.0,0.0,0.0,0.0,0.0,0.0,0.0,0.0,0.0,0.0,0.0,0.0,0.0,0.0,0.0,0.0,0.0,0.0,0.0,0.0,0.0,0.0,0.0,0.0,0.0,0.0,0.0,0.0,0.0,0.0,0.0,0.0,0.0,0.0,0.0,0.0,0.0,0.0,0.0,0.0,0.0,0.0,0.0,0.0,0.0,0.0,0.0,0.0,0.0,0.0,0.0,0.0,0.0,0.0,0.0,0.0,0.0,0.0,0.0,0.0,0.0,0.0,0.0,0.0,0.0,0.0,0.0,0.0,0.0,0.0,0.0,0.0,1.9425,0.0,0.0,0.0,0.0,0.0,0.0,0.0,0.0,0.0,0.0,0.0,0.0,0.0,0.0,0.0,0.0,0.0,0.0,0.0,0.0,0.0,0.0,0.0,0.0,0.0,0.0,0.0,0.0,0.0,0.0,0.0,0.0,0.0,0.0,0.0,0.0,0.0,0.0,0.0,0.0,0.0,0.0,0.0,0.0,0.0,0.0,0.0,0.0,0.0,0.0,0.0,0.0,0.0,0.0,0.0,0.0,0.0,0.0,0.0,0.0,0.0,0.0,0.0,0.0,0.0,0.0,0.0,0.0,0.0,0.0,0.0,0.0,0.0,0.0,0.0,0.0,0.0,0.0,0.0,0.0,0.0,0.0,0.0,0.0,0.0,0.0,0.0,0.0,0.0,0.0,0.0,0.0,0.0,0.0,0.0,0.0,0.0,0.0,0.0,0.0,0.0,0.0,0.0,0.0,0.0,0.0,0.0,0.0,0.0,0.0,0.0,0.0,0.0,0.0,0.0,0.0,0.0,0.0,0.0,0.0,0.0,0.0,0.0,0.0,0.0,0.0,0.0,0.0,0.0,0.0,0.0,0.0,0.0,0.0,0.0,0.0,0.0,0.0,0.0,0.0,0.0,0.0,0.0,0.0,0.0,0.0,0.0,0.0,0.0,0.0,0.0,0.0,0.0,0.0,0.0,0.0,0.0,0.0,0.0,0.0,0.0,0.0,0.0,0.0,0.0,0.0,0.0,0.0,0.0,0.0,0.0,0.0,0.0,0.0,0.0,0.0,0.0,0.0,0.0,0.0,0.0,0.0,0.0,0.0,0.0,0.0,0.0,0.0,0.0,0.0,0.0,0.0,0.0,0.0,0.0,0.0,0.0,0.0,0.0,0.0,0.0,0.0,0.0,0.0,0.0,0.0,0.0,0.0,0.0,0.0,0.0,0.0,0.0,0.0,0.0,0.0,0.0,0.0,0.0,0.0,0.0,0.0,0.0,0.0,0.0,0.0,0.0,0.0,0.0,0.0,0.0,0.0,0.0,0.0,0.0,0.0,0.0,0.0,0.0,0.0,0.0,0.0,0.0,0.0,0.0,0.0,0.0,0.0,0.0,0.0,0.0,0.0,0.0,0.0,0.0,0.0,0.0,0.0,0.0,0.0,0.0,0.0,0.0,0.0,0.0,0.0,0.0,0.0,0.0,0.0,0.0,0.0,0.0,0.0,0.0,0.0,0.0,0.0,0.0,0.0,0.0,0.0,0.0,0.0,0.0,0.0,0.0,0.0,0.0,0.0,0.0,0.0,0.0,0.0,0.0,0.0,0.0,0.0,0.0,0.0,0.0,0.0,0.0,0.0,0.0,0.0,0.0,0.0,0.0,0.0,0.0,0.0,0.0,0.0,0.0,0.0,0.0,0.0,0.0,0.0,0.0,0.0,0.0,0.0,0.0,0.0,0.0,0.0,0.0,0.0,0.0,0.0,0.0,0.0,0.0,0.0,0.0,0.0,0.0,0.0,0.0,0.0,0.0,0.0,0.0,0.0,0.0,0.0,0.0,0.0,0.0,0.0,0.0,0.0,0.0,0.0,0.0,0.0,0.0,0.0,0.0,0.0,0.0,0.0,0.0,0.0,0.0,0.0,0.0,0.0,0.0,0.0,0.0,0.0,0.0,0.0,0.0,0.0,0.0,0.0,0.0,0.0,0.0,0.0,0.0,0.0,0.0,0.0,0.0,0.0,0.0,0.0,0.0,0.0,0.0,0.0,0.0,0.0,0.0,0.0,0.0,0.0,0.0,0.0,0.0,0.0,0.0,0.0,0.0,0.0,0.0,0.0,0.0,0.0,0.0,0.0,0.0,0.0,0.0,0.0,0.0,0.0,0.0,0.0,0.0,0.0,0.0,0.0,0.0,0.0,0.0,0.0,0.0,0.0,0.0,0.0,0.0,0.0,0.0,0.0,0.0,0.0,0.0,0.0,0.0,0.0,0.0,0.0,0.0,0.0,0.0,0.0,0.0,0.0,0.0,0.0,0.0,0.0,0.0,0.0,0.0,0.0,0.0,0.0,0.0,0.0,0.0,0.0,0.0,0.0,0.0,0.0,0.0,0.0,0.0,0.0,0.0,0.0,0.0,0.0,0.0,0.0,0.0,0.0,0.0,0.0,0.0,0.0,0.0,0.0,0.0,0.0,0.0,0.0,0.0,0.0,0.0,0.0,0.0,0.0,0.0,0.0,0.0,0.0,0.0,0.0,0.0,0.0,0.0,0.0,0.0,0.0,0.0,0.0,0.0,0.0,0.0,0.0,0.0,0.0,0.0,0.0,0.0,0.0,0.0,0.0,0.0,0.0,0.0,0.0,0.0,0.0,0.0,0.0,0.0,0.0,0.0,0.0,0.0,0.0,0.0,0.0,0.0,0.0,0.0,0.0,0.0,0.0,0.0,0.0,0.0,0.0,0.0,0.0,0.0,0.0,0.0,0.0,0.0,0.0,0.0,0.0,0.0,0.0,0.0,0.0,0.0,0.0,0.0,0.0,0.0,0.0,0.0,0.0,0.0,0.0,0.0,0.0,0.0,0.0,0.0,0.0,0.0,0.0,0.0,0.0,0.0,0.0,0.0,0.0,0.0,0.0,0.0,0.0,0.0,0.0,0.0,0.0,0.0,0.0,0.0,0.0,0.0,0.0,0.0,0.0,0.0,0.0,0.0,0.0,0.0,0.0,0.0,0.0,0.0,0.0,0.0,0.0,0.0,0.0,0.0,0.0,0.0,0.0,0.0,0.0,0.0,0.0,0.0,0.0,0.0,0.0,0.0,0.0,0.0,0.0,0.0,0.0,0.0,0.0,0.0,0.0,0.0,0.0,0.0,0.0,0.0,0.0,0.0,0.0,0.0,0.0,0.0,0.0,0.0,0.0,0.0,0.0,0.0,0.0,0.0,0.0,0.0,0.0,0.0,0.0,0.0,0.0,0.0,0.0,0.0,0.0,0.0,0.0,0.0,0.0,0.0,0.0,0.0,0.0,0.0,0.0,0.0,0.0,0.0,0.0,0.0,0.0,0.0,0.0,0.0,0.0,0.0,0.0,0.0,0.0,0.0,0.0,0.0,0.0,0.0,0.0,0.0,0.0,0.0,0.0,0.0,0.0,0.0,0.0,0.0,0.0,0.0,0.0,0.0,0.0,0.0,0.0,0.0,0.0,0.0,0.0,0.0,0.0,0.0,0.0,0.0,0.0,0.0,0.0,0.0,0.0,0.0,0.0,0.0,0.0,0.0,0.0,0.0,0.0,0.0,0.0,0.0,0.0,0.0,0.0,0.0,0.0,0.0,0.0,0.0,0.0,0.0,0.0,0.0,0.0,0.0,0.0,0.0,0.0,0.0,0.0,0.0,0.0,0.0,0.0,0.0,0.0,0.0,0.0,0.0,0.0,0.0,0.0,0.0,0.0,0.0,0.0,0.0,0.0,0.0,0.0,0.0,0.0,0.0,0.0,0.0,0.0,0.0,0.0,0.0,0.0,0.0,0.0,0.0,0.0,0.0,0.0,0.0,0.0,0.0,0.0,0.0,0.0,0.0,0.0,0.0,0.0,0.0,0.0,0.0,0.0,0.0,0.0,0.0,0.0,0.0,0.0,0.0,0.0,0.0,0.0,0.0,0.0,0.0,0.0,0.0,0.0,0.0,0.0,0.0,0.0,0.0,0.0,0.0,0.0,0.0,0.0,0.0,0.0,0.0,0.0,0.0,0.0,0.0,0.0,0.0,0.0,0.0,0.0,0.0,0.0,0.0,0.0,0.0,0.0,0.0,0.0,0.0,0.0,0.0,0.0,0.0,0.0,0.0,0.0,0.0,0.0,0.0,0.0,0.0,0.0,0.0,0.0,0.0,0.0,0.0,0.0,0.0,0.0,0.0,0.0,0.0,0.0,0.0,0.0,0.0,0.0,0.0,0.0,0.0,0.0,0.0,0.0,0.0,0.0,0.0,0.0,0.0,0.0,0.0,0.0,0.0,0.0,0.0,0.0,0.0,0.0,0.0,0.0,0.0,0.0,0.0,0.0,0.0,0.0,0.0,0.0,0.0,0.0,0.0,0.0,0.0,0.0,0.0,0.0,0.0,0.0,0.0,0.0,0.0,0.0,0.0,0.0,0.0,0.0,0.0,0.0,0.0,0.0,0.0,0.0,0.0,0.0,0.0,0.0,0.0,0.0,0.0,0.0,0.0,0.0,0.0,0.0,0.0,0.0,0.0,0.0,0.0,0.0,0.0,0.0,0.0,0.0,0.0,0.0,0.0,0.0,0.0,0.0,0.0,0.0,0.0,0.0,0.0,0.0,0.0,0.0,0.0,0.0,0.0,0.0,0.0,0.0,0.0,0.0,0.0,0.0]}]]]